[[{"header":{"parameterUnit":"m.s-1","parameterCategory":1,"la1":31.0,"la2":29.5877,"lo1":-88.7671,"lo2":-86.6584,"dx":0.0162,"dy":0.0185,"nx":115,"ny":88,"refTime":"2022-11-26T18:00:00:Z","depth":0,"parameterNumber":2,"parameterNumberName":"U-component_of_WINDS"},"data":[0.0,0.0,0.0,0.0,0.0,0.0,0.0,0.0,0.0,0.0,0.0,0.0,0.0,0.0,0.0,0.0,0.0,0.0,0.0,0.0,0.0,0.0,0.0,0.0,0.0,0.0,0.0,0.0,0.0,0.0,0.0,0.0,0.0,0.0,0.0,0.0,0.0,0.0,0.0,0.0,0.0,0.0,0.0,0.0,0.0,0.0,0.0,0.0,0.0,0.0,0.0,0.0,0.0,0.0,0.0,0.0,0.0,0.0,0.0,0.0,0.0,0.0,0.0,0.0,0.0,0.0,0.0,0.0,0.0,0.0,0.0,0.0,0.0,0.0,0.0,0.0,0.0,0.0,0.0,0.0,0.0,0.0,0.0,0.0,0.0,0.0,0.0,0.0,0.0,0.0,0.0,0.0,0.0,0.0,0.0,0.0,0.0,0.0,0.0,0.0,0.0,0.0,0.0,0.0,0.0,0.0,0.0,0.0,0.0,0.0,0.0,0.0,0.0,0.0,0.0,0.0,0.0,0.0,0.0,0.0,0.0,0.0,0.0,0.0,0.0,0.0,0.0,0.0,0.0,0.0,0.0,0.0,0.0,0.0,0.0,0.0,0.0,0.0,0.0,0.0,0.0,0.0,0.0,0.0,0.0,0.0,0.0,0.0,0.0,0.0,0.0,0.0,0.0,0.0,0.0,0.0,0.0,0.0,0.0,0.0,0.0,0.0,0.0,0.0,0.0,0.0,0.0,0.0,0.0,0.0,0.0,0.0,0.0,0.0,0.0,0.0,0.0,0.0,0.0,0.0,0.0,0.0,0.0,0.0,0.0,0.0,0.0,0.0,0.0,0.0,0.0,0.0,0.0,0.0,0.0,0.0,0.0,0.0,0.0,0.0,0.0,0.0,0.0,0.0,0.0,0.0,0.0,0.0,0.0,0.0,0.0,0.0,0.0,0.0,0.0,0.0,0.0,0.0,0.0,0.0,0.0,0.0,0.0,0.0,0.0,0.0,0.0,0.0,0.0,0.0,0.0,0.0,0.0,0.0,0.0,0.0,0.0,0.0,0.0,0.0,0.0,0.0,0.0,0.0,0.0,0.0,0.0,0.0,0.0,0.0,0.0,0.0,0.0,0.0,0.0,0.0,0.0,0.0,0.0,0.0,0.0,0.0,0.0,0.0,0.0,0.0,0.0,0.0,0.0,0.0,0.0,0.0,0.0,0.0,0.0,0.0,0.0,0.0,0.0,0.0,0.0,0.0,0.0,0.0,0.0,0.0,0.0,0.0,0.0,0.0,0.0,0.0,0.0,0.0,0.0,0.0,0.0,0.0,0.0,0.0,0.0,0.0,0.0,0.0,0.0,0.0,0.0,0.0,0.0,0.0,0.0,0.0,0.0,0.0,0.0,0.0,0.0,0.0,0.0,0.0,0.0,0.0,0.0,0.0,0.0,0.0,0.0,0.0,0.0,0.0,0.0,0.0,0.0,0.0,0.0,0.0,0.0,0.0,0.0,0.0,0.0,0.0,0.0,0.0,0.0,0.0,0.0,0.0,0.0,0.0,0.0,0.0,0.0,0.0,0.0,0.0,0.0,0.0,0.0,0.0,0.0,0.0,0.0,0.0,0.0,0.0,0.0,0.0,0.0,0.0,0.0,0.0,0.0,0.0,0.0,0.0,0.0,0.0,0.0,0.0,0.0,0.0,0.0,0.0,0.0,0.0,0.0,0.0,0.0,0.0,0.0,0.0,0.0,0.0,0.0,0.0,0.0,0.0,0.0,0.0,0.0,0.0,0.0,0.0,0.0,0.0,0.0,0.0,0.0,0.0,0.0,0.0,0.0,0.0,0.0,0.0,0.0,0.0,0.0,0.0,0.0,0.0,0.0,0.0,0.0,0.0,0.0,0.0,0.0,0.0,0.0,0.0,0.0,0.0,0.0,0.0,0.0,0.0,0.0,0.0,0.0,0.0,0.0,0.0,0.0,0.0,0.0,0.0,0.0,0.0,0.0,0.0,0.0,0.0,0.0,0.0,0.0,0.0,0.0,0.0,0.0,0.0,0.0,0.0,0.0,0.0,0.0,0.0,0.0,0.0,0.0,0.0,0.0,0.0,0.0,0.0,0.0,0.0,0.0,0.0,0.0,0.0,0.0,0.0,0.0,0.0,0.0,0.0,0.0,0.0,0.0,0.0,0.0,0.0,0.0,0.0,0.0,0.0,0.0,0.0,0.0,0.0,0.0,0.0,0.0,0.0,0.0,0.0,0.0,0.0,0.0,0.0,0.0,0.0,0.0,0.0,0.0,0.0,0.0,0.0,0.0,0.0,0.0,0.0,0.0,0.0,0.0,0.0,0.0,0.0,0.0,0.0,0.0,0.0,0.0,0.0,0.0,0.0,0.0,0.0,0.0,0.0,0.0,0.0,0.0,0.0,0.0,0.0,0.0,0.0,0.0,0.0,0.0,0.0,0.0,0.0,0.0,0.0,0.0,0.0,0.0,0.0,0.0,0.0,0.0,0.0,0.0,0.0,0.0,0.0,0.0,0.0,0.0,0.0,0.0,0.0,0.0,0.0,0.0,0.0,0.0,0.0,0.0,0.0,0.0,0.0,0.0,0.0,0.0,0.0,0.0,0.0,0.0,0.0,0.0,0.0,0.0,0.0,0.0,0.0,0.0,0.0,0.0,0.0,0.0,0.0,0.0,0.0,0.0,0.0,0.0,0.0,0.0,0.0,0.0,0.0,0.0,0.0,0.0,0.0,0.0,0.0,0.0,0.0,0.0,0.0,0.0,0.0,0.0,0.0,0.0,0.0,0.0,0.0,0.0,0.0,0.0,0.0,0.0,0.0,0.0,0.0,0.0,0.0,0.0,0.0,0.0,0.0,0.0,0.0,0.0,0.0,0.0,0.0,0.0,0.0,0.0,0.0,0.0,0.0,0.0,0.0,0.0,0.0,0.0,0.0,0.0,0.0,0.0,0.0,0.0,0.0,0.0,0.0,0.0,0.0,0.0,0.0,0.0,0.0,0.0,0.0,0.0,0.0,0.0,0.0,0.0,0.0,0.0,0.0,0.0,0.0,0.0,0.0,0.0,0.0,0.0,0.0,0.0,0.0,0.0,0.0,0.0,0.0,0.0,0.0,0.0,0.0,0.0,0.0,0.0,0.0,0.0,0.0,0.0,0.0,0.0,0.0,0.0,0.0,0.0,0.0,0.0,0.0,0.0,0.0,0.0,0.0,0.0,0.0,0.0,0.0,0.0,0.0,0.0,0.0,0.0,0.0,0.0,0.0,0.0,0.0,0.0,0.0,0.0,0.0,0.0,0.0,0.0,0.0,0.0,0.0,0.0,0.0,0.0,0.0,0.0,0.0,0.0,0.0,0.0,0.0,0.0,0.0,0.0,0.0,0.0,0.0,0.0,0.0,0.0,0.0,0.0,0.0,0.0,0.0,0.0,0.0,0.0,0.0,0.0,0.0,0.0,0.0,0.0,0.0,0.0,0.0,0.0,0.0,0.0,0.0,0.0,0.0,0.0,0.0,0.0,0.0,0.0,0.0,0.0,0.0,0.0,0.0,0.0,0.0,0.0,0.0,0.0,0.0,0.0,0.0,0.0,0.0,0.0,0.0,0.0,0.0,0.0,0.0,0.0,0.0,0.0,0.0,0.0,0.0,0.0,0.0,0.0,0.0,0.0,0.0,0.0,0.0,0.0,0.0,0.0,0.0,0.0,0.0,0.0,0.0,0.0,0.0,0.0,0.0,0.0,0.0,0.0,0.0,0.0,0.0,0.0,0.0,0.0,0.0,0.0,0.0,0.0,0.0,0.0,0.0,0.0,0.0,0.0,0.0,0.0,0.0,0.0,0.0,0.0,0.0,0.0,0.0,0.0,0.0,0.0,0.0,0.0,0.0,0.0,0.0,0.0,0.0,0.0,0.0,0.0,0.0,0.0,0.0,0.0,0.0,0.0,0.0,0.0,0.0,0.0,0.0,0.0,0.0,0.0,0.0,0.0,0.0,0.0,0.0,0.0,0.0,0.0,0.0,0.0,0.0,0.0,0.0,0.0,0.0,0.0,0.0,0.0,0.0,0.0,0.0,0.0,0.0,0.0,0.0,0.0,0.0,0.0,0.0,0.0,0.0,0.0,0.0,0.0,0.0,0.0,0.0,0.0,0.0,0.0,0.0,0.0,0.0,0.0,0.0,0.0,0.0,0.0,0.0,0.0,0.0,0.0,0.0,0.0,0.0,0.0,0.0,0.0,0.0,0.0,0.0,-4.5804,0.0,0.0,0.0,-4.297,0.0,0.0,0.0,0.0,0.0,0.0,0.0,0.0,0.0,0.0,0.0,0.0,0.0,0.0,0.0,0.0,0.0,0.0,0.0,0.0,0.0,0.0,0.0,0.0,0.0,0.0,0.0,0.0,0.0,0.0,0.0,0.0,0.0,0.0,0.0,0.0,0.0,0.0,0.0,0.0,0.0,0.0,0.0,0.0,0.0,0.0,0.0,0.0,0.0,0.0,0.0,0.0,0.0,0.0,0.0,0.0,0.0,0.0,0.0,0.0,0.0,0.0,0.0,0.0,0.0,0.0,0.0,0.0,0.0,0.0,0.0,0.0,0.0,0.0,0.0,0.0,0.0,0.0,0.0,0.0,0.0,0.0,0.0,0.0,0.0,0.0,0.0,0.0,0.0,0.0,0.0,0.0,0.0,0.0,0.0,0.0,0.0,0.0,0.0,0.0,0.0,0.0,0.0,0.0,0.0,0.0,0.0,0.0,0.0,0.0,-4.6231,-4.5099,-4.4491,-4.3781,-4.2922,0.0,0.0,0.0,0.0,0.0,0.0,0.0,0.0,0.0,0.0,0.0,0.0,0.0,0.0,0.0,0.0,0.0,0.0,0.0,0.0,0.0,0.0,0.0,0.0,0.0,0.0,0.0,0.0,0.0,0.0,0.0,0.0,0.0,0.0,0.0,0.0,0.0,0.0,0.0,0.0,0.0,0.0,0.0,0.0,0.0,0.0,0.0,0.0,0.0,0.0,0.0,0.0,0.0,0.0,0.0,0.0,0.0,0.0,0.0,0.0,0.0,0.0,0.0,0.0,0.0,0.0,0.0,0.0,0.0,0.0,0.0,0.0,0.0,0.0,0.0,0.0,0.0,0.0,0.0,0.0,0.0,0.0,0.0,0.0,0.0,0.0,0.0,0.0,0.0,0.0,0.0,0.0,0.0,0.0,0.0,0.0,0.0,0.0,0.0,0.0,0.0,0.0,0.0,0.0,0.0,0.0,0.0,0.0,0.0,0.0,0.0,0.0,-4.4989,-4.4056,-4.2922,0.0,0.0,0.0,0.0,0.0,0.0,0.0,0.0,0.0,0.0,0.0,0.0,0.0,0.0,0.0,0.0,0.0,0.0,0.0,0.0,0.0,0.0,0.0,0.0,0.0,0.0,0.0,0.0,0.0,0.0,0.0,0.0,0.0,0.0,0.0,0.0,0.0,0.0,0.0,0.0,0.0,0.0,0.0,0.0,0.0,0.0,0.0,0.0,0.0,0.0,0.0,0.0,0.0,0.0,0.0,0.0,0.0,0.0,0.0,0.0,0.0,0.0,0.0,0.0,0.0,0.0,0.0,0.0,0.0,0.0,0.0,0.0,0.0,0.0,0.0,0.0,0.0,0.0,0.0,0.0,0.0,0.0,0.0,0.0,0.0,0.0,0.0,0.0,0.0,0.0,0.0,0.0,0.0,0.0,0.0,0.0,0.0,0.0,0.0,0.0,0.0,0.0,0.0,0.0,0.0,0.0,0.0,0.0,0.0,0.0,-4.6929,-4.6293,-4.521,0.0,-4.2922,0.0,0.0,0.0,0.0,0.0,0.0,0.0,0.0,0.0,0.0,0.0,0.0,0.0,0.0,0.0,0.0,0.0,0.0,0.0,0.0,0.0,0.0,0.0,0.0,0.0,0.0,0.0,0.0,0.0,0.0,0.0,0.0,0.0,0.0,0.0,0.0,0.0,0.0,0.0,0.0,0.0,0.0,0.0,0.0,0.0,0.0,0.0,0.0,0.0,0.0,0.0,0.0,0.0,0.0,0.0,0.0,0.0,0.0,0.0,0.0,0.0,0.0,0.0,0.0,0.0,0.0,0.0,0.0,0.0,0.0,0.0,0.0,0.0,0.0,0.0,0.0,0.0,0.0,0.0,0.0,0.0,0.0,0.0,0.0,0.0,0.0,0.0,0.0,0.0,0.0,0.0,0.0,0.0,0.0,0.0,0.0,0.0,0.0,0.0,0.0,0.0,0.0,0.0,0.0,0.0,0.0,0.0,0.0,0.0,0.0,-4.7371,-4.6628,-4.5188,-4.4102,0.0,0.0,0.0,0.0,0.0,0.0,0.0,0.0,0.0,0.0,0.0,0.0,0.0,0.0,0.0,0.0,0.0,0.0,0.0,0.0,0.0,0.0,0.0,0.0,0.0,0.0,0.0,0.0,0.0,0.0,0.0,0.0,0.0,0.0,0.0,0.0,0.0,0.0,0.0,0.0,0.0,0.0,0.0,0.0,0.0,0.0,0.0,0.0,0.0,0.0,0.0,0.0,0.0,0.0,0.0,0.0,0.0,0.0,0.0,0.0,0.0,0.0,0.0,0.0,0.0,0.0,0.0,0.0,0.0,0.0,0.0,0.0,0.0,0.0,0.0,0.0,0.0,0.0,0.0,0.0,0.0,0.0,0.0,0.0,0.0,0.0,0.0,0.0,0.0,0.0,0.0,0.0,0.0,0.0,0.0,0.0,0.0,0.0,0.0,0.0,0.0,0.0,0.0,0.0,0.0,0.0,0.0,0.0,0.0,0.0,-4.8083,-4.7673,-4.6801,-4.5305,-4.4278,-4.3917,0.0,0.0,0.0,0.0,0.0,0.0,0.0,0.0,0.0,0.0,0.0,0.0,0.0,0.0,0.0,0.0,0.0,0.0,0.0,0.0,0.0,0.0,0.0,0.0,0.0,0.0,0.0,0.0,0.0,0.0,0.0,0.0,0.0,0.0,0.0,0.0,0.0,0.0,0.0,0.0,0.0,0.0,0.0,0.0,0.0,0.0,0.0,0.0,0.0,0.0,0.0,0.0,0.0,0.0,0.0,0.0,0.0,0.0,0.0,0.0,0.0,0.0,0.0,0.0,0.0,0.0,0.0,0.0,0.0,0.0,0.0,0.0,0.0,0.0,0.0,0.0,0.0,0.0,0.0,0.0,0.0,0.0,0.0,0.0,0.0,0.0,0.0,0.0,0.0,0.0,0.0,0.0,0.0,0.0,0.0,0.0,0.0,0.0,0.0,0.0,0.0,0.0,0.0,0.0,0.0,0.0,0.0,0.0,-4.8134,-4.8083,-4.7673,-4.6857,-4.5691,-4.4787,0.0,0.0,0.0,0.0,0.0,0.0,0.0,0.0,0.0,0.0,0.0,0.0,0.0,0.0,0.0,0.0,0.0,0.0,0.0,0.0,0.0,0.0,0.0,0.0,0.0,0.0,0.0,0.0,0.0,0.0,0.0,0.0,0.0,0.0,0.0,0.0,0.0,0.0,0.0,0.0,0.0,0.0,0.0,0.0,0.0,0.0,0.0,0.0,0.0,0.0,0.0,0.0,0.0,0.0,0.0,0.0,0.0,0.0,0.0,0.0,0.0,0.0,0.0,0.0,0.0,0.0,0.0,0.0,0.0,0.0,0.0,0.0,0.0,0.0,0.0,0.0,0.0,0.0,0.0,0.0,0.0,0.0,0.0,0.0,0.0,0.0,0.0,0.0,0.0,0.0,0.0,0.0,0.0,0.0,0.0,0.0,0.0,0.0,0.0,0.0,0.0,0.0,0.0,0.0,0.0,0.0,0.0,0.0,0.0,-4.8724,-4.8882,-4.8486,-4.7432,-4.6264,-4.5344,0.0,0.0,0.0,0.0,0.0,0.0,0.0,0.0,0.0,0.0,0.0,0.0,0.0,0.0,0.0,0.0,0.0,0.0,0.0,0.0,0.0,0.0,0.0,0.0,0.0,0.0,0.0,0.0,0.0,0.0,0.0,0.0,0.0,0.0,0.0,0.0,0.0,0.0,0.0,0.0,0.0,0.0,0.0,0.0,0.0,0.0,0.0,0.0,0.0,0.0,0.0,0.0,0.0,0.0,0.0,0.0,0.0,0.0,0.0,0.0,0.0,0.0,0.0,0.0,0.0,0.0,0.0,0.0,0.0,0.0,0.0,0.0,0.0,0.0,0.0,0.0,0.0,0.0,0.0,0.0,0.0,0.0,0.0,0.0,0.0,0.0,0.0,0.0,0.0,0.0,0.0,0.0,0.0,0.0,0.0,0.0,0.0,0.0,0.0,0.0,0.0,0.0,0.0,0.0,0.0,0.0,0.0,0.0,0.0,-4.9438,-4.9426,-4.9107,-4.8512,-4.7062,-4.5922,0.0,0.0,0.0,0.0,0.0,0.0,0.0,0.0,0.0,0.0,0.0,0.0,0.0,0.0,0.0,0.0,0.0,0.0,0.0,0.0,0.0,0.0,0.0,0.0,0.0,0.0,0.0,0.0,0.0,0.0,0.0,0.0,0.0,0.0,0.0,0.0,0.0,0.0,0.0,0.0,0.0,0.0,0.0,0.0,0.0,0.0,0.0,0.0,0.0,0.0,0.0,0.0,0.0,0.0,0.0,0.0,0.0,0.0,0.0,0.0,0.0,0.0,0.0,0.0,0.0,0.0,0.0,0.0,0.0,0.0,0.0,0.0,0.0,0.0,0.0,0.0,0.0,0.0,0.0,0.0,0.0,0.0,0.0,0.0,0.0,0.0,0.0,0.0,0.0,0.0,0.0,0.0,0.0,0.0,0.0,0.0,0.0,0.0,0.0,0.0,0.0,0.0,0.0,0.0,0.0,0.0,0.0,0.0,-4.9756,-5.0345,-4.9631,-4.9471,-4.994,-4.7965,-4.6627,0.0,0.0,0.0,0.0,0.0,0.0,0.0,0.0,0.0,0.0,0.0,0.0,0.0,0.0,0.0,0.0,0.0,0.0,0.0,0.0,0.0,0.0,0.0,0.0,0.0,0.0,0.0,0.0,0.0,0.0,0.0,0.0,0.0,0.0,0.0,0.0,0.0,0.0,0.0,0.0,0.0,0.0,0.0,0.0,0.0,0.0,0.0,0.0,0.0,0.0,0.0,0.0,0.0,0.0,0.0,0.0,0.0,0.0,0.0,0.0,0.0,0.0,0.0,0.0,0.0,0.0,0.0,0.0,0.0,0.0,0.0,0.0,0.0,0.0,0.0,0.0,0.0,0.0,0.0,0.0,0.0,0.0,0.0,0.0,0.0,0.0,0.0,0.0,0.0,0.0,0.0,0.0,0.0,0.0,0.0,0.0,0.0,0.0,0.0,0.0,0.0,0.0,0.0,0.0,0.0,0.0,0.0,0.0,0.0,-5.0768,-5.1125,-5.0843,-5.0019,-4.8573,-4.7131,0.0,0.0,0.0,0.0,0.0,0.0,0.0,0.0,0.0,0.0,0.0,0.0,0.0,0.0,0.0,0.0,0.0,0.0,0.0,0.0,0.0,0.0,0.0,0.0,0.0,0.0,0.0,0.0,0.0,0.0,0.0,0.0,0.0,0.0,0.0,0.0,0.0,0.0,0.0,0.0,0.0,0.0,0.0,0.0,0.0,0.0,0.0,0.0,0.0,0.0,0.0,0.0,0.0,0.0,0.0,0.0,0.0,0.0,0.0,0.0,0.0,0.0,0.0,0.0,0.0,0.0,0.0,0.0,0.0,0.0,0.0,0.0,0.0,0.0,0.0,0.0,0.0,0.0,0.0,0.0,0.0,0.0,0.0,0.0,0.0,0.0,0.0,0.0,0.0,0.0,0.0,0.0,0.0,0.0,0.0,0.0,0.0,0.0,0.0,0.0,0.0,0.0,0.0,0.0,0.0,0.0,0.0,0.0,0.0,-5.2113,-5.251,-5.2303,-5.1367,-4.9983,-4.8382,-4.6618,0.0,0.0,0.0,0.0,0.0,0.0,0.0,0.0,0.0,0.0,0.0,0.0,0.0,0.0,0.0,0.0,0.0,0.0,0.0,0.0,0.0,0.0,0.0,0.0,0.0,0.0,0.0,0.0,0.0,0.0,0.0,0.0,0.0,0.0,0.0,0.0,0.0,0.0,0.0,0.0,0.0,0.0,0.0,0.0,0.0,0.0,0.0,0.0,0.0,0.0,0.0,0.0,0.0,0.0,0.0,0.0,0.0,0.0,0.0,0.0,0.0,0.0,0.0,0.0,0.0,0.0,0.0,0.0,0.0,0.0,0.0,0.0,0.0,0.0,0.0,0.0,0.0,0.0,0.0,0.0,0.0,0.0,0.0,0.0,0.0,0.0,0.0,0.0,0.0,0.0,0.0,0.0,0.0,0.0,0.0,0.0,0.0,0.0,0.0,0.0,0.0,0.0,0.0,0.0,0.0,0.0,0.0,0.0,-5.4178,-5.3903,-5.3727,-5.3477,-5.1769,-5.0035,0.0,0.0,0.0,0.0,0.0,0.0,0.0,0.0,0.0,0.0,0.0,0.0,0.0,0.0,0.0,0.0,0.0,0.0,0.0,0.0,0.0,0.0,0.0,0.0,0.0,0.0,0.0,0.0,0.0,0.0,0.0,0.0,0.0,0.0,0.0,0.0,0.0,0.0,0.0,0.0,0.0,0.0,0.0,0.0,0.0,0.0,0.0,0.0,0.0,0.0,0.0,0.0,0.0,0.0,0.0,0.0,0.0,0.0,0.0,0.0,0.0,0.0,0.0,0.0,0.0,0.0,0.0,0.0,0.0,0.0,0.0,0.0,0.0,0.0,0.0,0.0,0.0,0.0,0.0,0.0,0.0,0.0,0.0,0.0,0.0,0.0,0.0,0.0,0.0,0.0,0.0,0.0,0.0,0.0,0.0,0.0,0.0,0.0,0.0,0.0,0.0,0.0,0.0,0.0,0.0,0.0,0.0,0.0,0.0,-5.5983,-5.5943,-5.5033,-5.3281,-5.1934,-5.0182,0.0,0.0,0.0,0.0,0.0,0.0,0.0,0.0,0.0,0.0,0.0,0.0,0.0,0.0,0.0,0.0,0.0,0.0,0.0,0.0,0.0,0.0,0.0,0.0,0.0,0.0,0.0,0.0,0.0,0.0,0.0,0.0,0.0,0.0,0.0,0.0,0.0,0.0,0.0,0.0,0.0,0.0,0.0,0.0,0.0,0.0,0.0,0.0,0.0,0.0,0.0,0.0,0.0,0.0,0.0,0.0,0.0,0.0,0.0,0.0,0.0,0.0,0.0,0.0,0.0,0.0,0.0,0.0,0.0,0.0,0.0,0.0,0.0,0.0,0.0,0.0,0.0,0.0,0.0,0.0,0.0,0.0,0.0,0.0,0.0,0.0,0.0,0.0,0.0,0.0,0.0,0.0,0.0,0.0,0.0,0.0,0.0,0.0,0.0,0.0,0.0,0.0,0.0,0.0,0.0,0.0,0.0,0.0,-5.6022,-5.6695,-5.6774,-5.5992,-5.4197,-5.2906,-5.1287,0.0,0.0,0.0,0.0,0.0,0.0,0.0,0.0,0.0,0.0,0.0,0.0,0.0,0.0,0.0,0.0,0.0,0.0,0.0,0.0,0.0,0.0,0.0,0.0,0.0,0.0,0.0,0.0,0.0,0.0,0.0,0.0,0.0,0.0,0.0,0.0,0.0,0.0,0.0,0.0,0.0,0.0,0.0,0.0,0.0,0.0,0.0,0.0,0.0,0.0,0.0,0.0,0.0,0.0,0.0,0.0,0.0,0.0,0.0,0.0,0.0,0.0,0.0,0.0,0.0,0.0,0.0,0.0,0.0,0.0,0.0,0.0,0.0,0.0,0.0,0.0,0.0,0.0,0.0,0.0,0.0,0.0,0.0,0.0,0.0,0.0,0.0,0.0,0.0,0.0,0.0,0.0,0.0,0.0,0.0,0.0,0.0,0.0,0.0,0.0,0.0,0.0,0.0,0.0,0.0,0.0,0.0,0.0,-5.685,-5.6708,-5.6916,-5.6611,-5.5683,-5.4224,-5.273,0.0,0.0,0.0,0.0,0.0,0.0,0.0,0.0,0.0,0.0,0.0,0.0,0.0,0.0,0.0,0.0,0.0,0.0,0.0,0.0,0.0,0.0,0.0,0.0,0.0,0.0,0.0,0.0,0.0,0.0,0.0,0.0,0.0,0.0,0.0,0.0,0.0,0.0,0.0,0.0,0.0,0.0,0.0,0.0,0.0,0.0,0.0,0.0,0.0,0.0,0.0,0.0,0.0,0.0,0.0,0.0,0.0,0.0,0.0,0.0,0.0,0.0,0.0,0.0,0.0,0.0,0.0,0.0,0.0,0.0,0.0,0.0,0.0,0.0,0.0,0.0,0.0,0.0,0.0,0.0,0.0,0.0,0.0,0.0,0.0,0.0,0.0,0.0,0.0,0.0,0.0,0.0,0.0,0.0,0.0,0.0,0.0,0.0,0.0,0.0,0.0,0.0,0.0,0.0,0.0,0.0,0.0,0.0,-5.7476,-5.7327,-5.713,-5.6797,-5.629,-5.4244,-5.2448,0.0,0.0,0.0,0.0,0.0,0.0,0.0,0.0,0.0,0.0,0.0,0.0,0.0,0.0,0.0,0.0,0.0,0.0,0.0,0.0,0.0,0.0,0.0,0.0,0.0,0.0,0.0,0.0,0.0,0.0,0.0,0.0,0.0,0.0,0.0,0.0,0.0,0.0,0.0,0.0,0.0,0.0,0.0,0.0,0.0,0.0,0.0,0.0,-4.1298,0.0,0.0,0.0,0.0,0.0,0.0,0.0,0.0,0.0,0.0,0.0,0.0,0.0,0.0,0.0,0.0,0.0,0.0,0.0,0.0,0.0,0.0,0.0,0.0,0.0,0.0,0.0,0.0,0.0,0.0,0.0,0.0,0.0,0.0,0.0,0.0,0.0,0.0,0.0,0.0,0.0,0.0,0.0,0.0,0.0,0.0,0.0,0.0,0.0,0.0,0.0,0.0,0.0,0.0,0.0,0.0,0.0,0.0,0.0,-5.8075,-5.7945,-5.8013,-5.7771,-5.7115,-5.5152,-5.3333,0.0,0.0,0.0,0.0,0.0,0.0,0.0,0.0,0.0,0.0,0.0,0.0,0.0,0.0,0.0,0.0,0.0,0.0,0.0,0.0,0.0,0.0,0.0,0.0,0.0,0.0,0.0,0.0,0.0,0.0,0.0,0.0,0.0,0.0,0.0,0.0,0.0,0.0,0.0,0.0,0.0,0.0,0.0,0.0,0.0,0.0,0.0,0.0,0.0,0.0,0.0,0.0,0.0,0.0,0.0,0.0,0.0,0.0,0.0,0.0,0.0,0.0,0.0,0.0,0.0,0.0,0.0,0.0,0.0,0.0,0.0,0.0,0.0,0.0,0.0,0.0,0.0,0.0,0.0,0.0,0.0,0.0,0.0,0.0,0.0,0.0,0.0,0.0,0.0,0.0,0.0,0.0,0.0,0.0,0.0,0.0,0.0,0.0,0.0,0.0,0.0,0.0,0.0,0.0,0.0,0.0,0.0,-5.8054,-5.874,-5.8631,-5.9048,-5.8817,-5.789,-5.6185,-5.449,-5.2757,0.0,0.0,0.0,0.0,0.0,0.0,0.0,0.0,0.0,0.0,0.0,0.0,0.0,0.0,0.0,0.0,0.0,0.0,0.0,0.0,0.0,0.0,0.0,0.0,0.0,0.0,0.0,0.0,0.0,0.0,0.0,0.0,0.0,0.0,0.0,0.0,0.0,0.0,-4.1583,-4.245,0.0,0.0,0.0,0.0,0.0,0.0,0.0,0.0,-4.2735,0.0,0.0,0.0,0.0,0.0,0.0,0.0,0.0,0.0,0.0,0.0,0.0,0.0,0.0,0.0,0.0,0.0,0.0,0.0,0.0,0.0,0.0,0.0,0.0,0.0,0.0,0.0,0.0,0.0,0.0,0.0,0.0,0.0,0.0,0.0,0.0,0.0,0.0,0.0,0.0,0.0,0.0,0.0,0.0,0.0,0.0,0.0,0.0,0.0,0.0,0.0,0.0,0.0,0.0,0.0,0.0,-5.7897,-5.9109,-5.9671,-5.9562,-5.9399,-5.8817,-5.789,-5.6185,-5.4554,-5.3037,0.0,0.0,0.0,0.0,0.0,0.0,0.0,0.0,0.0,0.0,0.0,0.0,0.0,0.0,0.0,0.0,0.0,0.0,0.0,0.0,0.0,0.0,0.0,0.0,0.0,0.0,0.0,0.0,0.0,0.0,0.0,0.0,0.0,0.0,0.0,0.0,0.0,0.0,0.0,-4.4191,-4.4853,0.0,0.0,0.0,0.0,0.0,0.0,0.0,0.0,-4.3284,0.0,0.0,0.0,0.0,0.0,0.0,0.0,0.0,0.0,0.0,0.0,0.0,0.0,0.0,0.0,0.0,0.0,0.0,0.0,0.0,0.0,0.0,0.0,0.0,0.0,0.0,0.0,0.0,0.0,0.0,0.0,0.0,0.0,0.0,0.0,0.0,0.0,0.0,0.0,0.0,0.0,0.0,0.0,0.0,0.0,0.0,0.0,0.0,0.0,0.0,0.0,0.0,0.0,0.0,0.0,-5.8555,-5.9822,-6.056,-6.0678,-6.0605,-6.0158,-5.9197,-5.7791,-5.6097,0.0,0.0,0.0,0.0,0.0,0.0,0.0,0.0,0.0,0.0,0.0,0.0,0.0,0.0,0.0,0.0,0.0,0.0,0.0,0.0,0.0,0.0,0.0,0.0,0.0,0.0,0.0,0.0,0.0,0.0,0.0,0.0,0.0,0.0,0.0,0.0,0.0,0.0,0.0,0.0,-4.473,-4.5562,-4.63,0.0,0.0,0.0,0.0,0.0,0.0,-4.4904,-4.4336,0.0,0.0,0.0,0.0,0.0,0.0,0.0,0.0,0.0,0.0,0.0,0.0,0.0,0.0,0.0,0.0,0.0,0.0,0.0,0.0,0.0,0.0,0.0,0.0,0.0,0.0,0.0,0.0,0.0,0.0,0.0,0.0,0.0,0.0,0.0,0.0,0.0,0.0,0.0,0.0,0.0,0.0,0.0,0.0,0.0,0.0,0.0,0.0,0.0,0.0,0.0,0.0,0.0,0.0,0.0,-5.9273,-6.0652,-6.1593,-6.1967,-6.218,-6.1749,-6.0697,-5.9517,-5.7761,0.0,0.0,0.0,0.0,0.0,0.0,0.0,0.0,0.0,0.0,0.0,0.0,0.0,0.0,0.0,0.0,0.0,0.0,0.0,0.0,0.0,0.0,0.0,0.0,0.0,0.0,0.0,0.0,0.0,0.0,0.0,0.0,0.0,0.0,0.0,0.0,0.0,0.0,0.0,0.0,0.0,-4.6007,-4.6908,-4.7027,0.0,0.0,0.0,0.0,-4.6737,-4.6199,0.0,0.0,0.0,0.0,0.0,0.0,0.0,0.0,0.0,0.0,0.0,0.0,0.0,0.0,0.0,0.0,0.0,0.0,0.0,0.0,0.0,0.0,0.0,0.0,0.0,0.0,0.0,0.0,0.0,0.0,0.0,0.0,0.0,0.0,0.0,0.0,0.0,0.0,0.0,0.0,0.0,0.0,0.0,0.0,0.0,0.0,0.0,0.0,0.0,0.0,0.0,0.0,0.0,0.0,0.0,0.0,-6.0839,-6.2096,-6.3062,-6.3532,-6.3771,-6.3208,-6.1761,-6.048,-5.8686,0.0,0.0,0.0,0.0,0.0,0.0,0.0,0.0,0.0,0.0,0.0,0.0,0.0,0.0,0.0,0.0,0.0,0.0,0.0,0.0,0.0,0.0,0.0,0.0,0.0,0.0,0.0,0.0,0.0,0.0,0.0,0.0,0.0,0.0,0.0,0.0,0.0,0.0,0.0,0.0,0.0,-4.6609,-4.7803,-4.8054,-4.8226,0.0,0.0,-4.8477,-4.7914,-4.7376,0.0,0.0,0.0,0.0,0.0,0.0,0.0,0.0,0.0,0.0,0.0,0.0,0.0,0.0,0.0,0.0,0.0,0.0,0.0,0.0,0.0,0.0,0.0,0.0,0.0,0.0,0.0,0.0,0.0,0.0,0.0,0.0,0.0,0.0,0.0,0.0,0.0,0.0,0.0,0.0,0.0,0.0,0.0,0.0,0.0,0.0,0.0,0.0,0.0,0.0,0.0,0.0,0.0,0.0,0.0,-6.0762,-6.2727,-6.3714,-6.4591,-6.5469,-6.5046,-6.4223,-6.3046,-6.158,-5.9709,0.0,0.0,0.0,0.0,0.0,0.0,0.0,0.0,0.0,0.0,0.0,0.0,0.0,0.0,0.0,0.0,0.0,0.0,0.0,0.0,0.0,0.0,0.0,0.0,0.0,0.0,0.0,0.0,0.0,0.0,0.0,0.0,0.0,0.0,0.0,0.0,0.0,0.0,0.0,0.0,0.0,0.0,-4.9281,-4.9495,0.0,0.0,0.0,-4.9744,-4.9152,0.0,0.0,0.0,0.0,0.0,0.0,0.0,0.0,0.0,0.0,0.0,0.0,0.0,0.0,0.0,0.0,0.0,0.0,0.0,0.0,0.0,0.0,0.0,0.0,0.0,0.0,0.0,0.0,0.0,0.0,0.0,0.0,0.0,0.0,0.0,0.0,0.0,0.0,0.0,0.0,0.0,0.0,0.0,0.0,0.0,0.0,0.0,0.0,0.0,0.0,0.0,0.0,0.0,0.0,0.0,0.0,0.0,-6.4184,-6.504,-6.6119,-6.7289,-6.6481,-6.5606,-6.4691,-6.3062,0.0,0.0,0.0,0.0,0.0,0.0,0.0,0.0,0.0,0.0,0.0,0.0,0.0,0.0,0.0,0.0,0.0,0.0,0.0,0.0,0.0,0.0,0.0,0.0,0.0,0.0,0.0,-4.0196,0.0,0.0,0.0,0.0,0.0,0.0,0.0,0.0,0.0,0.0,0.0,0.0,0.0,0.0,-4.8323,-5.0231,-5.0579,-5.0863,0.0,0.0,-5.0627,-5.0189,-4.9347,-4.8363,0.0,0.0,0.0,0.0,0.0,0.0,0.0,0.0,0.0,0.0,0.0,0.0,0.0,0.0,0.0,0.0,0.0,0.0,0.0,0.0,0.0,0.0,0.0,0.0,0.0,0.0,0.0,0.0,0.0,0.0,0.0,0.0,0.0,0.0,0.0,0.0,0.0,0.0,0.0,0.0,0.0,0.0,0.0,0.0,0.0,0.0,0.0,0.0,0.0,0.0,0.0,0.0,0.0,0.0,-6.2846,-6.4426,-6.5981,-6.7354,-6.8634,-6.8276,-6.773,-6.6955,-6.5159,-6.316,0.0,0.0,0.0,0.0,0.0,0.0,0.0,0.0,0.0,0.0,0.0,0.0,0.0,0.0,0.0,0.0,0.0,0.0,0.0,0.0,0.0,0.0,0.0,0.0,0.0,0.0,0.0,0.0,0.0,0.0,0.0,0.0,0.0,0.0,0.0,0.0,0.0,0.0,0.0,0.0,0.0,-4.9132,-5.0041,-5.088,-5.1408,0.0,-5.1116,-5.0911,-5.0862,-4.9934,-4.905,-4.8486,0.0,0.0,0.0,0.0,0.0,0.0,0.0,0.0,0.0,0.0,0.0,0.0,0.0,0.0,0.0,0.0,0.0,0.0,0.0,0.0,0.0,0.0,0.0,0.0,0.0,0.0,0.0,0.0,0.0,0.0,0.0,0.0,0.0,0.0,0.0,0.0,0.0,0.0,0.0,0.0,0.0,0.0,0.0,0.0,0.0,0.0,0.0,0.0,0.0,0.0,0.0,0.0,0.0,-6.3798,-6.6009,-6.7601,-6.8962,-6.9969,-6.9894,-6.9033,-6.7569,-6.6008,-6.3993,0.0,0.0,0.0,0.0,0.0,0.0,0.0,0.0,0.0,0.0,0.0,0.0,0.0,0.0,0.0,0.0,0.0,0.0,0.0,0.0,0.0,0.0,0.0,0.0,0.0,0.0,0.0,0.0,-4.3122,-4.265,-4.201,0.0,0.0,0.0,0.0,0.0,0.0,0.0,0.0,0.0,0.0,-5.0168,-5.1905,-5.2316,0.0,0.0,-5.246,-5.2035,-5.2035,-5.1017,-5.0125,-4.9907,-4.8719,0.0,0.0,0.0,0.0,0.0,0.0,0.0,0.0,0.0,0.0,0.0,0.0,0.0,0.0,0.0,0.0,0.0,0.0,0.0,0.0,0.0,0.0,0.0,0.0,0.0,0.0,-6.031,-5.9992,0.0,0.0,0.0,0.0,0.0,0.0,0.0,0.0,0.0,0.0,0.0,0.0,0.0,0.0,0.0,0.0,0.0,0.0,0.0,0.0,0.0,0.0,0.0,0.0,-6.4964,-6.7567,-6.9015,-7.0229,-7.1402,-7.1053,-7.013,-6.8536,-6.7081,-6.509,0.0,0.0,0.0,0.0,0.0,0.0,0.0,0.0,0.0,0.0,0.0,0.0,0.0,0.0,0.0,0.0,0.0,0.0,0.0,0.0,0.0,0.0,0.0,0.0,0.0,0.0,0.0,0.0,-4.4288,-4.3629,-4.2977,0.0,0.0,0.0,0.0,0.0,0.0,0.0,0.0,0.0,0.0,-5.1393,-5.3197,-5.3478,-5.3555,-5.3975,-5.3375,-5.2841,-5.2914,-5.1874,-5.1129,-5.096,0.0,0.0,0.0,0.0,0.0,0.0,0.0,0.0,0.0,0.0,0.0,0.0,0.0,0.0,0.0,0.0,0.0,0.0,0.0,0.0,0.0,0.0,0.0,0.0,0.0,0.0,0.0,-6.2083,0.0,0.0,-6.0794,0.0,0.0,0.0,0.0,0.0,0.0,0.0,0.0,0.0,0.0,0.0,0.0,0.0,0.0,0.0,0.0,0.0,0.0,0.0,0.0,0.0,0.0,-6.6281,-6.8914,-6.9908,-7.1185,-7.2641,-7.1796,-7.1075,-7.0436,-6.865,-6.6814,-6.4973,0.0,0.0,0.0,0.0,0.0,0.0,0.0,0.0,0.0,0.0,0.0,0.0,0.0,0.0,0.0,0.0,0.0,0.0,0.0,0.0,0.0,0.0,0.0,0.0,0.0,0.0,-4.552,-4.4715,-4.4106,0.0,0.0,0.0,0.0,0.0,0.0,0.0,0.0,0.0,-4.9812,-5.1459,-5.2793,-5.3627,-5.402,-5.423,-5.4254,-5.3594,-5.3151,-5.3151,-5.262,-5.2067,0.0,0.0,0.0,0.0,0.0,0.0,0.0,0.0,0.0,0.0,0.0,0.0,0.0,0.0,0.0,0.0,0.0,0.0,0.0,0.0,0.0,0.0,0.0,0.0,0.0,0.0,0.0,-6.541,-6.4628,0.0,0.0,0.0,0.0,0.0,0.0,0.0,0.0,0.0,-6.3737,0.0,-6.5024,-6.5024,0.0,0.0,0.0,0.0,0.0,0.0,0.0,0.0,0.0,0.0,0.0,0.0,-6.6969,-6.9542,-7.0759,-7.186,-7.2759,-7.2955,-7.2298,-7.0936,-6.9807,-6.7736,-6.4555,0.0,0.0,0.0,0.0,0.0,0.0,0.0,0.0,0.0,0.0,0.0,0.0,0.0,0.0,0.0,0.0,0.0,0.0,0.0,0.0,0.0,0.0,0.0,0.0,0.0,-4.6692,0.0,0.0,0.0,0.0,0.0,0.0,0.0,0.0,0.0,0.0,-4.8016,-4.9863,-5.155,-5.328,-5.4703,-5.5265,-5.5584,-5.5752,0.0,0.0,0.0,0.0,0.0,0.0,0.0,0.0,0.0,0.0,0.0,0.0,0.0,-4.9464,-4.9054,-4.804,-4.7892,-4.8026,-4.847,0.0,0.0,0.0,0.0,0.0,0.0,0.0,0.0,0.0,0.0,0.0,0.0,0.0,0.0,-6.8448,-6.7658,-6.7542,0.0,0.0,0.0,0.0,0.0,0.0,0.0,0.0,-6.5832,-6.64,-6.7059,-6.7268,-6.7627,-6.8016,-6.8256,-6.7119,0.0,0.0,0.0,0.0,0.0,0.0,0.0,0.0,-6.8555,-7.0889,-7.2026,-7.2797,-7.3182,-7.379,-7.3416,-7.1812,-7.0675,-6.8553,-6.5195,-6.3536,-6.1639,0.0,0.0,0.0,0.0,0.0,0.0,0.0,0.0,0.0,0.0,0.0,0.0,0.0,0.0,0.0,0.0,0.0,0.0,0.0,0.0,0.0,0.0,0.0,-4.7375,0.0,0.0,0.0,0.0,0.0,0.0,0.0,0.0,0.0,-4.8192,-4.9939,-5.1747,-5.3374,-5.4955,-5.6168,-5.6721,0.0,0.0,0.0,0.0,0.0,0.0,0.0,-5.4375,-5.4375,-5.3528,-5.2636,-5.1645,-5.1063,-5.0885,-5.1517,0.0,0.0,-5.0076,-4.9985,-5.0175,-5.0673,-5.1008,-5.1177,-5.1034,-5.1221,-5.142,0.0,0.0,0.0,0.0,-7.2391,0.0,0.0,0.0,-7.1967,-7.1721,0.0,-7.071,0.0,0.0,0.0,0.0,-6.7119,-6.7089,0.0,0.0,-6.8046,-6.8435,-6.9093,-6.9752,-7.0081,-7.0141,-7.0739,-7.0709,-6.9991,-6.7537,-6.5892,0.0,0.0,0.0,0.0,0.0,-7.1009,-7.2954,-7.3642,-7.3959,-7.389,-7.4439,-7.4164,-7.2979,-7.1381,-6.9326,-6.696,-6.5782,-6.4025,-6.1657,-6.0082,0.0,0.0,0.0,0.0,0.0,0.0,0.0,0.0,0.0,0.0,0.0,0.0,0.0,0.0,0.0,0.0,0.0,0.0,0.0,0.0,-4.8434,0.0,0.0,0.0,0.0,0.0,0.0,0.0,0.0,0.0,-5.08,-5.0318,-5.2092,-5.393,-5.5286,0.0,0.0,0.0,0.0,-5.7246,-5.6813,-5.6406,-5.6022,-5.5535,-5.5433,-5.5409,-5.5409,0.0,0.0,-5.2905,-5.2774,-5.2822,-5.2891,-5.2927,-5.2941,-5.2717,-5.2816,-5.3096,-5.3195,-5.3449,-5.3696,-5.3394,-5.3015,-5.2817,-7.6893,0.0,0.0,0.0,0.0,-7.5401,-7.5397,-7.542,-7.5507,-7.5199,-7.4489,-7.417,0.0,0.0,0.0,0.0,0.0,0.0,-6.9213,-6.9423,-6.9871,-7.041,-7.1068,-7.1757,-7.2325,-7.2804,-7.3432,-7.3642,-7.3462,-7.2714,-7.1068,-6.8555,0.0,0.0,0.0,0.0,-7.3043,-7.4929,-7.5228,-7.5439,-7.5572,-7.5466,-7.4632,-7.3036,-7.2543,-7.1393,-6.948,-6.7976,-6.6536,-6.4928,-6.2502,0.0,0.0,0.0,0.0,0.0,0.0,0.0,0.0,0.0,0.0,0.0,0.0,0.0,0.0,0.0,0.0,0.0,0.0,0.0,-5.0075,-4.9729,-4.9074,0.0,0.0,0.0,0.0,0.0,0.0,0.0,0.0,0.0,-5.3772,-5.4401,-5.5282,0.0,0.0,-5.8303,-5.8453,-5.8474,-5.8415,-5.826,-5.7638,0.0,-5.7036,-5.6384,-5.5987,-5.5987,-5.5243,-5.4527,-5.4229,-5.4013,-5.3936,-5.4288,-5.4372,-5.4489,-5.4719,-5.4053,-5.3764,-5.4182,-5.4414,-5.4491,-5.4461,-5.4829,-5.5209,-7.9563,-7.8936,-7.8161,-7.769,-7.7524,-7.7494,-7.7675,-7.7847,-7.7847,-7.76,-7.7231,-7.6804,-7.606,-7.4955,-7.3749,0.0,0.0,0.0,-7.1158,-7.1158,-7.1787,-7.2295,-7.2714,-7.3642,-7.43,-7.4689,-7.5347,-7.5647,-7.5647,-7.5647,-7.4659,-7.2714,0.0,-7.2654,-7.4061,-7.4091,-7.4809,-7.6185,-7.6275,-7.6244,-7.6278,-7.6014,-7.5188,-7.3893,-7.35,-7.2589,-7.0779,-6.9651,-6.847,-6.7289,-6.5018,-6.2868,0.0,0.0,0.0,0.0,0.0,0.0,0.0,0.0,0.0,0.0,0.0,-4.7375,-4.8218,0.0,0.0,0.0,-5.0574,-5.0923,-5.1476,-5.0914,0.0,0.0,0.0,0.0,0.0,0.0,0.0,-5.247,-5.3973,-5.5329,-5.651,-5.6912,-5.7316,-5.7625,-5.8478,-5.9031,-5.9031,0.0,-5.912,-5.894,-5.834,-5.7813,-5.7631,-5.6994,-5.654,-5.654,-5.6063,-5.5667,-5.5667,-5.5352,-5.5154,-5.5413,-5.5428,-5.5419,-5.5909,-5.5277,-5.4877,-5.5352,-5.5588,-5.5667,-5.5643,-5.62,-5.6634,-8.1579,-8.198,-8.0224,-7.9484,-7.9417,-7.9417,-7.9417,-7.9417,-7.9417,-7.9417,-7.9417,-7.8954,-7.8322,-7.749,-7.548,0.0,-7.3073,-7.3073,-7.3073,-7.3103,-7.3791,-7.4121,-7.418,-7.5467,-7.6066,-7.6066,-7.6694,-7.6963,-7.6993,-7.6993,-7.6993,-7.6963,-7.5796,-7.5497,-7.6036,-7.6066,-7.6365,-7.6963,-7.6993,-7.6781,-7.6427,-7.6371,-7.5905,-7.526,-7.4547,-7.3313,-7.148,-7.085,-7.0064,-6.899,-6.7386,-6.5635,-6.3791,0.0,0.0,0.0,0.0,0.0,0.0,0.0,0.0,0.0,0.0,0.0,0.0,0.0,0.0,-5.2547,-5.2791,0.0,-5.289,-5.2286,0.0,0.0,0.0,-5.1317,-5.1607,-5.2596,-5.3652,-5.4779,0.0,0.0,-5.8474,-5.9384,-5.9666,-5.8932,-5.9284,-5.956,-5.9508,-5.9483,-5.9328,-5.9043,-5.8575,-5.8207,-5.7868,-5.7369,-5.7132,-5.7052,-5.7021,-5.6949,-5.6869,-5.6654,-5.6462,-5.6438,-5.6117,-5.5933,-5.6382,-5.6358,-5.6462,-5.6438,-5.6678,-5.6997,-5.6893,-5.706,-5.7224,-8.2634,-8.2482,-8.2574,-8.2435,-8.2125,-8.2125,-8.2125,-8.2156,-8.2125,-8.2156,-8.2095,-8.1222,-7.9986,-7.8521,-7.6191,-7.5052,-7.4767,-7.4526,-7.442,-7.448,-7.5587,-7.6125,-7.6185,-7.6993,-7.7352,-7.7382,-7.8011,-7.831,-7.831,-7.831,-7.834,-7.831,-7.8011,-7.7682,-7.7382,-7.7352,-7.7682,-7.831,-7.831,-7.8124,-7.7763,-7.7737,-7.7238,-7.6371,-7.5654,-7.4877,-7.3838,-7.2308,-7.1316,-7.0928,-6.9158,-6.7386,-6.5691,-6.364,0.0,0.0,0.0,0.0,0.0,0.0,0.0,0.0,0.0,-5.145,-5.2741,0.0,-5.4231,0.0,-5.5651,-5.5654,-5.529,-5.4629,0.0,0.0,-5.3824,-5.4117,-5.461,-5.5657,-5.6601,-5.7316,-5.8462,-5.9255,-5.951,-6.0123,-6.0481,-6.0253,-6.0023,-5.9894,-5.956,-5.9508,-5.9483,-5.9353,-5.9067,-5.8731,-5.8599,-5.8286,-5.7838,-5.7497,-5.7497,-5.7339,-5.7021,-5.6941,-5.6861,-5.6861,-5.6782,-5.6782,-5.6861,-5.6861,-5.6861,-5.6861,-5.6941,-5.7021,-5.7045,-5.7349,-5.7773,-8.3818,-8.4006,-8.4411,-8.4575,-8.444,-8.3498,-8.311,-8.311,-8.311,-8.311,-8.3049,-8.2161,-8.099,-7.9572,-7.7759,-7.6766,-7.6288,-7.5944,-7.5736,-7.5796,-7.6784,-7.7333,-7.7504,-7.8235,-7.8607,-7.8749,-7.9111,-7.919,-7.9076,-7.9076,-7.9005,-7.8789,-7.8789,-7.8609,-7.825,-7.825,-7.843,-7.8789,-7.8789,-7.8717,-7.8499,-7.8282,-7.7839,-7.6999,-7.6398,-7.5825,-7.5146,-7.3821,-7.3052,-7.2953,-7.1085,-6.9396,-6.7925,-6.6012,-6.3687,0.0,0.0,0.0,0.0,0.0,0.0,0.0,0.0,0.0,0.0,0.0,-5.6813,-5.8177,-5.7988,-5.789,-5.8134,-5.7271,-5.6588,-5.6409,-5.6416,-5.6528,-5.6836,-5.7775,-5.862,-5.926,-6.0102,-6.0791,-6.1051,-6.1513,-6.162,-6.1242,-6.1041,-6.0635,-5.9996,-6.0019,-6.0118,-5.9859,-5.9747,-5.9429,-5.9049,-5.8788,-5.8477,-5.802,-5.7892,-5.7813,-5.7576,-5.7418,-5.7259,-5.7259,-5.71,-5.7021,-5.7021,-5.7021,-5.7021,-5.7021,-5.7021,-5.7021,-5.7021,-5.743,-5.7911,-8.5136,-8.6031,-8.6057,-8.6188,-8.6196,-8.4347,-8.3569,-8.3498,-8.3498,-8.3437,-8.3243,-8.2596,-8.1678,-8.0654,-7.9503,-7.8516,-7.7594,-7.7174,-7.7034,-7.7064,-7.7764,-7.8306,-7.8589,-7.9162,-7.9647,-7.99,-7.99,-7.9759,-7.9505,-7.9434,-7.9291,-7.8861,-7.8861,-7.8861,-7.8789,-7.8789,-7.8789,-7.8789,-7.8789,-7.8789,-7.8789,-7.8427,-7.8044,-7.7509,-7.7072,-7.6559,-7.5968,-7.5318,-7.4834,-7.4716,-7.3052,-7.1464,-7.0116,-6.8227,-6.5936,0.0,-6.1869,0.0,0.0,0.0,0.0,0.0,0.0,0.0,0.0,-5.8559,-5.9557,-6.0858,-6.0171,-6.0035,-6.0974,-5.9905,-5.9087,-5.9016,-5.8895,-5.8796,-5.8822,-5.9605,-6.0345,-6.0814,-6.1485,-6.2064,-6.2487,-6.289,-6.2815,-6.2172,-6.21,-6.1802,-6.0814,-6.0787,-6.0858,-6.0569,-6.0497,-6.0229,-5.9667,-5.941,-5.9261,-5.8788,-5.866,-5.8586,-5.8556,-5.824,-5.7954,-5.7874,-5.7684,-5.7477,-5.73,-5.7276,-5.7252,-5.7283,-5.718,-5.71,-5.7045,-5.7357,-5.7718,-8.6651,-8.7115,-8.7386,-8.7222,-8.669,-8.6299,-8.5924,-8.5672,-8.5672,-8.5219,-8.4307,-8.3344,-8.2525,-8.1647,-7.9855,-7.8898,-7.8707,-7.8257,-7.8117,-7.8147,-7.9062,-7.9506,-7.9577,-7.9769,-7.983,-7.99,-7.99,-7.983,-7.983,-7.983,-7.9647,-7.9321,-7.9291,-7.9148,-7.8789,0.0,0.0,0.0,-7.8789,-7.8789,-7.8789,-7.8717,-7.8657,-7.8537,-7.7957,0.0,-7.7408,-7.6498,-7.5762,-7.5157,-7.4539,0.0,0.0,0.0,0.0,0.0,0.0,0.0,0.0,0.0,0.0,0.0,-6.207,-6.1706,-6.0554,-6.1846,-6.2781,-6.2839,-6.3014,-6.3032,-6.2671,-6.2166,-6.17,-6.1416,-6.1422,-6.153,-6.1556,-6.2079,-6.2476,-6.263,-6.273,-6.2831,-6.3011,-6.3037,-6.3037,-6.2916,-6.3288,-6.3204,-6.2398,-6.1839,-6.1529,-6.1441,-6.1324,-6.1086,-6.0801,-6.0776,-6.0647,-6.0229,-6.0044,-5.994,-5.9675,-5.9515,-5.9459,-5.9435,-5.9403,-5.9152,-5.876,-5.8662,-5.8564,-5.8148,-5.7759,-5.7418,-5.71,-5.7093,-5.7285,-8.8635,-8.8926,-8.8752,-8.8375,0.0,-8.7725,-8.7449,-8.7102,-8.6541,-8.6032,-8.5446,-8.4338,-8.3516,-8.2806,-8.081,-7.9919,-7.9694,-7.9163,-7.8992,-7.9163,-7.9678,-8.0041,-8.0182,-8.0182,-8.0282,-8.0492,-8.0492,-8.0422,-8.0182,-8.0212,-7.9971,-7.9647,-7.9505,-7.9291,-7.9106,-7.8933,-7.8789,-7.8789,-7.8789,-7.8789,-7.8789,-7.8789,-7.8789,-7.8789,-7.8489,0.0,0.0,0.0,0.0,0.0,0.0,0.0,0.0,-7.1903,-7.0409,-6.8421,-6.7113,-6.6001,-6.5002,-6.4462,-6.4159,-6.4188,-6.5135,-6.4989,-6.3329,-6.4279,-6.5193,-6.5436,-6.5862,-6.602,-6.5763,-6.5292,-6.4789,-6.4328,-6.3992,-6.3653,-6.3506,-6.3553,-6.3653,-6.3433,-6.358,-6.37,-6.3726,-6.37,-6.358,-6.346,-6.3941,-6.4199,-6.3887,-6.3386,-6.2999,-6.2987,-6.2796,-6.2535,-6.2281,-6.223,-6.2024,-6.1638,-6.1483,-6.1403,-6.1245,-6.0981,-6.0822,-6.0822,-6.0527,-6.0162,-5.9884,-5.9626,-5.9392,-5.9146,-5.8913,-5.8472,-5.7878,-5.7373,-5.7093,-9.0401,-9.0645,-9.0033,-8.951,-8.9079,-8.8776,-8.8439,-8.7931,-8.6823,0.0,0.0,-8.529,-8.4395,-8.3713,-8.2019,-8.1064,-8.0632,-8.0072,-7.993,-8.0182,-8.0252,-8.0462,-8.0771,-8.084,-8.091,-8.1217,-8.1217,-8.0979,-8.0632,-8.0632,-8.0392,-8.0041,-7.9718,-7.9535,-7.9363,-7.9076,-7.8861,-7.8789,-7.8789,-7.8789,-7.8789,-7.8789,-7.8789,-7.8789,-7.8789,-7.8789,-7.8789,-7.828,-7.7921,-7.7771,-7.6383,-7.5219,-7.4466,-7.3478,-7.211,-7.0507,-6.9768,-6.8915,-6.7756,-6.7064,-6.6671,-6.6604,-6.745,-6.7398,-6.5986,-6.6497,-6.7203,-6.7964,-6.8199,-6.8457,-6.8709,-6.806,-6.7478,-6.7037,-6.623,-6.5562,-6.5139,-6.4934,-6.4709,-6.4208,-6.4427,-6.4491,-6.4337,-6.4346,-6.43,-6.4115,-6.4634,-6.5077,-6.5262,-6.4973,-6.4534,-6.4314,-6.4126,-6.3995,-6.3581,-6.3348,-6.3327,-6.2968,-6.2866,-6.2893,-6.2814,-6.2552,-6.2315,-6.2259,-6.1626,-6.1281,-6.1126,-6.0836,-6.0441,-6.0286,-6.0206,-5.9897,-5.9054,-5.8079,-5.7365,-9.1085,-9.1375,-9.1029,-9.0293,-8.9444,-8.9378,-8.9012,-8.8303,-8.7241,-8.6752,-8.6651,-8.5611,-8.4816,-8.4061,-8.2861,-8.2041,-8.1461,-8.1323,-8.1293,-8.1361,-8.1765,-8.1901,-8.1969,-8.1969,-8.1833,-8.1529,-8.1529,-8.1323,-8.1079,-8.0979,-8.0771,-8.0492,-8.0352,-8.0001,-7.9434,-7.9363,-7.9148,-7.8789,-7.8789,-7.8789,-7.8789,-7.8789,-7.8789,-7.8789,-7.8789,-7.8789,-7.8789,-7.8699,-7.84,-7.7831,-7.7012,-7.6185,-7.5149,-7.4021,-7.3073,-7.2385,-7.1767,-7.1258,-7.1102,-7.0399,-6.9748,-6.9149,-6.9221,-6.9021,-6.8295,-6.878,-6.9179,-6.9336,-6.9421,-6.9408,-6.938,-6.9124,-6.875,-6.8333,-6.7786,-6.7367,-6.6927,-6.6817,-6.6496,-6.5564,-6.5582,-6.5245,-6.4627,-6.4798,-6.507,-6.5159,-6.5762,-6.6688,-6.6688,-6.6286,-6.5661,-6.5292,-6.4894,-6.4469,-6.4206,-6.4017,-6.4129,-6.4368,-6.4345,-6.4372,-6.4372,-6.4293,-6.4134,-6.3837,-6.36,-6.3312,-6.3035,-6.2853,-6.2357,-6.1789,-6.137,-6.0896,-6.0347,-5.9477,-5.854,-9.2279,-9.2337,-9.1625,-9.106,-9.0614,-8.9838,-8.9312,-8.8945,-8.8067,-8.7757,-8.7624,-8.6963,-8.6031,-8.475,-8.3857,-8.2934,-8.187,-8.1666,-8.1734,-8.1938,-8.2104,-8.2172,-8.2172,-8.2172,-8.2104,-8.187,-8.1734,-8.1529,-8.1392,-8.1217,-8.101,-8.084,-8.0632,-8.0142,-7.9434,-7.9393,-7.922,-7.8789,-7.8789,-7.8789,-7.8789,-7.8789,-7.8789,-7.8789,-7.8789,-7.8609,-7.828,-7.8609,-7.8489,-7.7831,-7.7532,-7.6983,-7.6114,-7.522,-7.4396,-7.3695,-7.3043,-7.2551,-7.2346,-7.1512,-7.0894,-7.0576,-7.0684,-7.063,-7.0342,-7.0361,-7.0505,-7.0745,-7.1034,-7.1193,-7.0979,-7.0836,-7.0549,-7.0116,-6.966,-6.91,-6.8563,-6.8138,-6.7641,-6.678,-6.6652,-6.6322,-6.5709,-6.5827,-6.5916,-6.585,-6.6508,-6.7165,-6.7553,-6.7276,-6.6784,-6.6264,-6.595,-6.5713,-6.5502,-6.5502,-6.5555,-6.5792,-6.5792,-6.5792,-6.5792,-6.5792,-6.5713,-6.5476,-6.5159,-6.4737,-6.4452,-6.4054,-6.3607,-6.3239,-6.2952,-6.2451,-6.1532,-6.0428,-5.9228,-9.3156,-9.3036,-9.2276,-9.1844,-9.15,-9.0293,-8.9707,-8.9707,-8.9212,-8.8977,-8.8878,-8.8307,-8.7136,-8.556,-8.4923,-8.3997,-8.2768,-8.2343,-8.241,-8.2642,-8.2642,-8.2642,-8.2642,-8.2575,-8.2508,-8.2374,-8.2037,-8.1734,-8.1597,-8.1323,-8.1186,-8.1048,-8.0771,-8.0282,-7.9647,-7.9576,-7.9291,-7.8933,-7.8861,-7.8789,-7.8789,-7.8789,-7.8789,-7.8789,-7.8789,-7.8549,-7.81,-7.8519,-7.8549,-7.8071,-7.7891,-7.7592,-7.7053,-7.6305,-7.5538,-7.4694,-7.4069,-7.3575,-7.3133,-7.2414,-7.1953,-7.1845,-7.1965,-7.2046,-7.2017,-7.1664,-7.1593,-7.1863,-7.2311,-7.243,-7.2215,-7.2172,-7.2057,-7.1696,-7.1194,-7.0548,-6.9911,-6.9398,-6.8742,-6.8002,-6.7727,-6.7451,-6.7,-6.6981,-6.697,-6.6964,-6.7141,-6.768,-6.8089,-6.8198,-6.7892,-6.743,-6.707,-6.6759,-6.6759,-6.6603,-6.6681,-6.6759,-6.6837,-6.6759,-6.6759,-6.6837,-6.6759,-6.6525,-6.6107,-6.5766,-6.5608,-6.5053,-6.4549,-6.4392,-6.4152,-6.3754,-6.2406,-6.1409,-6.0284,-9.3394,-9.3096,-9.2943,-9.2459,-9.1562,-9.0839,-9.0519,-9.0519,-9.039,-9.039,-9.0196,-8.9012,-8.764,-8.6457,-8.6196,-8.5364,-8.4056,-8.4089,-8.4025,-8.4025,-8.4089,-8.4089,-8.4025,-8.3765,-8.3438,-8.3108,-8.2776,-8.2208,-8.1666,-8.1597,-8.1392,-8.1117,-8.1048,-8.0771,-8.0422,-8.0041,-7.9688,-7.9363,-7.9005,-7.8789,-7.8789,-7.8789,-7.8789,-7.8789,-7.8789,-7.8759,-7.8639,-7.8759,-7.8759,-7.8669,-7.813,-7.7801,-7.7622,-7.6574,-7.5886,-7.5727,-7.5099,-7.4573,-7.4229,-7.413,-7.3862,-7.3584,-7.3222,-7.304,-7.304,-7.2686,-7.2443,-7.2515,-7.2573,-7.253,-7.253,-7.2559,-7.2416,-7.2057,-7.1971,-7.1755,-7.1291,-7.0927,-7.0306,-6.9377,-6.8926,-6.829,-6.7663,-6.7764,-6.8233,-6.8469,-6.8504,-6.8717,-6.8827,-6.8882,-6.8882,-6.8579,-6.7968,-6.7225,-6.6915,-6.6681,-6.6915,-6.7225,-6.7225,-6.7225,-6.7225,-6.7225,-6.7148,-6.6993,-6.6681,-6.6498,-6.6447,-6.6133,-6.5634,-6.5238,-6.484,-6.436,-6.3154,-6.254,-6.1989,-9.3512,-9.3394,-9.3216,-9.2762,-9.2153,-9.172,-9.1375,-9.1219,-9.0966,-9.0775,-9.0519,-9.0001,-8.8733,-8.7049,-8.6757,-8.579,-8.4315,-8.4283,-8.4283,-8.4283,-8.4283,-8.4283,-8.4283,-8.4154,-8.3895,-8.3569,-8.3174,-8.2744,-8.2276,-8.1802,-8.1461,-8.1148,-8.1048,-8.091,-8.0492,-8.0111,-7.9718,-7.9363,-7.9005,-7.8789,-7.8789,-7.8789,-7.8789,-7.8789,-7.8789,-7.8579,-7.831,-7.8579,-7.8609,-7.828,-7.831,-7.822,-7.7831,-7.7293,-7.6844,-7.6455,-7.5856,-7.5428,-7.5289,-7.5051,-7.499,-7.5235,-7.4527,-7.4109,-7.408,-7.3615,-7.334,-7.3269,-7.2915,-7.2631,-7.2631,-7.2631,-7.2559,-7.2416,-7.2416,-7.2273,-7.1841,-7.1725,-7.1291,-7.07,-7.0306,-6.9781,-6.9216,-6.8855,-6.8805,-6.9053,-6.9081,-6.9156,-6.9081,-6.9081,-6.9081,-6.9033,-6.8655,-6.8274,-6.7815,-6.7738,-6.7738,-6.7661,-6.7661,-6.7661,-6.7661,-6.7688,-6.7611,-6.7353,-6.7198,-6.707,-6.707,-6.6681,-6.629,-6.5792,-6.5238,-6.4627,-6.4039,-6.3716,-6.3265,-9.363,-9.3512,-9.3216,-9.2943,-9.2702,-9.2398,-9.2092,-9.1811,-9.1596,-9.1375,-9.1156,-9.1093,-9.0053,-8.8433,-8.7662,-8.6436,-8.4955,-8.4858,-8.4858,-8.4858,-8.4858,-8.4795,-8.4731,-8.4603,-8.4347,-8.396,-8.3569,-8.3108,-8.2575,-8.1938,-8.1392,-8.1117,-8.1048,-8.091,-8.0632,-8.0182,-7.9759,-7.9505,-7.9076,-7.8789,-7.8789,-7.8789,-7.8789,-7.8789,-7.8789,-7.8579,-7.81,-7.8519,-7.8579,-7.813,-7.8549,-7.8579,-7.813,-7.7921,-7.7532,-7.6874,-7.6425,-7.6155,-7.6155,-7.5846,-7.5884,-7.6301,-7.5632,-7.5023,-7.4816,-7.4362,-7.3967,-7.372,-7.3269,-7.2986,-7.2915,-7.2915,-7.2915,-7.2773,-7.2773,-7.2631,-7.2273,-7.2201,-7.1913,-7.1725,-7.1231,-7.0967,-7.06,-7.0128,-6.983,-6.983,-6.9858,-6.9784,-6.9784,-6.9858,-6.9858,-6.9784,-6.9784,-6.9409,-6.8882,-6.8579,-6.8503,-6.8198,-6.8045,-6.8045,-6.7968,-6.7892,-6.7892,-6.7661,-6.7507,-6.743,-6.7457,-6.7148,-6.6655,-6.629,-6.5713,-6.5212,-6.5079,-6.4761,-6.4441,-9.383,-9.3571,-9.3275,-9.3096,-9.3062,-9.2702,-9.2581,-9.252,-9.252,-9.252,-9.2398,-9.2153,-9.1597,-9.0677,-8.9123,-8.7572,-8.6361,-8.6169,-8.6169,-8.6107,-8.6169,-8.6046,-8.5737,-8.5425,-8.4922,-8.4347,-8.396,-8.324,-8.2307,-8.1802,-8.1392,-8.1117,-8.1117,-8.1079,-8.091,-8.0252,-7.99,-7.9759,-7.9148,-7.8789,-7.8789,-7.8789,-7.8789,-7.8789,-7.8789,-7.8759,-7.8729,-7.8759,-7.8759,-7.8729,-7.8759,-7.8759,-7.8669,-7.816,-7.7562,-7.6963,-7.6814,-7.6784,-7.6784,-7.6713,-7.6773,-7.6803,-7.6461,-7.5951,-7.5346,-7.4869,-7.4403,-7.389,-7.3831,-7.3761,-7.3761,-7.3621,-7.348,-7.3228,-7.3157,-7.2986,-7.2631,-7.2273,-7.2158,-7.2014,-7.1725,-7.1434,-7.1361,-7.1434,-7.1215,-7.1215,-7.1288,-7.1288,-7.1142,-7.1215,-7.1215,-7.1215,-7.1142,-7.082,-6.9484,-6.9184,-6.893,-6.8655,-6.8427,-6.8351,-6.8122,-6.7892,-6.7892,-6.7892,-6.7815,-6.7738,-6.7738,-6.7507,-6.7094,-6.6679,-6.6419,-6.6158,-6.5818,-6.5608,-6.5292,-9.383,-9.3571,-9.3453,-9.3394,-9.3394,-9.3275,-9.3122,-9.2976,-9.2883,-9.2762,-9.2581,-9.2459,-9.1997,-9.1295,-9.0665,-8.9371,-8.7618,-8.7062,-8.6744,-8.6563,-8.6563,-8.638,-8.6107,-8.5799,-8.5425,-8.4889,-8.4411,-8.3569,-8.2575,-8.2172,-8.1802,-8.1461,-8.1186,-8.1048,-8.0979,-8.0252,-7.99,-7.983,-7.9148,-7.8789,-7.8789,-7.8789,-7.8789,-7.8789,-7.8789,-7.8789,-7.8789,-7.8789,-7.8789,-7.8789,-7.8789,-7.8789,-7.8759,-7.8795,-7.8659,-7.8267,-7.7966,-7.7825,-7.7825,-7.7584,-7.7652,-7.7981,-7.7151,-7.6543,-7.6155,-7.5458,-7.4763,-7.4585,-7.4456,-7.4525,-7.4387,-7.411,-7.3621,-7.3298,-7.3228,-7.3057,-7.2702,-7.2488,-7.2416,-7.2345,-7.2129,-7.1797,-7.1579,-7.1535,-7.1535,-7.1535,-7.1535,-7.1507,-7.1535,-7.1535,-7.1507,-7.1507,-7.1507,-7.1288,-7.082,-7.0156,-6.9709,-6.9156,-6.8882,-6.8655,-6.8427,-6.8274,-6.8274,-6.7968,-6.7968,-6.7838,-6.7734,-6.7125,-6.6872,-6.6906,-6.6698,-6.6436,-6.6419,-6.5999,-6.5922,-9.383,-9.363,-9.3571,-9.3571,-9.3571,-9.3571,-9.3453,-9.3275,-9.3275,-9.3156,-9.2943,-9.2883,-9.2614,-9.2177,-9.1908,-9.1033,-8.9606,-8.8668,-8.8098,-8.7919,-8.7919,-8.7678,-8.7281,-8.684,-8.6249,-8.5591,-8.4636,-8.3634,-8.2776,-8.2374,-8.2037,-8.1597,-8.1255,-8.101,-8.084,-8.0252,-7.983,-7.9617,-7.9148,-7.8861,-7.8933,-7.9005,-7.9076,-7.9148,-7.9118,-7.9076,-7.8789,-7.8789,-7.8789,-7.8789,-7.8933,-7.9076,-7.9148,-7.9404,-7.9466,-7.9253,-7.9052,-7.8911,-7.8841,-7.8558,-7.8435,-7.8615,-7.7753,-7.7023,-7.6574,-7.5707,-7.5198,-7.4958,-7.4869,-7.4869,-7.48,-7.4456,-7.397,-7.351,-7.3369,-7.3128,-7.2702,-7.2631,-7.2631,-7.2559,-7.2416,-7.2129,-7.1913,-7.1869,-7.1869,-7.1841,-7.1869,-7.1869,-7.1869,-7.1869,-7.1869,-7.1841,-7.1913,-7.1841,-7.1551,-7.1114,-7.0452,-6.9905,-6.9457,-6.9231,-6.8882,-6.8731,-6.8427,-6.8198,-6.7914,-6.7783,-6.7436,-6.6774,-6.6698,-6.6837,-6.6545,-6.6227,-6.6213,-6.6297,-6.6143,-9.3864,-9.363,-9.3571,-9.3571,-9.3571,-9.3571,-9.3605,-9.3571,-9.3571,-9.3512,-9.3453,-9.3512,-9.3478,-9.3343,-9.271,-9.2304,-9.1985,-9.0909,-9.0304,-9.0111,-9.0144,-8.9787,-8.9144,-8.8427,-8.7426,-8.6207,-8.4603,-8.3438,-8.2776,-8.2374,-8.2037,-8.1666,-8.1255,-8.091,-8.0462,-8.0111,-7.9759,-7.9434,-7.9076,-7.9005,-7.9291,-7.9363,-7.9505,-7.9759,-7.983,-7.9546,-7.8933,-7.8861,-7.8933,-7.8933,-7.922,-7.9576,-7.983,-7.9971,-7.994,-8.0051,-7.991,-7.991,-7.9809,-7.9436,-7.8861,-7.8458,-7.7924,-7.7124,-7.6255,-7.5826,-7.5467,-7.4988,-7.4869,-7.4869,-7.4869,-7.48,-7.4525,-7.3901,-7.3691,-7.341,-7.2844,-7.2631,-7.2631,-7.2631,-7.2559,-7.2631,-7.2559,-7.2488,-7.2416,-7.2488,-7.2488,-7.2488,-7.2416,-7.2416,-7.2559,-7.2559,-7.2416,-7.2273,-7.2201,-7.1985,-7.1333,-7.0673,-7.0378,-7.0007,-6.9382,-6.9108,-6.8731,-6.8399,-6.78,-6.7566,-6.6996,-6.6439,-6.6195,-6.6276,-6.6087,-6.6012,-6.6104,-6.6115,-6.5926,-9.3864,-9.363,-9.3571,-9.3571,-9.3571,-9.3571,-9.3571,-9.3571,-9.3571,-9.3571,-9.3571,-9.3571,-9.3571,-9.3537,-9.33,-9.3233,-9.3199,-9.2752,-9.191,-9.0926,-9.0791,-9.0438,-8.98,-8.9266,-8.7951,-8.6081,-8.4732,-8.3765,-8.301,-8.2441,-8.2104,-8.1901,-8.1423,-8.091,-8.0492,-8.0111,-7.9688,-7.9434,-7.9291,-7.9291,-7.9464,-7.9647,-7.983,-7.99,-8.0182,-8.0072,-7.9617,-7.9546,-7.9546,-7.9546,-7.9688,-8.0041,-8.0632,-8.0979,-8.1186,-8.133,-8.0723,-8.0234,-7.9904,-7.9223,-7.8603,-7.8023,-7.7313,-7.6753,-7.6232,-7.5605,-7.5207,-7.4899,-7.4869,-7.4869,-7.4869,-7.4869,-7.4594,-7.3901,-7.3761,-7.348,-7.2773,-7.2631,-7.2631,-7.2631,-7.2631,-7.2631,-7.2631,-7.2631,-7.2631,-7.2631,-7.2631,-7.2631,-7.2631,-7.2631,-7.2631,-7.2631,-7.2631,-7.2559,-7.2416,-7.2345,-7.1985,-7.1405,-7.104,-7.06,-7.0007,-6.9457,-6.9108,-6.8332,-6.7762,-6.7099,-6.6481,-6.6047,-6.5775,-6.5748,-6.5647,-6.5782,-6.5972,-6.5843,-6.5579,-9.4121,-9.3747,-9.3747,-9.3689,-9.3571,-9.3571,-9.3571,-9.3571,-9.3571,-9.3571,-9.3571,-9.3571,-9.3571,-9.3571,-9.3571,-9.3571,-9.3571,-9.3571,-9.2946,-9.2052,-9.1892,-9.1505,-9.0714,-8.9547,-8.8057,-8.6144,-8.4861,-8.3895,-8.324,-8.2575,-8.2172,-8.2037,-8.1323,-8.0701,-8.0252,-7.993,-7.9576,-7.9434,-7.9393,-7.9505,-7.9789,-8.0142,-8.0392,-8.0531,-8.091,-8.1048,-8.0948,-8.0948,-8.0671,-8.0322,-8.0392,-8.084,-8.1461,-8.1449,-8.1497,-8.1538,-8.1004,-8.0301,-8.0007,-7.9293,-7.8556,-7.7972,-7.7236,-7.6532,-7.6115,-7.5322,-7.5104,-7.4937,-7.4869,-7.4869,-7.4869,-7.4869,-7.4594,-7.3901,-7.3761,-7.341,-7.2773,-7.2631,-7.2631,-7.2631,-7.2631,-7.2631,-7.2631,-7.2631,-7.2631,-7.2631,-7.2631,-7.2631,-7.2631,-7.2631,-7.2631,-7.2631,-7.2631,-7.2631,-7.2631,-7.2559,-7.2488,-7.2129,-7.1768,-7.1187,-7.06,-7.0054,-6.9681,-6.8146,-6.7265,-6.6413,-6.5768,-6.526,-6.4934,-6.507,-6.5205,-6.5151,-6.5178,-6.526,-6.5078,-9.458,-9.4063,-9.4005,-9.3889,-9.363,-9.363,-9.363,-9.363,-9.363,-9.363,-9.363,-9.363,-9.363,-9.363,-9.3571,-9.3571,-9.3571,-9.3571,-9.3537,-9.3402,-9.3343,-9.298,-9.2058,-8.9792,-8.7843,-8.6433,-8.4989,-8.3895,-8.3108,-8.2508,-8.2172,-8.2037,-8.1048,-8.0322,-7.9971,-7.9546,-7.9505,-7.9434,-7.9535,-7.993,-8.0492,-8.091,-8.1323,-8.1597,-8.2037,-8.2307,-8.2477,-8.2544,-8.2073,-8.0948,-8.143,-8.1907,-8.2052,-8.1553,-8.1405,-8.1346,-8.0557,-8.0179,-8.0051,-7.9503,-7.8924,-7.8067,-7.7544,-7.6861,-7.5903,-7.5542,-7.521,-7.5006,-7.4937,-7.4869,-7.4869,-7.4869,-7.4525,-7.397,-7.3691,-7.3269,-7.2773,-7.2631,-7.2631,-7.2631,-7.2631,-7.2631,-7.2631,-7.2631,-7.2631,-7.2631,-7.2631,-7.2631,-7.2631,-7.2631,-7.2631,-7.2631,-7.2631,-7.2631,-7.2631,-7.2631,-7.2559,-7.2416,-7.2129,-7.1768,-7.1028,-7.0459,-6.9513,-6.8059,-6.6758,-6.5955,-6.5217,-6.4763,-6.45,-6.4581,-6.4554,-6.4337,-6.4419,-6.4636,-6.4717,-9.4919,-9.4385,-9.4385,-9.4213,-9.3889,-9.3889,-9.3889,-9.3889,-9.3889,-9.3889,-9.3889,-9.3889,-9.3806,-9.363,-9.363,-9.3571,-9.363,-9.363,-9.3571,-9.3571,-9.3571,-9.3216,-9.2158,-8.9829,-8.8008,-8.6887,-8.515,-8.3798,-8.2909,-8.2441,-8.2037,-8.1734,-8.091,-8.0282,-7.99,-7.9759,-7.9647,-7.9576,-8.0282,-8.0732,-8.0979,-8.1628,-8.2037,-8.241,-8.2744,-8.301,-8.3142,-8.3571,-8.344,-8.2646,-8.2912,-8.2924,-8.261,-8.2489,-8.2173,-8.1697,-8.0967,-8.0301,-7.9982,-7.9379,-7.8682,-7.8108,-7.7617,-7.6936,-7.6584,-7.5819,-7.5414,-7.521,-7.5074,-7.4869,-7.4869,-7.4869,-7.4594,-7.4179,-7.3551,-7.2986,-7.2702,-7.2631,-7.2631,-7.2631,-7.2631,-7.2631,-7.2631,-7.2631,-7.2631,-7.2631,-7.2631,-7.2631,-7.2631,-7.2631,-7.2631,-7.2631,-7.2631,-7.2631,-7.2631,-7.2631,-7.2631,-7.2631,-7.2416,-7.2273,-7.1423,-7.0542,-6.9157,-6.7663,-6.656,-6.571,-6.4963,-6.4391,-6.431,-6.431,-6.431,-6.431,-6.431,-6.4419,-6.4446,-9.553,-9.4897,-9.4897,-9.4614,-9.4236,-9.4179,-9.4213,-9.4179,-9.4179,-9.4213,-9.4179,-9.4213,-9.4155,-9.3981,-9.3981,-9.3981,-9.3981,-9.3981,-9.3753,-9.3113,-9.255,-9.217,-9.1469,-8.9631,-8.7976,-8.6822,-8.5117,-8.3828,-8.2842,-8.2374,-8.1901,-8.1323,-8.0632,-8.0111,-7.99,-7.9759,-7.9789,-8.0001,-8.0701,-8.1148,-8.1323,-8.2141,-8.2642,-8.301,-8.3471,-8.3928,-8.4315,-8.4794,-8.473,-8.4219,-8.3931,-8.3643,-8.3131,-8.265,-8.2264,-8.1691,-8.0865,-8.0328,-8.0077,-7.9415,-7.8912,-7.8532,-7.799,-7.7473,-7.7016,-7.6355,-7.6021,-7.5414,-7.521,-7.5074,-7.4899,-7.4731,-7.4525,-7.4248,-7.3621,-7.3057,-7.2844,-7.2844,-7.2773,-7.2702,-7.2631,-7.2602,-7.2602,-7.2602,-7.2631,-7.2631,-7.2631,-7.2631,-7.2631,-7.2631,-7.2631,-7.2631,-7.2631,-7.2631,-7.2631,-7.2631,-7.2631,-7.2631,-7.2559,-7.2488,-7.1726,-7.0662,-6.9314,-6.7898,-6.654,-6.5527,-6.4945,-6.4437,-6.431,-6.431,-6.431,-6.431,-6.431,-6.431,-6.431,-9.6201,-9.553,-9.5475,-9.5143,-9.4671,-9.4614,-9.4614,-9.4557,-9.4557,-9.4557,-9.4557,-9.4557,-9.45,-9.45,-9.4385,-9.4443,-9.4443,-9.4385,-9.3793,-9.2778,-9.1681,-9.0984,-9.0887,-8.9174,-8.7616,-8.6369,-8.4925,-8.3666,-8.2709,-8.2239,-8.1697,-8.1048,-8.0252,-7.9971,-7.99,-7.9688,-7.993,-8.0492,-8.1048,-8.1529,-8.1938,-8.2744,-8.3306,-8.3733,-8.4571,-8.5237,-8.5704,-8.6009,-8.5878,-8.5261,-8.4647,-8.4072,-8.3565,-8.2371,-8.164,-8.1263,-8.0691,-8.0277,-8.0123,-7.9848,-7.9537,-7.9225,-7.8817,-7.831,-7.7538,-7.7147,-7.6681,-7.6031,-7.567,-7.5459,-7.5147,-7.4743,-7.4545,-7.4446,-7.404,-7.3761,-7.341,-7.3269,-7.3128,-7.2744,-7.2773,-7.2744,-7.2744,-7.2744,-7.2744,-7.3057,-7.2915,-7.2844,-7.2773,-7.2702,-7.2631,-7.2631,-7.2631,-7.2631,-7.2631,-7.2631,-7.2631,-7.2631,-7.2631,-7.243,-7.197,-7.0994,-6.9662,-6.8293,-6.7141,-6.6064,-6.5245,-6.4863,-6.4537,-6.431,-6.431,-6.431,-6.431,-6.431,-6.431,-9.673,-9.6307,-9.6093,-9.5749,-9.5254,-9.5233,-9.5031,-9.4863,-9.4863,-9.4828,-9.4863,-9.4863,-9.475,-9.4557,-9.4614,-9.45,-9.458,-9.4454,-9.3884,-9.2849,-9.1701,-9.0514,-8.9784,-8.825,-8.7192,-8.6046,-8.4603,-8.3274,-8.2441,-8.1697,-8.1117,-8.0632,-8.0182,-7.99,-7.9971,-8.0182,-8.0492,-8.101,-8.1628,-8.2239,-8.2744,-8.334,-8.4089,-8.4762,-8.5766,-8.6258,-8.6464,-8.6336,-8.6066,-8.5854,-8.5265,-8.4347,-8.3378,-8.2856,-8.2221,-8.1561,-8.1035,-8.0726,-8.0424,-8.0213,-7.9969,-7.9846,-7.9318,-7.8943,-7.8691,-7.7892,-7.7555,-7.7233,-7.6946,-7.6373,-7.5794,-7.5577,-7.5278,-7.492,-7.4731,-7.4525,-7.411,-7.3831,-7.3621,-7.348,-7.348,-7.3551,-7.348,-7.348,-7.348,-7.348,-7.334,-7.3128,-7.2986,-7.2844,-7.2844,-7.2844,-7.2844,-7.2915,-7.2915,-7.2844,-7.2773,-7.2702,-7.2631,-7.2602,-7.2071,-7.1482,-7.0263,-6.9019,-6.7781,-6.6829,-6.5991,-6.5235,-6.4881,-6.4609,-6.4337,-6.431,-6.4383,-6.431,-6.431,-9.7501,-9.6955,-9.673,-9.6254,-9.5858,-9.5804,-9.566,-9.5516,-9.5496,-9.5496,-9.5496,-9.5551,-9.5441,-9.531,-9.5275,-9.531,-9.5047,-9.4185,-9.3276,-9.2099,-9.0878,-8.9711,-8.8655,-8.7486,-8.6444,-8.569,-8.4411,-8.3142,-8.2073,-8.1354,-8.084,-8.0252,-8.0041,-8.0182,-8.0422,-8.0701,-8.1048,-8.1666,-8.2307,-8.2909,-8.324,-8.4057,-8.4953,-8.5828,-8.6623,-8.6984,-8.713,-8.6821,-8.6438,-8.6014,-8.5302,-8.4398,-8.3407,-8.2921,-8.2385,-8.189,-8.1617,-8.1322,-8.1025,-8.0726,-8.0485,-8.0303,-7.9814,-7.9727,-7.9636,-7.9099,-7.8834,-7.8808,-7.8328,-7.7524,-7.6538,-7.5979,-7.5677,-7.5565,-7.5414,-7.5278,-7.4976,-7.4456,-7.397,-7.3831,-7.3761,-7.3761,-7.3761,-7.397,-7.3901,-7.3761,-7.3691,-7.3551,-7.348,-7.334,-7.334,-7.334,-7.3269,-7.3269,-7.3199,-7.3128,-7.2986,-7.2844,-7.2773,-7.2702,-7.2401,-7.174,-7.0979,-6.9804,-6.8763,-6.782,-6.6996,-6.6164,-6.5517,-6.5227,-6.4954,-6.4664,-6.4383,-6.431,-6.431,-9.8283,-9.7567,-9.7282,-9.6939,-9.6535,-9.6516,-9.6514,-9.6618,-9.6549,-9.6545,-9.6375,-9.6375,-9.6248,-9.6147,-9.6093,-9.6166,-9.5519,-9.4207,-9.2823,-9.1981,-9.0547,-8.9443,-8.8413,-8.7315,-8.6024,-8.5016,-8.3831,-8.2646,-8.1734,-8.1117,-8.0492,-8.0041,-8.0111,-8.0422,-8.091,-8.1286,-8.1628,-8.2307,-8.2811,-8.334,-8.3668,-8.4635,-8.5642,-8.6623,-8.7163,-8.746,-8.7562,-8.7319,-8.6912,-8.6185,-8.5224,-8.4404,-8.3738,-8.2947,-8.2338,-8.2083,-8.2025,-8.185,-8.1558,-8.129,-8.1052,-8.0694,-8.0556,-8.0569,-8.0675,-8.0586,-8.0489,-8.025,-7.9809,-7.8789,-7.744,-7.672,-7.6197,-7.5984,-7.5954,-7.5954,-7.5789,-7.5074,-7.4594,-7.4318,-7.4456,-7.4564,-7.4456,-7.4525,-7.4248,-7.411,-7.404,-7.404,-7.397,-7.3901,-7.3831,-7.3691,-7.3621,-7.348,-7.348,-7.348,-7.334,-7.3199,-7.2986,-7.2844,-7.2702,-7.2272,-7.1611,-7.0865,-6.9833,-6.8887,-6.8015,-6.7235,-6.6595,-6.6111,-6.5518,-6.51,-6.4691,-6.441,-6.431,-9.8622,-9.8429,-9.7738,-9.7583,-9.7797,-9.7657,-9.7774,-9.8169,-9.81,-9.7802,-9.7264,-9.7175,-9.6742,-9.6393,-9.6201,-9.5887,-9.5208,-9.4109,-9.3269,-9.2602,-9.133,-9.0211,-8.8873,-8.7738,-8.616,-8.4186,-8.2979,-8.1974,-8.1186,-8.0462,-8.0252,-8.0111,-8.0562,-8.101,-8.1286,-8.1697,-8.2307,-8.2909,-8.3274,-8.3668,-8.4411,-8.5079,-8.5952,-8.7044,-8.767,-8.7962,-8.7969,-8.7753,-8.7306,-8.6912,-8.6185,-8.5591,-8.4917,-8.3759,-8.2945,-8.2494,-8.247,-8.233,-8.1967,-8.185,-8.1792,-8.1747,-8.1691,-8.1779,-8.1859,-8.1878,-8.192,-8.1789,-8.1165,-8.0048,-7.8451,-7.7496,-7.6806,-7.6337,-7.6185,-7.6155,-7.6088,-7.5856,-7.5685,-7.5617,-7.5587,-7.5452,-7.5316,-7.5248,-7.5248,-7.518,-7.5044,-7.4976,-7.4907,-7.4663,-7.4318,-7.411,-7.3901,-7.3831,-7.3761,-7.3761,-7.3691,-7.3691,-7.348,-7.3128,-7.2986,-7.2773,-7.2214,-7.1525,-7.0821,-6.9858,-6.9056,-6.8384,-6.7658,-6.709,-6.6312,-6.5536,-6.5127,-6.4818,-6.4437,-9.9096,-9.8849,-9.8575,-9.845,-9.8478,-9.8586,-9.8778,-9.8951,-9.8582,-9.8251,-9.7813,-9.7429,-9.7044,-9.673,-9.666,-9.6188,-9.5332,-9.4844,-9.4076,-9.3304,-9.233,-9.0889,-8.9358,-8.8162,-8.5786,-8.3632,-8.2244,-8.1529,-8.084,-8.0492,-8.0352,-8.0562,-8.091,-8.1354,-8.1938,-8.2508,-8.2975,-8.3471,-8.3895,-8.4347,-8.5111,-8.5675,-8.6595,-8.7315,-8.7904,-8.8252,-8.8314,-8.8003,-8.7745,-8.743,-8.669,-8.622,-8.5783,-8.5134,-8.4128,-8.3432,-8.3218,-8.2905,-8.2354,-8.2198,-8.2141,-8.2065,-8.2361,-8.2797,-8.31,-8.3321,-8.3314,-8.2749,-8.1853,-8.0629,-7.9188,-7.8305,-7.7582,-7.727,-7.7016,-7.7016,-7.7016,-7.7016,-7.695,-7.6818,-7.6488,-7.6191,-7.6191,-7.6191,-7.6324,-7.6258,-7.6057,-7.5923,-7.5856,-7.5519,-7.5112,-7.4976,-7.4839,-7.48,-7.4663,-7.4525,-7.4318,-7.4179,-7.3901,-7.3621,-7.3269,-7.2986,-7.2773,-7.23,-7.1525,-7.0791,-7.046,-6.9786,-6.8927,-6.8071,-6.7547,-6.6896,-6.5846,-6.5182,-6.4882,-9.9513,-9.9085,-9.9215,-9.9136,-9.9054,-9.9323,-9.9657,-9.9675,-9.9148,-9.8709,-9.8411,-9.7779,-9.727,-9.7147,-9.6955,-9.6536,-9.5593,-9.5523,-9.4861,-9.4092,-9.3167,-9.176,-9.0002,-8.7864,-8.5919,-8.3657,-8.2073,-8.1255,-8.0701,-8.0632,-8.091,-8.1255,-8.1423,-8.1938,-8.2811,-8.3208,-8.3634,-8.4089,-8.454,-8.5111,-8.5737,-8.6352,-8.717,-8.7728,-8.8078,-8.8367,-8.8609,-8.843,-8.8272,-8.8047,-8.7531,-8.6993,-8.687,-8.6645,-8.5938,-8.4826,-8.4422,-8.382,-8.3293,-8.307,-8.3021,-8.2683,-8.3093,-8.3625,-8.4031,-8.4254,-8.4319,-8.3383,-8.2206,-8.0903,-7.9759,-7.8812,-7.8276,-7.8021,-7.7957,-7.8085,-7.7957,-7.7861,-7.7797,-7.7538,-7.7212,-7.7081,-7.6985,-7.6985,-7.7116,-7.7147,-7.7016,-7.695,-7.6818,-7.6457,-7.6191,-7.6124,-7.599,-7.599,-7.5819,-7.5414,-7.5142,-7.48,-7.4456,-7.404,-7.3691,-7.3269,-7.3057,-7.2773,-7.2387,-7.1755,-7.151,-7.1135,-7.0145,-6.9386,-6.9016,-6.8261,-6.7152,-6.6249,-6.5755,-9.965,-9.9329,-9.8968,-9.9256,-9.9926,-9.983,-10.0414,-10.1149,-10.0447,-9.992,-9.9043,-9.8411,-9.7638,-9.7252,-9.7112,-9.6604,-9.6061,-9.568,-9.5489,-9.5053,-9.4198,-9.3121,-9.1555,-8.8667,-8.6596,-8.4432,-8.2629,-8.1286,-8.0979,-8.1117,-8.1461,-8.2005,-8.2611,-8.3142,-8.3571,-8.3993,-8.4347,-8.4667,-8.5079,-8.5675,-8.6413,-8.6749,-8.7315,-8.7904,-8.8194,-8.8482,-8.8903,-8.8869,-8.8869,-8.8869,-8.8835,-8.8599,-8.8407,-8.835,-8.772,-8.6798,-8.5945,-8.5159,-8.4705,-8.4457,-8.4259,-8.3821,-8.4134,-8.4379,-8.4682,-8.4773,-8.4683,-8.4167,-8.2759,-8.1429,-8.03,-7.9448,-7.8785,-7.8437,-7.831,-7.8246,-7.8213,-7.8405,-7.8341,-7.8341,-7.799,-7.7925,-7.7925,-7.7925,-7.7925,-7.7957,-7.7892,-7.7828,-7.7603,-7.7277,-7.705,-7.6919,-7.6853,-7.6788,-7.662,-7.6355,-7.5954,-7.555,-7.5006,-7.4525,-7.4179,-7.3761,-7.334,-7.3057,-7.2773,-7.2559,-7.2258,-7.1827,-7.1194,-7.0677,-7.0248,-6.9418,-6.8434,-6.7568,-6.6753,-9.9876,-9.9641,-9.9562,-9.9954,-10.0629,-10.0531,-10.0783,-10.1012,-10.0325,-9.9499,-9.8727,-9.7954,-9.7428,-9.7147,-9.7112,-9.6936,-9.6569,-9.6395,-9.6327,-9.6031,-9.5249,-9.4108,-9.2459,-9.0399,-8.8167,-8.5696,-8.4434,-8.3559,-8.2669,-8.2141,-8.2343,-8.2979,-8.3309,-8.3733,-8.4283,-8.4699,-8.5016,-8.5425,-8.5861,-8.6352,-8.6749,-8.705,-8.7467,-8.8136,-8.8194,-8.8539,-8.8993,-8.9106,-8.9106,-8.9106,-8.9106,-8.9072,-8.8903,-8.8813,-8.8531,-8.8012,-8.7562,-8.665,-8.5549,-8.5285,-8.497,-8.4937,-8.5119,-8.5523,-8.5465,-8.5064,-8.457,-8.3813,-8.2785,-8.1662,-8.0787,-8.0067,-7.9538,-7.91,-7.8817,-7.8722,-7.8659,-7.8659,-7.8722,-7.8786,-7.8722,-7.8659,-7.8596,-7.8532,-7.8469,-7.831,-7.8246,-7.8182,-7.8054,-7.7797,-7.7732,-7.7667,-7.7603,-7.7603,-7.7343,-7.7081,-7.6686,-7.6221,-7.555,-7.5074,-7.4663,-7.4248,-7.3831,-7.3621,-7.341,-7.3199,-7.2986,-7.2644,-7.2185,-7.1812,-7.141,-7.0621,-6.982,-6.9011,-6.8169,-10.0091,-9.9903,-9.9976,-10.0279,-10.0641,-10.0579,-10.057,-10.0536,-9.957,-9.8832,-9.82,-9.7533,-9.7147,-9.7112,-9.7112,-9.7077,-9.7077,-9.7112,-9.7008,-9.6642,-9.6059,-9.4986,-9.3384,-9.1673,-8.9495,-8.6914,-8.6243,-8.5567,-8.4957,-8.441,-8.4314,-8.4251,-8.4347,-8.4635,-8.5079,-8.5393,-8.5737,-8.6046,-8.6474,-8.681,-8.711,-8.7256,-8.7728,-8.8136,-8.8367,-8.8539,-8.905,-8.9106,-8.9106,-8.9106,-8.9106,-8.9072,-8.9072,-8.9016,-8.8959,-8.8599,-8.8384,-8.782,-8.6817,-8.6205,-8.5683,-8.56,-8.5699,-8.5964,-8.5674,-8.5101,-8.4398,-8.3629,-8.2793,-8.1869,-8.1155,-8.0545,-8.0152,-7.9784,-7.9537,-7.9412,-7.9225,-7.91,-7.9006,-7.8912,-7.8912,-7.8975,-7.8975,-7.9037,-7.8912,-7.8786,-7.8628,-7.8564,-7.8437,-7.8341,-7.8341,-7.8246,-7.8246,-7.8246,-7.799,-7.7732,-7.7408,-7.695,-7.6221,-7.5685,-7.5278,-7.48,-7.4387,-7.4179,-7.404,-7.397,-7.3831,-7.3551,-7.3269,-7.287,-7.2369,-7.1998,-7.1266,-7.0431,-6.9545,-10.0215,-10.0127,-9.9677,-9.9634,-9.9906,-9.9399,-9.9541,-9.9813,-9.8849,-9.8428,-9.8095,-9.7498,-9.7112,-9.7112,-9.7112,-9.7112,-9.7112,-9.7112,-9.706,-9.6852,-9.6414,-9.572,-9.4348,-9.2648,-9.0907,-9.0062,-8.8765,-8.7831,-8.743,-8.7102,-8.6503,-8.5834,-8.5642,-8.589,-8.6042,-8.6221,-8.6371,-8.6579,-8.6726,-8.7031,-8.736,-8.7629,-8.7862,-8.8358,-8.8563,-8.8733,-8.9072,-8.9106,-8.9106,-8.9106,-8.9106,-8.9106,-8.9106,-8.9106,-8.9016,-8.8959,-8.879,-8.8384,-8.7864,-8.7395,-8.7012,-8.6446,-8.6155,-8.6081,-8.5658,-8.5268,-8.4532,-8.3606,-8.2822,-8.2047,-8.1381,-8.0933,-8.0666,-8.0303,-7.9969,-7.9661,-7.9475,-7.9288,-7.9194,-7.9132,-7.91,-7.91,-7.91,-7.91,-7.91,-7.8912,-7.8912,-7.8849,-7.8912,-7.8786,-7.8849,-7.8912,-7.8912,-7.8849,-7.8564,-7.831,-7.7925,-7.7473,-7.6818,-7.6355,-7.6021,-7.5482,-7.4937,-7.48,-7.4731,-7.4731,-7.4663,-7.4525,-7.4248,-7.3831,-7.3392,-7.3064,-7.254,-7.1712,-7.0801,-10.0311,-10.0135,-9.9786,-9.9899,-10.0279,-9.975,-9.9484,-9.9294,-9.8774,-9.8145,-9.7568,-9.7252,-9.7112,-9.7112,-9.7112,-9.7112,-9.7112,-9.7112,-9.7112,-9.7008,-9.666,-9.6254,-9.5254,-9.4326,-9.3131,-9.2145,-9.0906,-8.9847,-8.8972,-8.9115,-8.8705,-8.7954,-8.7104,-8.6924,-8.7038,-8.6884,-8.6895,-8.6788,-8.6613,-8.6654,-8.7203,-8.7385,-8.7692,-8.8529,-8.8586,-8.879,-8.9016,-8.9106,-8.9106,-8.9106,-8.9106,-8.9106,-8.9106,-8.9106,-8.9106,-8.9106,-8.8959,-8.8847,-8.862,-8.8219,-8.7795,-8.7537,-8.7045,-8.6496,-8.5923,-8.5292,-8.4555,-8.3696,-8.2971,-8.2198,-8.1992,-8.1525,-8.1144,-8.0726,-8.0364,-8.003,-7.9722,-7.9537,-7.9288,-7.9225,-7.9163,-7.91,-7.91,-7.91,-7.91,-7.91,-7.91,-7.91,-7.91,-7.91,-7.91,-7.91,-7.91,-7.91,-7.8849,-7.8628,-7.8437,-7.7925,-7.7408,-7.7081,-7.662,-7.6051,-7.5617,-7.5482,-7.5482,-7.5519,-7.5519,-7.555,-7.5278,-7.4839,-7.4495,-7.4229,-7.3672,-7.2999,-7.2215,-10.0442,-10.0267,-10.0046,-10.0065,-10.0259,-9.9731,-9.9296,-9.8938,-9.8485,-9.7932,-9.7112,-9.7112,-9.7112,-9.7112,-9.7112,-9.7112,-9.7112,-9.7112,-9.7112,-9.7008,-9.6904,-9.6607,-9.6289,-9.5596,-9.4558,-9.3631,-9.3077,-9.2146,-9.0437,-9.0549,-9.0052,-8.9275,-8.8586,-8.8243,-8.7762,-8.7434,-8.7089,-8.6922,-8.6487,-8.6443,-8.7103,-8.7294,-8.7743,-8.8599,-8.879,-8.8847,-8.9016,-8.9106,-8.9106,-8.9106,-8.9106,-8.9106,-8.9106,-8.9106,-8.9106,-8.9106,-8.9072,-8.8959,-8.8733,-8.8425,-8.8194,-8.7969,-8.7735,-8.7161,-8.6478,-8.5464,-8.4727,-8.3943,-8.3119,-8.2543,-8.2452,-8.1992,-8.1584,-8.1171,-8.0814,-8.0485,-8.012,-7.9846,-7.9599,-7.935,-7.9288,-7.9225,-7.91,-7.91,-7.91,-7.91,-7.91,-7.91,-7.91,-7.91,-7.91,-7.91,-7.91,-7.91,-7.9037,-7.8912,-7.8722,-7.8437,-7.799,-7.7667,-7.7277,-7.6686,-7.6421,-7.6488,-7.6457,-7.6391,-7.6457,-7.6589,-7.6258,-7.5789,-7.5557,-7.5286,-7.474,-7.405,-7.3632,-10.0492,-10.0449,-10.0267,-10.0046,-9.9849,-9.9038,-9.8741,-9.8655,-9.798,-9.749,-9.7215,-9.7163,-9.7163,-9.7163,-9.7163,-9.7163,-9.7112,-9.7112,-9.7112,-9.706,-9.7112,-9.6904,-9.6607,-9.6116,-9.5486,-9.473,-9.4079,-9.3192,-9.1756,-9.154,-9.1074,-9.0466,-8.9737,-8.924,-8.8519,-8.7629,-8.718,-8.7046,-8.6443,-8.6713,-8.7318,-8.7543,-8.8116,-8.8734,-8.9016,-8.9016,-8.9072,-8.9106,-8.9106,-8.9106,-8.9106,-8.9106,-8.9106,-8.9106,-8.9106,-8.9106,-8.9106,-8.9072,-8.905,-8.8539,-8.8367,-8.831,-8.819,-8.7792,-8.6778,-8.5863,-8.505,-8.4332,-8.3356,-8.2779,-8.2543,-8.2338,-8.1934,-8.1643,-8.129,-8.0874,-8.0545,-8.0303,-8.0059,-7.9661,-7.9537,-7.9475,-7.9225,-7.91,-7.91,-7.91,-7.91,-7.91,-7.91,-7.91,-7.91,-7.91,-7.91,-7.91,-7.91,-7.91,-7.8975,-7.8691,-7.8437,-7.8118,-7.7925,-7.7538,-7.7408,-7.7377,-7.7312,-7.7116,-7.7473,-7.7732,-7.7312,-7.6853,-7.6589,-7.6258,-7.5722,-7.518,-7.474,-10.0876,-10.0707,-10.0492,-10.0355,-10.0187,-9.9696,-9.919,-9.8622,-9.8086,-9.7688,-9.7673,-9.7623,-9.7486,-9.742,-9.7317,-9.7266,-9.7112,-9.7112,-9.7112,-9.7112,-9.7231,-9.693,-9.6582,-9.6336,-9.5899,-9.5133,-9.4546,-9.3938,-9.2703,-9.2374,-9.1766,-9.1159,-9.0475,-8.9901,-8.9126,-8.8284,-8.7711,-8.7576,-8.7138,-8.7024,-8.7721,-8.7856,-8.8216,-8.9038,-8.9106,-8.9106,-8.9106,-8.9106,-8.9106,-8.9106,-8.9106,-8.9106,-8.9106,-8.9106,-8.9106,-8.9106,-8.9106,-8.9106,-8.9072,-8.8847,-8.879,-8.8767,-8.8677,-8.8405,-8.7668,-8.6507,-8.5587,-8.4646,-8.357,-8.3025,-8.277,-8.2485,-8.2223,-8.2108,-8.1818,-8.1349,-8.0993,-8.0814,-8.0573,-8.0091,-7.9784,-7.9475,-7.9225,-7.91,-7.91,-7.91,-7.91,-7.91,-7.91,-7.91,-7.91,-7.91,-7.91,-7.91,-7.91,-7.91,-7.91,-7.8912,-7.8691,-7.8501,-7.8246,-7.8118,-7.799,-7.7925,-7.7925,-7.7925,-7.8054,-7.8182,-7.8246,-7.799,-7.7507,-7.7116,-7.6589,-7.6191,-7.5856,-10.1085,-10.0918,-10.0707,-10.0621,-10.0535,-10.0054,-9.9421,-9.8813,-9.8429,-9.8234,-9.8072,-9.8023,-9.7888,-9.7688,-9.7537,-9.7435,-9.718,-9.7112,-9.7215,-9.7144,-9.7067,-9.6816,-9.6578,-9.6268,-9.559,-9.5011,-9.4616,-9.4066,-9.3095,-9.2795,-9.2196,-9.1421,-9.0847,-9.0388,-8.9662,-8.8926,-8.8045,-8.7786,-8.7359,-8.719,-8.7731,-8.8091,-8.8361,-8.8869,-8.9106,-8.9106,-8.9106,-8.9106,-8.9106,-8.9106,-8.9106,-8.9106,-8.9106,-8.9106,-8.9106,-8.9106,-8.9106,-8.9106,-8.9072,-8.9072,-8.9016,-8.905,-8.9072,-8.888,-8.8213,-8.6958,-8.6015,-8.5007,-8.3816,-8.3205,-8.2883,-8.26,-8.2543,-8.2395,-8.2223,-8.1759,-8.1525,-8.129,-8.0993,-8.0485,-8.0091,-7.9722,-7.935,-7.9163,-7.91,-7.91,-7.91,-7.91,-7.91,-7.91,-7.91,-7.91,-7.91,-7.91,-7.91,-7.91,-7.91,-7.91,-7.8912,-7.8691,-7.8722,-7.8596,-7.8532,-7.8469,-7.8469,-7.8469,-7.8532,-7.8564,-7.8596,-7.8596,-7.8374,-7.7925,-7.7473,-7.7147,-7.6788,-10.1209,-10.1168,-10.0923,-10.0797,-10.0713,-10.0151,-9.9605,-9.9061,-9.9014,-9.873,-9.8332,-9.8416,-9.8234,-9.7938,-9.7688,-9.7587,-9.7486,-9.7317,-9.7369,-9.7274,-9.6952,-9.6713,-9.6366,-9.5932,-9.5332,-9.474,-9.436,-9.4077,-9.3274,-9.2716,-9.2185,-9.1727,-9.1178,-9.0812,-9.0201,-8.9517,-8.8633,-8.8278,-8.782,-8.7786,-8.8158,-8.8192,-8.8531,-8.8937,-8.9106,-8.9106,-8.9106,-8.9106,-8.9106,-8.9106,-8.9106,-8.9106,-8.9106,-8.9106,-8.9106,-8.9106,-8.9106,-8.9106,-8.9106,-8.9106,-8.9106,-8.9072,-8.8937,-8.8836,-8.8205,-8.7094,-8.6051,-8.5077,-8.3985,-8.3384,-8.294,-8.2827,-8.2713,-8.26,-8.2452,-8.2165,-8.1967,-8.1701,-8.1408,-8.0993,-8.0606,-8.0181,-7.9722,-7.9412,-7.9257,-7.9163,-7.9163,-7.91,-7.91,-7.91,-7.91,-7.91,-7.91,-7.91,-7.91,-7.91,-7.91,-7.91,-7.91,-7.8975,-7.8975,-7.8975,-7.8849,-7.8786,-7.8975,-7.8975,-7.8849,-7.8912,-7.8975,-7.8912,-7.8786,-7.8532,-7.799,-7.7925,-7.7732,-10.1413,-10.1372,-10.1168,-10.1085,-10.1043,-10.067,-10.0151,-9.9569,-9.9339,-9.919,-9.9096,-9.9061,-9.8777,-9.8477,-9.838,-9.8136,-9.7888,-9.7738,-9.7738,-9.747,-9.6981,-9.6729,-9.6281,-9.5722,-9.5158,-9.4703,-9.4408,-9.4189,-9.3662,-9.2941,-9.2456,-9.211,-9.1641,-9.1282,-9.0848,-9.0307,-8.9668,-8.913,-8.8583,-8.8574,-8.8654,-8.8722,-8.8959,-8.906,-8.9106,-8.9106,-8.9106,-8.9106,-8.9106,-8.9106,-8.9106,-8.9106,-8.9106,-8.9106,-8.9106,-8.9106,-8.9106,-8.9106,-8.9106,-8.9106,-8.9038,-8.8903,-8.8632,-8.816,-8.7655,-8.6881,-8.5907,-8.4969,-8.411,-8.3499,-8.3165,-8.3052,-8.294,-8.2827,-8.2713,-8.26,-8.2371,-8.2141,-8.1759,-8.1349,-8.0966,-8.0485,-8.003,-7.9661,-7.9506,-7.9444,-7.932,-7.9194,-7.9132,-7.9132,-7.91,-7.91,-7.91,-7.91,-7.91,-7.91,-7.91,-7.91,-7.91,-7.91,-7.9037,-7.9037,-7.91,-7.91,-7.91,-7.91,-7.9037,-7.91,-7.91,-7.91,-7.8975,-7.8786,-7.8596,-7.8532,-7.831,-10.1971,-10.1971,-10.1849,-10.158,-10.1204,-10.1043,-10.0627,-10.0195,-9.9929,-9.9831,-9.966,-9.9605,-9.9375,-9.9002,-9.8861,-9.8574,-9.8234,-9.8051,-9.7895,-9.7377,-9.7087,-9.6459,-9.5954,-9.5467,-9.4993,-9.4731,-9.4543,-9.4437,-9.405,-9.3509,-9.2989,-9.254,-9.218,-9.1778,-9.1334,-9.0935,-9.0513,-8.9996,-8.9669,-8.9407,-8.9295,-8.924,-8.9184,-8.9128,-8.9128,-8.9162,-8.9128,-8.9128,-8.9162,-8.9162,-8.9106,-8.9106,-8.9106,-8.9106,-8.9106,-8.9106,-8.9106,-8.9106,-8.9106,-8.9106,-8.8937,-8.8632,-8.8226,-8.7608,-8.7012,-8.6261,-8.567,-8.4957,-8.4243,-8.3609,-8.3388,-8.322,-8.3165,-8.3052,-8.2996,-8.294,-8.2713,-8.2485,-8.2141,-8.1734,-8.1263,-8.0786,-8.0364,-8.003,-7.9816,-7.9722,-7.9599,-7.9444,-7.932,-7.9194,-7.9132,-7.91,-7.91,-7.91,-7.91,-7.91,-7.91,-7.91,-7.91,-7.91,-7.91,-7.91,-7.91,-7.91,-7.91,-7.91,-7.91,-7.91,-7.91,-7.91,-7.91,-7.8975,-7.8849,-7.8849,-7.8659,-10.2815,-10.2819,-10.2746,-10.2151,-10.1364,-10.1291,-10.1126,-10.0839,-10.0664,-10.0406,-10.0151,-9.9965,-9.9741,-9.9467,-9.9247,-9.9002,-9.8765,-9.8574,-9.8098,-9.7206,-9.685,-9.6332,-9.5737,-9.5054,-9.4979,-9.4835,-9.4755,-9.4763,-9.4587,-9.405,-9.3404,-9.2964,-9.2589,-9.2245,-9.1895,-9.1385,-9.1022,-9.0812,-9.0388,-9.0099,-8.9628,-8.9517,-8.9407,-8.924,-8.924,-8.9184,-8.9184,-8.9184,-8.9218,-8.9218,-8.9128,-8.9184,-8.9072,-8.9106,-8.9106,-8.9106,-8.9106,-8.9106,-8.9004,-8.8937,-8.8564,-8.8226,-8.7854,-8.711,-8.6379,-8.602,-8.5532,-8.4909,-8.4195,-8.3829,-8.3665,-8.3554,-8.3443,-8.3276,-8.3165,-8.3052,-8.2827,-8.26,-8.2313,-8.1909,-8.1617,-8.1204,-8.1025,-8.0726,-8.0303,-8.0152,-7.9784,-7.963,-7.9444,-7.932,-7.9194,-7.91,-7.91,-7.91,-7.91,-7.91,-7.91,-7.91,-7.91,-7.91,-7.91,-7.91,-7.91,-7.91,-7.91,-7.91,-7.91,-7.91,-7.91,-7.91,-7.91,-7.91,-7.9037,-7.9037,-7.8912,-10.3705,-10.3871,-10.3441,-10.2704,-10.1928,-10.1891,-10.1773,-10.1574,-10.1372,-10.1043,-10.0627,-10.0406,-10.0187,-9.9929,-9.9705,-9.9513,-9.9283,-9.8964,-9.8605,-9.7806,-9.7109,-9.6303,-9.5958,-9.5253,-9.5094,-9.5187,-9.5229,-9.5101,-9.4806,-9.4366,-9.3949,-9.3673,-9.3167,-9.2722,-9.2393,-9.1844,-9.1625,-9.1437,-9.1213,-9.0688,-9.0099,-8.9935,-8.9826,-8.9737,-8.9683,-8.9614,-8.9614,-8.9648,-8.9771,-8.9771,-8.9551,-8.9351,-8.9128,-8.9128,-8.9106,-8.9106,-8.9072,-8.9072,-8.8869,-8.8598,-8.8158,-8.7617,-8.711,-8.6399,-8.5892,-8.5824,-8.5446,-8.4811,-8.4325,-8.4081,-8.3939,-8.3829,-8.372,-8.3554,-8.3299,-8.3108,-8.294,-8.2656,-8.2428,-8.2198,-8.1967,-8.1792,-8.1584,-8.129,-8.0933,-8.0485,-7.9907,-7.9599,-7.9475,-7.935,-7.9163,-7.91,-7.91,-7.91,-7.91,-7.91,-7.91,-7.91,-7.91,-7.91,-7.91,-7.91,-7.91,-7.91,-7.91,-7.91,-7.91,-7.91,-7.91,-7.91,-7.91,-7.91,-7.91,-7.9037,-7.9037,-10.4534,-10.4292,-10.3303,-10.2566,-10.216,-10.2123,-10.2046,-10.193,-10.1734,-10.1494,-10.1209,-10.0797,-10.0542,-10.0413,-10.0282,-10.001,-9.9678,-9.9308,-9.8434,-9.7705,-9.7075,-9.6255,-9.5701,-9.5361,-9.5302,-9.5398,-9.5398,-9.5235,-9.4979,-9.4719,-9.4366,-9.4041,-9.3533,-9.3155,-9.2784,-9.2442,-9.223,-9.1995,-9.1879,-9.1368,-9.0688,-9.0494,-8.9933,-8.9791,-8.9512,-8.9477,-8.9477,-8.9512,-8.9717,-8.9833,-8.9771,-8.9606,-8.9351,-8.9295,-8.9184,-8.9128,-8.9038,-8.8937,-8.8598,-8.8158,-8.7651,-8.6974,-8.6501,-8.5824,-8.5249,-8.5148,-8.5114,-8.4527,-8.4494,-8.4285,-8.4285,-8.4265,-8.4102,-8.3939,-8.3665,-8.3388,-8.3108,-8.277,-8.2656,-8.26,-8.2371,-8.2108,-8.1992,-8.1792,-8.1408,-8.1112,-8.0485,-7.9969,-7.9784,-7.9475,-7.9288,-7.9163,-7.91,-7.91,-7.91,-7.91,-7.91,-7.91,-7.91,-7.91,-7.91,-7.91,-7.91,-7.91,-7.91,-7.91,-7.91,-7.91,-7.91,-7.91,-7.91,-7.91,-7.91,-7.91,-7.91,-10.5251,-10.4452,-10.3013,-10.2274,-10.22,-10.22,-10.2161,-10.2123,-10.1969,-10.1852,-10.1773,-10.1213,-10.0965,-10.0839,-10.0797,-10.0499,-10.0101,-9.9506,-9.8447,-9.752,-9.6726,-9.6126,-9.5706,-9.5314,-9.5362,-9.5446,-9.5488,-9.5362,-9.5151,-9.4979,-9.4719,-9.4231,-9.3959,-9.3776,-9.331,-9.288,-9.2554,-9.2491,-9.2294,-9.198,-9.159,-9.1126,-9.0208,-8.9408,-8.8886,-8.8852,-8.8852,-8.9008,-8.9316,-8.9488,-8.9659,-8.9301,-8.9103,-8.8905,-8.8808,-8.8719,-8.8596,-8.8337,-8.7955,-8.7583,-8.6873,-8.6196,-8.5858,-8.5384,-8.4809,-8.4674,-8.4621,-8.4587,-8.4587,-8.4553,-8.4553,-8.45,-8.4372,-8.4156,-8.3829,-8.3499,-8.3165,-8.2883,-8.2883,-8.2827,-8.2713,-8.2452,-8.2371,-8.2198,-8.1909,-8.1584,-8.1204,-8.0726,-8.0274,-7.9784,-7.9412,-7.9288,-7.9163,-7.9163,-7.91,-7.91,-7.91,-7.91,-7.91,-7.91,-7.91,-7.91,-7.91,-7.91,-7.91,-7.91,-7.91,-7.91,-7.91,-7.9194,-7.91,-7.91,-7.91,-7.91,-7.91,-10.6007,-10.4796,-10.3947,-10.3242,-10.2612,-10.2538,-10.2464,-10.2351,-10.2313,-10.22,-10.2046,-10.1893,-10.1617,-10.1126,-10.0881,-10.0713,-10.0567,-9.9754,-9.8989,-9.8183,-9.6986,-9.6219,-9.5747,-9.5488,-9.5529,-9.5612,-9.5736,-9.5736,-9.5529,-9.5398,-9.5151,-9.4806,-9.4366,-9.4141,-9.3868,-9.3497,-9.3227,-9.3037,-9.2928,-9.2735,-9.2147,-9.1506,-9.0635,-9.0015,-8.9549,-8.9341,-8.9202,-8.9202,-8.9306,-8.9274,-8.9139,-8.874,-8.8491,-8.8345,-8.8238,-8.8123,-8.7946,-8.7634,-8.7308,-8.6881,-8.6169,-8.5757,-8.5384,-8.4979,-8.464,-8.464,-8.464,-8.464,-8.4553,-8.4553,-8.4553,-8.4553,-8.448,-8.4102,-8.3775,-8.3388,-8.3029,-8.294,-8.2883,-8.2883,-8.2827,-8.2713,-8.2713,-8.2485,-8.2256,-8.1876,-8.1408,-8.0966,-8.0545,-8.0059,-7.9599,-7.9412,-7.9288,-7.9163,-7.91,-7.91,-7.91,-7.91,-7.91,-7.91,-7.91,-7.91,-7.91,-7.91,-7.91,-7.91,-7.91,-7.9225,-7.9257,-7.9257,-7.9194,-7.91,-7.91,-7.91,-7.91]},{"header":{"parameterUnit":"m.s-1","parameterCategory":1,"la1":31.0,"la2":29.5877,"lo1":-88.7671,"lo2":-86.6584,"dx":0.0162,"dy":0.0185,"nx":115,"ny":88,"refTime":"2022-11-26T18:00:00:Z","depth":0,"parameterNumber":3,"parameterNumberName":"V-component_of_WINDS"},"data":[0.0,0.0,0.0,0.0,0.0,0.0,0.0,0.0,0.0,0.0,0.0,0.0,0.0,0.0,0.0,0.0,0.0,0.0,0.0,0.0,0.0,0.0,0.0,0.0,0.0,0.0,0.0,0.0,0.0,0.0,0.0,0.0,0.0,0.0,0.0,0.0,0.0,0.0,0.0,0.0,0.0,0.0,0.0,0.0,0.0,0.0,0.0,0.0,0.0,0.0,0.0,0.0,0.0,0.0,0.0,0.0,0.0,0.0,0.0,0.0,0.0,0.0,0.0,0.0,0.0,0.0,0.0,0.0,0.0,0.0,0.0,0.0,0.0,0.0,0.0,0.0,0.0,0.0,0.0,0.0,0.0,0.0,0.0,0.0,0.0,0.0,0.0,0.0,0.0,0.0,0.0,0.0,0.0,0.0,0.0,0.0,0.0,0.0,0.0,0.0,0.0,0.0,0.0,0.0,0.0,0.0,0.0,0.0,0.0,0.0,0.0,0.0,0.0,0.0,0.0,0.0,0.0,0.0,0.0,0.0,0.0,0.0,0.0,0.0,0.0,0.0,0.0,0.0,0.0,0.0,0.0,0.0,0.0,0.0,0.0,0.0,0.0,0.0,0.0,0.0,0.0,0.0,0.0,0.0,0.0,0.0,0.0,0.0,0.0,0.0,0.0,0.0,0.0,0.0,0.0,0.0,0.0,0.0,0.0,0.0,0.0,0.0,0.0,0.0,0.0,0.0,0.0,0.0,0.0,0.0,0.0,0.0,0.0,0.0,0.0,0.0,0.0,0.0,0.0,0.0,0.0,0.0,0.0,0.0,0.0,0.0,0.0,0.0,0.0,0.0,0.0,0.0,0.0,0.0,0.0,0.0,0.0,0.0,0.0,0.0,0.0,0.0,0.0,0.0,0.0,0.0,0.0,0.0,0.0,0.0,0.0,0.0,0.0,0.0,0.0,0.0,0.0,0.0,0.0,0.0,0.0,0.0,0.0,0.0,0.0,0.0,0.0,0.0,0.0,0.0,0.0,0.0,0.0,0.0,0.0,0.0,0.0,0.0,0.0,0.0,0.0,0.0,0.0,0.0,0.0,0.0,0.0,0.0,0.0,0.0,0.0,0.0,0.0,0.0,0.0,0.0,0.0,0.0,0.0,0.0,0.0,0.0,0.0,0.0,0.0,0.0,0.0,0.0,0.0,0.0,0.0,0.0,0.0,0.0,0.0,0.0,0.0,0.0,0.0,0.0,0.0,0.0,0.0,0.0,0.0,0.0,0.0,0.0,0.0,0.0,0.0,0.0,0.0,0.0,0.0,0.0,0.0,0.0,0.0,0.0,0.0,0.0,0.0,0.0,0.0,0.0,0.0,0.0,0.0,0.0,0.0,0.0,0.0,0.0,0.0,0.0,0.0,0.0,0.0,0.0,0.0,0.0,0.0,0.0,0.0,0.0,0.0,0.0,0.0,0.0,0.0,0.0,0.0,0.0,0.0,0.0,0.0,0.0,0.0,0.0,0.0,0.0,0.0,0.0,0.0,0.0,0.0,0.0,0.0,0.0,0.0,0.0,0.0,0.0,0.0,0.0,0.0,0.0,0.0,0.0,0.0,0.0,0.0,0.0,0.0,0.0,0.0,0.0,0.0,0.0,0.0,0.0,0.0,0.0,0.0,0.0,0.0,0.0,0.0,0.0,0.0,0.0,0.0,0.0,0.0,0.0,0.0,0.0,0.0,0.0,0.0,0.0,0.0,0.0,0.0,0.0,0.0,0.0,0.0,0.0,0.0,0.0,0.0,0.0,0.0,0.0,0.0,0.0,0.0,0.0,0.0,0.0,0.0,0.0,0.0,0.0,0.0,0.0,0.0,0.0,0.0,0.0,0.0,0.0,0.0,0.0,0.0,0.0,0.0,0.0,0.0,0.0,0.0,0.0,0.0,0.0,0.0,0.0,0.0,0.0,0.0,0.0,0.0,0.0,0.0,0.0,0.0,0.0,0.0,0.0,0.0,0.0,0.0,0.0,0.0,0.0,0.0,0.0,0.0,0.0,0.0,0.0,0.0,0.0,0.0,0.0,0.0,0.0,0.0,0.0,0.0,0.0,0.0,0.0,0.0,0.0,0.0,0.0,0.0,0.0,0.0,0.0,0.0,0.0,0.0,0.0,0.0,0.0,0.0,0.0,0.0,0.0,0.0,0.0,0.0,0.0,0.0,0.0,0.0,0.0,0.0,0.0,0.0,0.0,0.0,0.0,0.0,0.0,0.0,0.0,0.0,0.0,0.0,0.0,0.0,0.0,0.0,0.0,0.0,0.0,0.0,0.0,0.0,0.0,0.0,0.0,0.0,0.0,0.0,0.0,0.0,0.0,0.0,0.0,0.0,0.0,0.0,0.0,0.0,0.0,0.0,0.0,0.0,0.0,0.0,0.0,0.0,0.0,0.0,0.0,0.0,0.0,0.0,0.0,0.0,0.0,0.0,0.0,0.0,0.0,0.0,0.0,0.0,0.0,0.0,0.0,0.0,0.0,0.0,0.0,0.0,0.0,0.0,0.0,0.0,0.0,0.0,0.0,0.0,0.0,0.0,0.0,0.0,0.0,0.0,0.0,0.0,0.0,0.0,0.0,0.0,0.0,0.0,0.0,0.0,0.0,0.0,0.0,0.0,0.0,0.0,0.0,0.0,0.0,0.0,0.0,0.0,0.0,0.0,0.0,0.0,0.0,0.0,0.0,0.0,0.0,0.0,0.0,0.0,0.0,0.0,0.0,0.0,0.0,0.0,0.0,0.0,0.0,0.0,0.0,0.0,0.0,0.0,0.0,0.0,0.0,0.0,0.0,0.0,0.0,0.0,0.0,0.0,0.0,0.0,0.0,0.0,0.0,0.0,0.0,0.0,0.0,0.0,0.0,0.0,0.0,0.0,0.0,0.0,0.0,0.0,0.0,0.0,0.0,0.0,0.0,0.0,0.0,0.0,0.0,0.0,0.0,0.0,0.0,0.0,0.0,0.0,0.0,0.0,0.0,0.0,0.0,0.0,0.0,0.0,0.0,0.0,0.0,0.0,0.0,0.0,0.0,0.0,0.0,0.0,0.0,0.0,0.0,0.0,0.0,0.0,0.0,0.0,0.0,0.0,0.0,0.0,0.0,0.0,0.0,0.0,0.0,0.0,0.0,0.0,0.0,0.0,0.0,0.0,0.0,0.0,0.0,0.0,0.0,0.0,0.0,0.0,0.0,0.0,0.0,0.0,0.0,0.0,0.0,0.0,0.0,0.0,0.0,0.0,0.0,0.0,0.0,0.0,0.0,0.0,0.0,0.0,0.0,0.0,0.0,0.0,0.0,0.0,0.0,0.0,0.0,0.0,0.0,0.0,0.0,0.0,0.0,0.0,0.0,0.0,0.0,0.0,0.0,0.0,0.0,0.0,0.0,0.0,0.0,0.0,0.0,0.0,0.0,0.0,0.0,0.0,0.0,0.0,0.0,0.0,0.0,0.0,0.0,0.0,0.0,0.0,0.0,0.0,0.0,0.0,0.0,0.0,0.0,0.0,0.0,0.0,0.0,0.0,0.0,0.0,0.0,0.0,0.0,0.0,0.0,0.0,0.0,0.0,0.0,0.0,0.0,0.0,0.0,0.0,0.0,0.0,0.0,0.0,0.0,0.0,0.0,0.0,0.0,0.0,0.0,0.0,0.0,0.0,0.0,0.0,0.0,0.0,0.0,0.0,0.0,0.0,0.0,0.0,0.0,0.0,0.0,0.0,0.0,0.0,0.0,0.0,0.0,0.0,0.0,0.0,0.0,0.0,0.0,0.0,0.0,0.0,0.0,0.0,0.0,0.0,0.0,0.0,0.0,0.0,0.0,0.0,0.0,0.0,0.0,0.0,0.0,0.0,0.0,0.0,0.0,0.0,0.0,0.0,0.0,0.0,0.0,0.0,0.0,0.0,0.0,0.0,0.0,0.0,0.0,0.0,0.0,0.0,0.0,0.0,0.0,0.0,0.0,0.0,0.0,0.0,0.0,0.0,0.0,0.0,0.0,0.0,0.0,0.0,0.0,0.0,0.0,0.0,0.0,0.0,0.0,0.0,0.0,0.0,0.0,0.0,0.0,0.0,0.0,0.0,0.0,0.0,0.0,0.0,0.0,0.0,0.0,0.0,0.0,0.0,0.0,0.0,0.0,0.0,0.0,0.0,0.0,0.0,0.0,0.0,0.0,0.0,0.0,0.0,0.0,0.0,0.0,0.0,0.0,0.0,0.0,0.0,0.0,4.462,0.0,0.0,0.0,4.4303,0.0,0.0,0.0,0.0,0.0,0.0,0.0,0.0,0.0,0.0,0.0,0.0,0.0,0.0,0.0,0.0,0.0,0.0,0.0,0.0,0.0,0.0,0.0,0.0,0.0,0.0,0.0,0.0,0.0,0.0,0.0,0.0,0.0,0.0,0.0,0.0,0.0,0.0,0.0,0.0,0.0,0.0,0.0,0.0,0.0,0.0,0.0,0.0,0.0,0.0,0.0,0.0,0.0,0.0,0.0,0.0,0.0,0.0,0.0,0.0,0.0,0.0,0.0,0.0,0.0,0.0,0.0,0.0,0.0,0.0,0.0,0.0,0.0,0.0,0.0,0.0,0.0,0.0,0.0,0.0,0.0,0.0,0.0,0.0,0.0,0.0,0.0,0.0,0.0,0.0,0.0,0.0,0.0,0.0,0.0,0.0,0.0,0.0,0.0,0.0,0.0,0.0,0.0,0.0,0.0,0.0,0.0,0.0,0.0,0.0,4.5134,4.5001,4.4394,4.4165,4.435,0.0,0.0,0.0,0.0,0.0,0.0,0.0,0.0,0.0,0.0,0.0,0.0,0.0,0.0,0.0,0.0,0.0,0.0,0.0,0.0,0.0,0.0,0.0,0.0,0.0,0.0,0.0,0.0,0.0,0.0,0.0,0.0,0.0,0.0,0.0,0.0,0.0,0.0,0.0,0.0,0.0,0.0,0.0,0.0,0.0,0.0,0.0,0.0,0.0,0.0,0.0,0.0,0.0,0.0,0.0,0.0,0.0,0.0,0.0,0.0,0.0,0.0,0.0,0.0,0.0,0.0,0.0,0.0,0.0,0.0,0.0,0.0,0.0,0.0,0.0,0.0,0.0,0.0,0.0,0.0,0.0,0.0,0.0,0.0,0.0,0.0,0.0,0.0,0.0,0.0,0.0,0.0,0.0,0.0,0.0,0.0,0.0,0.0,0.0,0.0,0.0,0.0,0.0,0.0,0.0,0.0,0.0,0.0,0.0,0.0,0.0,0.0,4.4891,4.4442,4.435,0.0,0.0,0.0,0.0,0.0,0.0,0.0,0.0,0.0,0.0,0.0,0.0,0.0,0.0,0.0,0.0,0.0,0.0,0.0,0.0,0.0,0.0,0.0,0.0,0.0,0.0,0.0,0.0,0.0,0.0,0.0,0.0,0.0,0.0,0.0,0.0,0.0,0.0,0.0,0.0,0.0,0.0,0.0,0.0,0.0,0.0,0.0,0.0,0.0,0.0,0.0,0.0,0.0,0.0,0.0,0.0,0.0,0.0,0.0,0.0,0.0,0.0,0.0,0.0,0.0,0.0,0.0,0.0,0.0,0.0,0.0,0.0,0.0,0.0,0.0,0.0,0.0,0.0,0.0,0.0,0.0,0.0,0.0,0.0,0.0,0.0,0.0,0.0,0.0,0.0,0.0,0.0,0.0,0.0,0.0,0.0,0.0,0.0,0.0,0.0,0.0,0.0,0.0,0.0,0.0,0.0,0.0,0.0,0.0,0.0,4.5816,4.6293,4.5112,0.0,4.435,0.0,0.0,0.0,0.0,0.0,0.0,0.0,0.0,0.0,0.0,0.0,0.0,0.0,0.0,0.0,0.0,0.0,0.0,0.0,0.0,0.0,0.0,0.0,0.0,0.0,0.0,0.0,0.0,0.0,0.0,0.0,0.0,0.0,0.0,0.0,0.0,0.0,0.0,0.0,0.0,0.0,0.0,0.0,0.0,0.0,0.0,0.0,0.0,0.0,0.0,0.0,0.0,0.0,0.0,0.0,0.0,0.0,0.0,0.0,0.0,0.0,0.0,0.0,0.0,0.0,0.0,0.0,0.0,0.0,0.0,0.0,0.0,0.0,0.0,0.0,0.0,0.0,0.0,0.0,0.0,0.0,0.0,0.0,0.0,0.0,0.0,0.0,0.0,0.0,0.0,0.0,0.0,0.0,0.0,0.0,0.0,0.0,0.0,0.0,0.0,0.0,0.0,0.0,0.0,0.0,0.0,0.0,0.0,0.0,0.0,4.6147,4.6123,4.5188,4.4781,0.0,0.0,0.0,0.0,0.0,0.0,0.0,0.0,0.0,0.0,0.0,0.0,0.0,0.0,0.0,0.0,0.0,0.0,0.0,0.0,0.0,0.0,0.0,0.0,0.0,0.0,0.0,0.0,0.0,0.0,0.0,0.0,0.0,0.0,0.0,0.0,0.0,0.0,0.0,0.0,0.0,0.0,0.0,0.0,0.0,0.0,0.0,0.0,0.0,0.0,0.0,0.0,0.0,0.0,0.0,0.0,0.0,0.0,0.0,0.0,0.0,0.0,0.0,0.0,0.0,0.0,0.0,0.0,0.0,0.0,0.0,0.0,0.0,0.0,0.0,0.0,0.0,0.0,0.0,0.0,0.0,0.0,0.0,0.0,0.0,0.0,0.0,0.0,0.0,0.0,0.0,0.0,0.0,0.0,0.0,0.0,0.0,0.0,0.0,0.0,0.0,0.0,0.0,0.0,0.0,0.0,0.0,0.0,0.0,0.0,4.6535,4.634,4.5891,4.5404,4.5156,4.518,0.0,0.0,0.0,0.0,0.0,0.0,0.0,0.0,0.0,0.0,0.0,0.0,0.0,0.0,0.0,0.0,0.0,0.0,0.0,0.0,0.0,0.0,0.0,0.0,0.0,0.0,0.0,0.0,0.0,0.0,0.0,0.0,0.0,0.0,0.0,0.0,0.0,0.0,0.0,0.0,0.0,0.0,0.0,0.0,0.0,0.0,0.0,0.0,0.0,0.0,0.0,0.0,0.0,0.0,0.0,0.0,0.0,0.0,0.0,0.0,0.0,0.0,0.0,0.0,0.0,0.0,0.0,0.0,0.0,0.0,0.0,0.0,0.0,0.0,0.0,0.0,0.0,0.0,0.0,0.0,0.0,0.0,0.0,0.0,0.0,0.0,0.0,0.0,0.0,0.0,0.0,0.0,0.0,0.0,0.0,0.0,0.0,0.0,0.0,0.0,0.0,0.0,0.0,0.0,0.0,0.0,0.0,0.0,4.6482,4.6535,4.634,4.5946,4.5791,4.5477,0.0,0.0,0.0,0.0,0.0,0.0,0.0,0.0,0.0,0.0,0.0,0.0,0.0,0.0,0.0,0.0,0.0,0.0,0.0,0.0,0.0,0.0,0.0,0.0,0.0,0.0,0.0,0.0,0.0,0.0,0.0,0.0,0.0,0.0,0.0,0.0,0.0,0.0,0.0,0.0,0.0,0.0,0.0,0.0,0.0,0.0,0.0,0.0,0.0,0.0,0.0,0.0,0.0,0.0,0.0,0.0,0.0,0.0,0.0,0.0,0.0,0.0,0.0,0.0,0.0,0.0,0.0,0.0,0.0,0.0,0.0,0.0,0.0,0.0,0.0,0.0,0.0,0.0,0.0,0.0,0.0,0.0,0.0,0.0,0.0,0.0,0.0,0.0,0.0,0.0,0.0,0.0,0.0,0.0,0.0,0.0,0.0,0.0,0.0,0.0,0.0,0.0,0.0,0.0,0.0,0.0,0.0,0.0,0.0,4.7052,4.7619,4.7855,4.764,4.6873,4.6243,0.0,0.0,0.0,0.0,0.0,0.0,0.0,0.0,0.0,0.0,0.0,0.0,0.0,0.0,0.0,0.0,0.0,0.0,0.0,0.0,0.0,0.0,0.0,0.0,0.0,0.0,0.0,0.0,0.0,0.0,0.0,0.0,0.0,0.0,0.0,0.0,0.0,0.0,0.0,0.0,0.0,0.0,0.0,0.0,0.0,0.0,0.0,0.0,0.0,0.0,0.0,0.0,0.0,0.0,0.0,0.0,0.0,0.0,0.0,0.0,0.0,0.0,0.0,0.0,0.0,0.0,0.0,0.0,0.0,0.0,0.0,0.0,0.0,0.0,0.0,0.0,0.0,0.0,0.0,0.0,0.0,0.0,0.0,0.0,0.0,0.0,0.0,0.0,0.0,0.0,0.0,0.0,0.0,0.0,0.0,0.0,0.0,0.0,0.0,0.0,0.0,0.0,0.0,0.0,0.0,0.0,0.0,0.0,0.0,4.8055,4.8571,4.8893,4.9045,4.7787,4.6935,0.0,0.0,0.0,0.0,0.0,0.0,0.0,0.0,0.0,0.0,0.0,0.0,0.0,0.0,0.0,0.0,0.0,0.0,0.0,0.0,0.0,0.0,0.0,0.0,0.0,0.0,0.0,0.0,0.0,0.0,0.0,0.0,0.0,0.0,0.0,0.0,0.0,0.0,0.0,0.0,0.0,0.0,0.0,0.0,0.0,0.0,0.0,0.0,0.0,0.0,0.0,0.0,0.0,0.0,0.0,0.0,0.0,0.0,0.0,0.0,0.0,0.0,0.0,0.0,0.0,0.0,0.0,0.0,0.0,0.0,0.0,0.0,0.0,0.0,0.0,0.0,0.0,0.0,0.0,0.0,0.0,0.0,0.0,0.0,0.0,0.0,0.0,0.0,0.0,0.0,0.0,0.0,0.0,0.0,0.0,0.0,0.0,0.0,0.0,0.0,0.0,0.0,0.0,0.0,0.0,0.0,0.0,0.0,4.7839,4.9474,4.9308,4.9579,5.0049,4.8597,4.7448,0.0,0.0,0.0,0.0,0.0,0.0,0.0,0.0,0.0,0.0,0.0,0.0,0.0,0.0,0.0,0.0,0.0,0.0,0.0,0.0,0.0,0.0,0.0,0.0,0.0,0.0,0.0,0.0,0.0,0.0,0.0,0.0,0.0,0.0,0.0,0.0,0.0,0.0,0.0,0.0,0.0,0.0,0.0,0.0,0.0,0.0,0.0,0.0,0.0,0.0,0.0,0.0,0.0,0.0,0.0,0.0,0.0,0.0,0.0,0.0,0.0,0.0,0.0,0.0,0.0,0.0,0.0,0.0,0.0,0.0,0.0,0.0,0.0,0.0,0.0,0.0,0.0,0.0,0.0,0.0,0.0,0.0,0.0,0.0,0.0,0.0,0.0,0.0,0.0,0.0,0.0,0.0,0.0,0.0,0.0,0.0,0.0,0.0,0.0,0.0,0.0,0.0,0.0,0.0,0.0,0.0,0.0,0.0,0.0,5.0547,5.146,5.1738,5.1234,4.997,4.8593,0.0,0.0,0.0,0.0,0.0,0.0,0.0,0.0,0.0,0.0,0.0,0.0,0.0,0.0,0.0,0.0,0.0,0.0,0.0,0.0,0.0,0.0,0.0,0.0,0.0,0.0,0.0,0.0,0.0,0.0,0.0,0.0,0.0,0.0,0.0,0.0,0.0,0.0,0.0,0.0,0.0,0.0,0.0,0.0,0.0,0.0,0.0,0.0,0.0,0.0,0.0,0.0,0.0,0.0,0.0,0.0,0.0,0.0,0.0,0.0,0.0,0.0,0.0,0.0,0.0,0.0,0.0,0.0,0.0,0.0,0.0,0.0,0.0,0.0,0.0,0.0,0.0,0.0,0.0,0.0,0.0,0.0,0.0,0.0,0.0,0.0,0.0,0.0,0.0,0.0,0.0,0.0,0.0,0.0,0.0,0.0,0.0,0.0,0.0,0.0,0.0,0.0,0.0,0.0,0.0,0.0,0.0,0.0,0.0,5.257,5.3551,5.3808,5.3192,5.1759,5.0101,4.8274,0.0,0.0,0.0,0.0,0.0,0.0,0.0,0.0,0.0,0.0,0.0,0.0,0.0,0.0,0.0,0.0,0.0,0.0,0.0,0.0,0.0,0.0,0.0,0.0,0.0,0.0,0.0,0.0,0.0,0.0,0.0,0.0,0.0,0.0,0.0,0.0,0.0,0.0,0.0,0.0,0.0,0.0,0.0,0.0,0.0,0.0,0.0,0.0,0.0,0.0,0.0,0.0,0.0,0.0,0.0,0.0,0.0,0.0,0.0,0.0,0.0,0.0,0.0,0.0,0.0,0.0,0.0,0.0,0.0,0.0,0.0,0.0,0.0,0.0,0.0,0.0,0.0,0.0,0.0,0.0,0.0,0.0,0.0,0.0,0.0,0.0,0.0,0.0,0.0,0.0,0.0,0.0,0.0,0.0,0.0,0.0,0.0,0.0,0.0,0.0,0.0,0.0,0.0,0.0,0.0,0.0,0.0,0.0,5.5252,5.5575,5.5636,5.5498,5.3726,5.1926,0.0,0.0,0.0,0.0,0.0,0.0,0.0,0.0,0.0,0.0,0.0,0.0,0.0,0.0,0.0,0.0,0.0,0.0,0.0,0.0,0.0,0.0,0.0,0.0,0.0,0.0,0.0,0.0,0.0,0.0,0.0,0.0,0.0,0.0,0.0,0.0,0.0,0.0,0.0,0.0,0.0,0.0,0.0,0.0,0.0,0.0,0.0,0.0,0.0,0.0,0.0,0.0,0.0,0.0,0.0,0.0,0.0,0.0,0.0,0.0,0.0,0.0,0.0,0.0,0.0,0.0,0.0,0.0,0.0,0.0,0.0,0.0,0.0,0.0,0.0,0.0,0.0,0.0,0.0,0.0,0.0,0.0,0.0,0.0,0.0,0.0,0.0,0.0,0.0,0.0,0.0,0.0,0.0,0.0,0.0,0.0,0.0,0.0,0.0,0.0,0.0,0.0,0.0,0.0,0.0,0.0,0.0,0.0,0.0,5.7093,5.8058,5.774,5.5902,5.4488,5.265,0.0,0.0,0.0,0.0,0.0,0.0,0.0,0.0,0.0,0.0,0.0,0.0,0.0,0.0,0.0,0.0,0.0,0.0,0.0,0.0,0.0,0.0,0.0,0.0,0.0,0.0,0.0,0.0,0.0,0.0,0.0,0.0,0.0,0.0,0.0,0.0,0.0,0.0,0.0,0.0,0.0,0.0,0.0,0.0,0.0,0.0,0.0,0.0,0.0,0.0,0.0,0.0,0.0,0.0,0.0,0.0,0.0,0.0,0.0,0.0,0.0,0.0,0.0,0.0,0.0,0.0,0.0,0.0,0.0,0.0,0.0,0.0,0.0,0.0,0.0,0.0,0.0,0.0,0.0,0.0,0.0,0.0,0.0,0.0,0.0,0.0,0.0,0.0,0.0,0.0,0.0,0.0,0.0,0.0,0.0,0.0,0.0,0.0,0.0,0.0,0.0,0.0,0.0,0.0,0.0,0.0,0.0,0.0,5.7383,5.8581,5.9696,5.9521,5.7992,5.6364,5.4401,0.0,0.0,0.0,0.0,0.0,0.0,0.0,0.0,0.0,0.0,0.0,0.0,0.0,0.0,0.0,0.0,0.0,0.0,0.0,0.0,0.0,0.0,0.0,0.0,0.0,0.0,0.0,0.0,0.0,0.0,0.0,0.0,0.0,0.0,0.0,0.0,0.0,0.0,0.0,0.0,0.0,0.0,0.0,0.0,0.0,0.0,0.0,0.0,0.0,0.0,0.0,0.0,0.0,0.0,0.0,0.0,0.0,0.0,0.0,0.0,0.0,0.0,0.0,0.0,0.0,0.0,0.0,0.0,0.0,0.0,0.0,0.0,0.0,0.0,0.0,0.0,0.0,0.0,0.0,0.0,0.0,0.0,0.0,0.0,0.0,0.0,0.0,0.0,0.0,0.0,0.0,0.0,0.0,0.0,0.0,0.0,0.0,0.0,0.0,0.0,0.0,0.0,0.0,0.0,0.0,0.0,0.0,0.0,5.8485,5.9758,6.0636,6.0974,6.0768,5.866,5.6422,0.0,0.0,0.0,0.0,0.0,0.0,0.0,0.0,0.0,0.0,0.0,0.0,0.0,0.0,0.0,0.0,0.0,0.0,0.0,0.0,0.0,0.0,0.0,0.0,0.0,0.0,0.0,0.0,0.0,0.0,0.0,0.0,0.0,0.0,0.0,0.0,0.0,0.0,0.0,0.0,0.0,0.0,0.0,0.0,0.0,0.0,0.0,0.0,0.0,0.0,0.0,0.0,0.0,0.0,0.0,0.0,0.0,0.0,0.0,0.0,0.0,0.0,0.0,0.0,0.0,0.0,0.0,0.0,0.0,0.0,0.0,0.0,0.0,0.0,0.0,0.0,0.0,0.0,0.0,0.0,0.0,0.0,0.0,0.0,0.0,0.0,0.0,0.0,0.0,0.0,0.0,0.0,0.0,0.0,0.0,0.0,0.0,0.0,0.0,0.0,0.0,0.0,0.0,0.0,0.0,0.0,0.0,0.0,5.913,6.041,6.0864,6.1175,6.143,5.9067,5.6738,0.0,0.0,0.0,0.0,0.0,0.0,0.0,0.0,0.0,0.0,0.0,0.0,0.0,0.0,0.0,0.0,0.0,0.0,0.0,0.0,0.0,0.0,0.0,0.0,0.0,0.0,0.0,0.0,0.0,0.0,0.0,0.0,0.0,0.0,0.0,0.0,0.0,0.0,0.0,0.0,0.0,0.0,0.0,0.0,0.0,0.0,0.0,0.0,4.5866,0.0,0.0,0.0,0.0,0.0,0.0,0.0,0.0,0.0,0.0,0.0,0.0,0.0,0.0,0.0,0.0,0.0,0.0,0.0,0.0,0.0,0.0,0.0,0.0,0.0,0.0,0.0,0.0,0.0,0.0,0.0,0.0,0.0,0.0,0.0,0.0,0.0,0.0,0.0,0.0,0.0,0.0,0.0,0.0,0.0,0.0,0.0,0.0,0.0,0.0,0.0,0.0,0.0,0.0,0.0,0.0,0.0,0.0,0.0,5.9746,6.1062,6.1535,6.1816,6.1786,5.9664,5.7569,0.0,0.0,0.0,0.0,0.0,0.0,0.0,0.0,0.0,0.0,0.0,0.0,0.0,0.0,0.0,0.0,0.0,0.0,0.0,0.0,0.0,0.0,0.0,0.0,0.0,0.0,0.0,0.0,0.0,0.0,0.0,0.0,0.0,0.0,0.0,0.0,0.0,0.0,0.0,0.0,0.0,0.0,0.0,0.0,0.0,0.0,0.0,0.0,0.0,0.0,0.0,0.0,0.0,0.0,0.0,0.0,0.0,0.0,0.0,0.0,0.0,0.0,0.0,0.0,0.0,0.0,0.0,0.0,0.0,0.0,0.0,0.0,0.0,0.0,0.0,0.0,0.0,0.0,0.0,0.0,0.0,0.0,0.0,0.0,0.0,0.0,0.0,0.0,0.0,0.0,0.0,0.0,0.0,0.0,0.0,0.0,0.0,0.0,0.0,0.0,0.0,0.0,0.0,0.0,0.0,0.0,0.0,5.8562,6.0298,6.1649,6.2223,6.2388,6.2079,6.0251,5.8306,5.6451,0.0,0.0,0.0,0.0,0.0,0.0,0.0,0.0,0.0,0.0,0.0,0.0,0.0,0.0,0.0,0.0,0.0,0.0,0.0,0.0,0.0,0.0,0.0,0.0,0.0,0.0,0.0,0.0,0.0,0.0,0.0,0.0,0.0,0.0,0.0,0.0,0.0,0.0,4.6082,4.7666,0.0,0.0,0.0,0.0,0.0,0.0,0.0,0.0,4.7462,0.0,0.0,0.0,0.0,0.0,0.0,0.0,0.0,0.0,0.0,0.0,0.0,0.0,0.0,0.0,0.0,0.0,0.0,0.0,0.0,0.0,0.0,0.0,0.0,0.0,0.0,0.0,0.0,0.0,0.0,0.0,0.0,0.0,0.0,0.0,0.0,0.0,0.0,0.0,0.0,0.0,0.0,0.0,0.0,0.0,0.0,0.0,0.0,0.0,0.0,0.0,0.0,0.0,0.0,0.0,0.0,5.6278,5.8723,6.0589,6.1948,6.2321,6.2388,6.2079,6.0251,5.8246,5.6134,0.0,0.0,0.0,0.0,0.0,0.0,0.0,0.0,0.0,0.0,0.0,0.0,0.0,0.0,0.0,0.0,0.0,0.0,0.0,0.0,0.0,0.0,0.0,0.0,0.0,0.0,0.0,0.0,0.0,0.0,0.0,0.0,0.0,0.0,0.0,0.0,0.0,0.0,0.0,4.962,5.0808,0.0,0.0,0.0,0.0,0.0,0.0,0.0,0.0,4.7967,0.0,0.0,0.0,0.0,0.0,0.0,0.0,0.0,0.0,0.0,0.0,0.0,0.0,0.0,0.0,0.0,0.0,0.0,0.0,0.0,0.0,0.0,0.0,0.0,0.0,0.0,0.0,0.0,0.0,0.0,0.0,0.0,0.0,0.0,0.0,0.0,0.0,0.0,0.0,0.0,0.0,0.0,0.0,0.0,0.0,0.0,0.0,0.0,0.0,0.0,0.0,0.0,0.0,0.0,0.0,5.5932,5.8276,6.0034,6.1076,6.1807,6.2024,6.1703,6.0237,5.8344,0.0,0.0,0.0,0.0,0.0,0.0,0.0,0.0,0.0,0.0,0.0,0.0,0.0,0.0,0.0,0.0,0.0,0.0,0.0,0.0,0.0,0.0,0.0,0.0,0.0,0.0,0.0,0.0,0.0,0.0,0.0,0.0,0.0,0.0,0.0,0.0,0.0,0.0,0.0,0.0,5.0447,5.1953,5.2448,0.0,0.0,0.0,0.0,0.0,0.0,5.0867,5.0222,0.0,0.0,0.0,0.0,0.0,0.0,0.0,0.0,0.0,0.0,0.0,0.0,0.0,0.0,0.0,0.0,0.0,0.0,0.0,0.0,0.0,0.0,0.0,0.0,0.0,0.0,0.0,0.0,0.0,0.0,0.0,0.0,0.0,0.0,0.0,0.0,0.0,0.0,0.0,0.0,0.0,0.0,0.0,0.0,0.0,0.0,0.0,0.0,0.0,0.0,0.0,0.0,0.0,0.0,0.0,5.5515,5.7809,5.948,6.0497,6.1506,6.1884,6.1497,6.0301,5.8522,0.0,0.0,0.0,0.0,0.0,0.0,0.0,0.0,0.0,0.0,0.0,0.0,0.0,0.0,0.0,0.0,0.0,0.0,0.0,0.0,0.0,0.0,0.0,0.0,0.0,0.0,0.0,0.0,0.0,0.0,0.0,0.0,0.0,0.0,0.0,0.0,0.0,0.0,0.0,0.0,0.0,5.2809,5.337,5.4458,0.0,0.0,0.0,0.0,5.3883,5.3263,0.0,0.0,0.0,0.0,0.0,0.0,0.0,0.0,0.0,0.0,0.0,0.0,0.0,0.0,0.0,0.0,0.0,0.0,0.0,0.0,0.0,0.0,0.0,0.0,0.0,0.0,0.0,0.0,0.0,0.0,0.0,0.0,0.0,0.0,0.0,0.0,0.0,0.0,0.0,0.0,0.0,0.0,0.0,0.0,0.0,0.0,0.0,0.0,0.0,0.0,0.0,0.0,0.0,0.0,0.0,0.0,5.5141,5.7527,5.9583,6.1352,6.2395,6.2522,6.1761,6.0612,5.8815,0.0,0.0,0.0,0.0,0.0,0.0,0.0,0.0,0.0,0.0,0.0,0.0,0.0,0.0,0.0,0.0,0.0,0.0,0.0,0.0,0.0,0.0,0.0,0.0,0.0,0.0,0.0,0.0,0.0,0.0,0.0,0.0,0.0,0.0,0.0,0.0,0.0,0.0,0.0,0.0,0.0,5.3735,5.4871,5.5893,5.6466,0.0,0.0,5.589,5.524,5.4621,0.0,0.0,0.0,0.0,0.0,0.0,0.0,0.0,0.0,0.0,0.0,0.0,0.0,0.0,0.0,0.0,0.0,0.0,0.0,0.0,0.0,0.0,0.0,0.0,0.0,0.0,0.0,0.0,0.0,0.0,0.0,0.0,0.0,0.0,0.0,0.0,0.0,0.0,0.0,0.0,0.0,0.0,0.0,0.0,0.0,0.0,0.0,0.0,0.0,0.0,0.0,0.0,0.0,0.0,0.0,5.3053,5.5374,5.7494,5.9316,6.0784,6.1861,6.2155,6.1685,6.0779,5.9061,0.0,0.0,0.0,0.0,0.0,0.0,0.0,0.0,0.0,0.0,0.0,0.0,0.0,0.0,0.0,0.0,0.0,0.0,0.0,0.0,0.0,0.0,0.0,0.0,0.0,0.0,0.0,0.0,0.0,0.0,0.0,0.0,0.0,0.0,0.0,0.0,0.0,0.0,0.0,0.0,0.0,0.0,5.6692,5.7951,0.0,0.0,0.0,5.9021,5.8447,0.0,0.0,0.0,0.0,0.0,0.0,0.0,0.0,0.0,0.0,0.0,0.0,0.0,0.0,0.0,0.0,0.0,0.0,0.0,0.0,0.0,0.0,0.0,0.0,0.0,0.0,0.0,0.0,0.0,0.0,0.0,0.0,0.0,0.0,0.0,0.0,0.0,0.0,0.0,0.0,0.0,0.0,0.0,0.0,0.0,0.0,0.0,0.0,0.0,0.0,0.0,0.0,0.0,0.0,0.0,0.0,0.0,5.5427,5.7416,5.9143,6.0588,6.1589,6.2122,6.2064,6.1164,0.0,0.0,0.0,0.0,0.0,0.0,0.0,0.0,0.0,0.0,0.0,0.0,0.0,0.0,0.0,0.0,0.0,0.0,0.0,0.0,0.0,0.0,0.0,0.0,0.0,0.0,0.0,3.8732,0.0,0.0,0.0,0.0,0.0,0.0,0.0,0.0,0.0,0.0,0.0,0.0,0.0,0.0,5.5712,5.8039,5.9747,6.0886,0.0,0.0,6.169,6.1292,6.0668,5.9856,0.0,0.0,0.0,0.0,0.0,0.0,0.0,0.0,0.0,0.0,0.0,0.0,0.0,0.0,0.0,0.0,0.0,0.0,0.0,0.0,0.0,0.0,0.0,0.0,0.0,0.0,0.0,0.0,0.0,0.0,0.0,0.0,0.0,0.0,0.0,0.0,0.0,0.0,0.0,0.0,0.0,0.0,0.0,0.0,0.0,0.0,0.0,0.0,0.0,0.0,0.0,0.0,0.0,0.0,5.3085,5.5146,5.7231,5.9459,6.1663,6.229,6.2884,6.3538,6.1969,6.033,0.0,0.0,0.0,0.0,0.0,0.0,0.0,0.0,0.0,0.0,0.0,0.0,0.0,0.0,0.0,0.0,0.0,0.0,0.0,0.0,0.0,0.0,0.0,0.0,0.0,0.0,0.0,0.0,0.0,0.0,0.0,0.0,0.0,0.0,0.0,0.0,0.0,0.0,0.0,0.0,0.0,5.6769,5.8461,6.077,6.2363,0.0,6.2703,6.287,6.2809,6.1801,6.0707,6.0008,0.0,0.0,0.0,0.0,0.0,0.0,0.0,0.0,0.0,0.0,0.0,0.0,0.0,0.0,0.0,0.0,0.0,0.0,0.0,0.0,0.0,0.0,0.0,0.0,0.0,0.0,0.0,0.0,0.0,0.0,0.0,0.0,0.0,0.0,0.0,0.0,0.0,0.0,0.0,0.0,0.0,0.0,0.0,0.0,0.0,0.0,0.0,0.0,0.0,0.0,0.0,0.0,0.0,5.3652,5.5757,5.7864,5.9816,6.1632,6.2657,6.3257,6.3286,6.2777,6.1662,0.0,0.0,0.0,0.0,0.0,0.0,0.0,0.0,0.0,0.0,0.0,0.0,0.0,0.0,0.0,0.0,0.0,0.0,0.0,0.0,0.0,0.0,0.0,0.0,0.0,0.0,0.0,0.0,4.3882,4.4069,4.398,0.0,0.0,0.0,0.0,0.0,0.0,0.0,0.0,0.0,0.0,5.8609,6.0773,6.2625,0.0,0.0,6.4782,6.5124,6.5124,6.4137,6.3299,6.3023,6.1523,0.0,0.0,0.0,0.0,0.0,0.0,0.0,0.0,0.0,0.0,0.0,0.0,0.0,0.0,0.0,0.0,0.0,0.0,0.0,0.0,0.0,0.0,0.0,0.0,0.0,0.0,4.5757,4.5722,0.0,0.0,0.0,0.0,0.0,0.0,0.0,0.0,0.0,0.0,0.0,0.0,0.0,0.0,0.0,0.0,0.0,0.0,0.0,0.0,0.0,0.0,0.0,0.0,5.4511,5.6696,5.8554,6.038,6.2069,6.3,6.3562,6.3911,6.3519,6.2719,0.0,0.0,0.0,0.0,0.0,0.0,0.0,0.0,0.0,0.0,0.0,0.0,0.0,0.0,0.0,0.0,0.0,0.0,0.0,0.0,0.0,0.0,0.0,0.0,0.0,0.0,0.0,0.0,4.5364,4.5675,4.5486,0.0,0.0,0.0,0.0,0.0,0.0,0.0,0.0,0.0,0.0,6.044,6.27,6.43,6.5402,6.5916,6.6503,6.6878,6.6821,6.6098,6.5442,6.5226,0.0,0.0,0.0,0.0,0.0,0.0,0.0,0.0,0.0,0.0,0.0,0.0,0.0,0.0,0.0,0.0,0.0,0.0,0.0,0.0,0.0,0.0,0.0,0.0,0.0,0.0,0.0,4.7746,0.0,0.0,4.7497,0.0,0.0,0.0,0.0,0.0,0.0,0.0,0.0,0.0,0.0,0.0,0.0,0.0,0.0,0.0,0.0,0.0,0.0,0.0,0.0,0.0,0.0,5.5616,5.7826,5.9313,6.1066,6.3146,6.3102,6.3856,6.5539,6.4017,6.3404,6.3848,0.0,0.0,0.0,0.0,0.0,0.0,0.0,0.0,0.0,0.0,0.0,0.0,0.0,0.0,0.0,0.0,0.0,0.0,0.0,0.0,0.0,0.0,0.0,0.0,0.0,0.0,4.552,4.6202,4.6784,0.0,0.0,0.0,0.0,0.0,0.0,0.0,0.0,0.0,5.8194,6.0384,6.2223,6.3768,6.5677,6.6968,6.6998,6.7528,6.7877,6.7877,6.735,6.6642,0.0,0.0,0.0,0.0,0.0,0.0,0.0,0.0,0.0,0.0,0.0,0.0,0.0,0.0,0.0,0.0,0.0,0.0,0.0,0.0,0.0,0.0,0.0,0.0,0.0,0.0,0.0,5.0532,5.0266,0.0,0.0,0.0,0.0,0.0,0.0,0.0,0.0,0.0,5.3482,0.0,5.4561,5.4561,0.0,0.0,0.0,0.0,0.0,0.0,0.0,0.0,0.0,0.0,0.0,0.0,5.6194,5.8353,5.9637,6.1239,6.3248,6.3558,6.4246,6.5286,6.5239,6.4701,6.3438,0.0,0.0,0.0,0.0,0.0,0.0,0.0,0.0,0.0,0.0,0.0,0.0,0.0,0.0,0.0,0.0,0.0,0.0,0.0,0.0,0.0,0.0,0.0,0.0,0.0,4.6999,0.0,0.0,0.0,0.0,0.0,0.0,0.0,0.0,0.0,0.0,5.5358,5.7996,6.0357,6.2937,6.4905,6.5862,6.7729,6.9002,0.0,0.0,0.0,0.0,0.0,0.0,0.0,0.0,0.0,0.0,0.0,0.0,0.0,6.5048,6.364,6.1905,6.1575,6.1471,6.1072,0.0,0.0,0.0,0.0,0.0,0.0,0.0,0.0,0.0,0.0,0.0,0.0,0.0,0.0,5.3117,5.286,5.3008,0.0,0.0,0.0,0.0,0.0,0.0,0.0,0.0,5.5239,5.5717,5.6269,5.6445,5.6746,5.7072,5.7273,5.6319,0.0,0.0,0.0,0.0,0.0,0.0,0.0,0.0,5.7524,5.9483,6.0437,6.1764,6.3476,6.4145,6.481,6.566,6.6484,6.5768,6.351,6.2301,6.0441,0.0,0.0,0.0,0.0,0.0,0.0,0.0,0.0,0.0,0.0,0.0,0.0,0.0,0.0,0.0,0.0,0.0,0.0,0.0,0.0,0.0,0.0,0.0,4.8738,0.0,0.0,0.0,0.0,0.0,0.0,0.0,0.0,0.0,5.5929,5.8342,6.0856,6.2908,6.5203,6.6939,6.7597,0.0,0.0,0.0,0.0,0.0,0.0,0.0,6.9597,6.9597,6.8821,6.7981,6.761,6.761,6.7988,6.8833,0.0,0.0,6.6153,6.5584,6.539,6.5004,6.5288,6.5651,6.5763,6.6753,6.7928,0.0,0.0,0.0,0.0,5.3934,0.0,0.0,0.0,5.5974,5.6035,0.0,5.5994,0.0,0.0,0.0,0.0,5.6319,5.6294,0.0,0.0,5.7097,5.7424,5.7976,5.8529,5.8805,5.8855,5.9357,5.9332,5.873,5.6671,5.529,0.0,0.0,0.0,0.0,0.0,5.9583,6.1215,6.1793,6.275,6.409,6.4709,6.5615,6.6873,6.7443,6.6655,6.4381,6.4082,6.2917,6.059,5.8402,0.0,0.0,0.0,0.0,0.0,0.0,0.0,0.0,0.0,0.0,0.0,0.0,0.0,0.0,0.0,0.0,0.0,0.0,0.0,0.0,4.9287,0.0,0.0,0.0,0.0,0.0,0.0,0.0,0.0,0.0,5.9611,5.9046,6.1127,6.3564,6.5742,0.0,0.0,0.0,0.0,6.9599,7.0002,7.0281,7.0587,7.0922,7.0952,7.0921,7.0921,0.0,0.0,6.989,7.0673,7.1222,7.1316,7.2018,7.2202,7.0276,6.9614,6.9352,6.9325,6.9031,6.9037,6.9271,6.9561,7.025,5.8603,0.0,0.0,0.0,0.0,5.7596,5.8116,5.866,5.8993,5.8752,5.8329,5.8734,0.0,0.0,0.0,0.0,0.0,0.0,5.8077,5.8252,5.8629,5.9081,5.9633,6.0211,6.0688,6.109,6.1617,6.1793,6.1642,6.1014,5.9633,5.7524,0.0,0.0,0.0,0.0,6.1291,6.2873,6.3124,6.3722,6.4831,6.5313,6.6029,6.6925,6.7058,6.6575,6.536,6.4789,6.3695,6.2155,6.0226,0.0,0.0,0.0,0.0,0.0,0.0,0.0,0.0,0.0,0.0,0.0,0.0,0.0,0.0,0.0,0.0,0.0,0.0,0.0,5.1179,5.2864,5.379,0.0,0.0,0.0,0.0,0.0,0.0,0.0,0.0,0.0,6.38,6.4546,6.5592,0.0,0.0,6.9482,6.9662,7.0307,7.0863,7.099,7.1496,0.0,7.2027,7.1845,7.166,7.166,7.1347,7.1061,7.0993,7.1354,7.1901,7.237,7.2648,7.2804,7.2779,7.2058,7.1347,7.0931,7.0754,7.0694,7.0815,7.1616,7.2604,6.1604,6.0433,5.984,5.9748,6.0026,6.0002,6.0278,6.082,6.082,6.0628,6.0339,6.0819,6.0501,5.9756,6.0255,0.0,0.0,0.0,5.9709,5.9709,6.0236,6.0663,6.1014,6.1793,6.2345,6.2672,6.3224,6.3475,6.3475,6.3475,6.2647,6.1014,0.0,6.0964,6.2144,6.2169,6.2772,6.3927,6.4002,6.4403,6.5148,6.5933,6.6521,6.668,6.7056,6.6662,6.5571,6.5235,6.4551,6.3299,6.1835,6.0183,0.0,0.0,0.0,0.0,0.0,0.0,0.0,0.0,0.0,0.0,0.0,4.575,4.6564,0.0,0.0,0.0,5.0244,5.1933,5.4007,5.5442,0.0,0.0,0.0,0.0,0.0,0.0,0.0,6.2393,6.4038,6.5501,6.6753,6.7078,6.7555,6.8675,6.9692,7.035,7.035,0.0,7.1242,7.1341,7.1883,7.2357,7.2452,7.2458,7.2368,7.2368,7.2244,7.2057,7.2057,7.2299,7.2695,7.3038,7.3223,7.3376,7.3691,7.3189,7.266,7.2299,7.2117,7.2057,7.2026,7.3076,7.3974,6.3593,6.3906,6.2537,6.196,6.2047,6.2047,6.2047,6.2047,6.2047,6.2047,6.2047,6.2382,6.23,6.1777,6.1532,0.0,6.1316,6.1316,6.1316,6.1341,6.1918,6.2195,6.2245,6.3324,6.3827,6.3827,6.4354,6.458,6.4605,6.4605,6.4605,6.458,6.3601,6.335,6.3802,6.3827,6.4078,6.458,6.4605,6.4857,6.5274,6.6535,6.7007,6.6439,6.7122,6.6739,6.5213,6.5494,6.5193,6.4053,6.3252,6.2149,6.0403,0.0,0.0,0.0,0.0,0.0,0.0,0.0,0.0,0.0,0.0,0.0,0.0,0.0,0.0,5.1525,5.3603,0.0,5.6594,5.7311,0.0,0.0,0.0,6.035,6.1231,6.2543,6.3798,6.4994,0.0,0.0,6.8313,6.8767,6.9246,6.9923,7.0495,7.0824,7.0919,7.0889,7.1018,7.1307,7.1692,7.204,7.2263,7.261,7.2797,7.2859,7.2983,7.2891,7.2953,7.317,7.3416,7.3385,7.3631,7.3722,7.3478,7.3447,7.3416,7.3385,7.32,7.2952,7.2984,7.3695,7.4407,6.3121,6.3577,6.3648,6.3828,6.4163,6.4163,6.4163,6.4187,6.4163,6.4187,6.4139,6.4174,6.3909,6.3302,6.239,6.1868,6.1907,6.2258,6.2446,6.2496,6.3425,6.3877,6.3927,6.4605,6.4906,6.4931,6.5459,6.571,6.571,6.571,6.5735,6.571,6.5459,6.5183,6.4931,6.4906,6.5183,6.571,6.571,6.5991,6.6416,6.6687,6.6847,6.6535,6.6347,6.581,6.504,6.4821,6.4637,6.4426,6.3929,6.3252,6.2203,6.0392,0.0,0.0,0.0,0.0,0.0,0.0,0.0,0.0,0.0,4.9684,5.0821,0.0,5.2371,0.0,5.5773,5.7631,5.9162,5.9879,0.0,0.0,6.1645,6.2529,6.3238,6.4451,6.5544,6.6372,6.755,6.8466,6.8761,6.9316,6.9729,6.9927,7.0278,7.0593,7.0824,7.0919,7.0889,7.1048,7.1337,7.1564,7.1722,7.1977,7.2387,7.2608,7.2608,7.2734,7.2983,7.3045,7.3107,7.3107,7.3169,7.3169,7.3107,7.3107,7.3107,7.3107,7.3045,7.2983,7.3014,7.3569,7.4279,6.259,6.3447,6.3753,6.4312,6.4939,6.4943,6.4933,6.4933,6.4933,6.4933,6.4885,6.4625,6.4279,6.3864,6.3249,6.286,6.2887,6.3302,6.355,6.3601,6.4429,6.4747,6.4603,6.5068,6.5232,6.506,6.5359,6.557,6.5767,6.5767,6.5853,6.6112,6.6112,6.5961,6.566,6.566,6.581,6.6112,6.6112,6.6197,6.6455,6.6711,6.6628,6.6347,6.6266,6.5913,6.5324,6.4882,6.4631,6.4685,6.4428,6.3729,6.2789,6.1692,6.0173,0.0,0.0,0.0,0.0,0.0,0.0,0.0,0.0,0.0,0.0,0.0,5.4983,5.655,5.8242,5.9816,6.126,6.2227,6.2848,6.3062,6.4048,6.4885,6.5238,6.6025,6.6843,6.7425,6.7932,6.826,6.8552,6.8768,6.9039,6.9374,6.9604,6.9906,7.0558,7.0897,7.1171,7.1338,7.1838,7.2254,7.2111,7.2274,7.2375,7.2291,7.2294,7.2357,7.2546,7.2671,7.2796,7.2796,7.2921,7.2983,7.2983,7.2983,7.2983,7.2983,7.2983,7.2983,7.2983,7.3506,7.4122,6.1855,6.3081,6.3244,6.3921,6.4954,6.4868,6.4852,6.4943,6.4943,6.4895,6.489,6.4386,6.4101,6.4011,6.395,6.3865,6.3821,6.4328,6.4496,6.4521,6.4963,6.4982,6.464,6.5112,6.5075,6.4702,6.4702,6.4876,6.5248,6.5335,6.5508,6.6026,6.6026,6.6026,6.6112,6.6112,6.6112,6.6112,6.6112,6.6112,6.6112,6.654,6.6509,6.6052,6.6263,6.6259,6.5748,6.5185,6.4909,6.4807,6.4631,6.4065,6.2994,6.2518,6.1486,0.0,5.8456,0.0,0.0,0.0,0.0,0.0,0.0,0.0,0.0,5.6549,5.7765,5.9675,6.0699,6.1762,6.2865,6.4099,6.4907,6.4971,6.6131,6.6896,6.6926,6.7224,6.7611,6.8136,6.7689,6.7583,6.8043,6.7885,6.7953,6.8596,6.8818,6.9243,7.0113,7.0858,7.1414,7.1864,7.2739,7.3063,7.2867,7.2876,7.2694,7.2274,7.2277,7.2186,7.2311,7.2566,7.2695,7.2758,7.3008,7.3073,7.3012,7.2982,7.2951,7.2827,7.2859,7.2921,7.3014,7.3414,7.3876,6.0673,6.171,6.2475,6.337,6.4293,6.4296,6.4601,6.4999,6.4999,6.4949,6.4984,6.4823,6.4476,6.4077,6.3948,6.3891,6.3878,6.4367,6.4538,6.4563,6.4741,6.4815,6.4728,6.474,6.4789,6.4702,6.4702,6.4789,6.4789,6.4789,6.5075,6.5533,6.5508,6.5681,6.6112,0.0,0.0,0.0,6.6112,6.6112,6.6112,6.6197,6.6147,6.6047,6.5704,0.0,6.5386,6.5191,6.485,6.4475,6.4653,0.0,0.0,0.0,0.0,0.0,0.0,0.0,0.0,0.0,0.0,0.0,5.9549,5.9589,5.8476,5.9724,6.0892,6.1617,6.233,6.3032,6.3774,6.4375,6.4876,6.5145,6.6156,6.6854,6.6883,6.7304,6.7735,6.7753,6.7713,6.7673,6.7719,6.7747,6.7747,6.7913,6.8315,6.8976,6.9758,7.0514,7.125,7.2098,7.276,7.296,7.2943,7.2913,7.292,7.3063,7.3164,7.3199,7.3365,7.3495,7.359,7.356,7.3685,7.3537,7.305,7.2928,7.2806,7.2289,7.245,7.2671,7.2921,7.3076,7.3322,5.9084,6.0123,6.114,6.2025,0.0,6.3008,6.339,6.3866,6.4624,6.4977,6.4974,6.5008,6.4665,6.4115,6.4568,6.4429,6.3961,6.4679,6.4827,6.4679,6.4666,6.4527,6.4353,6.4353,6.429,6.4026,6.4026,6.4114,6.4353,6.4377,6.4615,6.5075,6.5248,6.5508,6.5792,6.594,6.6112,6.6112,6.6112,6.6112,6.6112,6.6112,6.6112,6.6112,6.586,0.0,0.0,0.0,0.0,0.0,0.0,0.0,0.0,6.3336,6.2842,6.2422,6.1363,6.0611,6.0483,6.0375,6.0355,6.0382,6.1541,6.1808,6.0492,6.1534,6.2273,6.2641,6.3325,6.4174,6.505,6.5577,6.6074,6.6469,6.6847,6.7223,6.7362,6.7264,6.7223,6.7431,6.7293,6.7125,6.7154,6.7125,6.7293,6.746,6.7972,6.8694,6.9568,7.0552,7.1679,7.2778,7.3201,7.3219,7.2922,7.2862,7.2781,7.2648,7.2626,7.2693,7.2827,7.2997,7.313,7.313,7.3425,7.3471,7.3295,7.3304,7.3343,7.3039,7.3077,7.3181,7.3253,7.3104,7.3076,5.7592,5.8585,5.9592,6.0375,6.1079,6.1586,6.207,6.272,6.4245,0.0,0.0,6.4856,6.4613,6.409,6.4804,6.4626,6.3851,6.4552,6.4726,6.4353,6.4265,6.4002,6.3675,6.3586,6.3498,6.3169,6.3169,6.341,6.3851,6.3851,6.409,6.4527,6.4988,6.5273,6.5421,6.5767,6.6026,6.6112,6.6112,6.6112,6.6112,6.6112,6.6112,6.6112,6.6112,6.6112,6.6112,6.5685,6.5383,6.5258,6.4663,6.4102,6.36,6.3312,6.31,6.2792,6.227,6.2051,6.2223,6.1993,6.19,6.1973,6.2898,6.3125,6.2346,6.2829,6.3219,6.3378,6.4155,6.4963,6.5775,6.6446,6.7037,6.7478,6.7396,6.7449,6.7749,6.7241,6.6862,6.7072,6.6862,6.6637,6.6623,6.6778,6.6876,6.7269,6.7962,6.8726,6.9679,7.0905,7.2146,7.3175,7.3444,7.3455,7.3142,7.3034,7.269,7.2277,7.2159,7.2032,7.21,7.2276,7.248,7.2735,7.3119,7.3357,7.3334,7.3473,7.3647,7.3622,7.3688,7.3637,7.3415,7.3343,7.3259,5.6503,5.7514,5.8132,5.9198,6.0473,6.057,6.1176,6.2262,6.3676,6.434,6.4411,6.4367,6.4059,6.3633,6.3725,6.338,6.279,6.2967,6.2943,6.2855,6.2457,6.2279,6.219,6.219,6.2368,6.2701,6.2701,6.2967,6.3346,6.341,6.3675,6.4026,6.4202,6.4639,6.5335,6.5421,6.5681,6.6112,6.6112,6.6112,6.6112,6.6112,6.6112,6.6112,6.6112,6.6112,6.6112,6.6036,6.5785,6.5308,6.4764,6.4353,6.4184,6.322,6.2825,6.3201,6.2662,6.2354,6.2354,6.2971,6.3633,6.4341,6.455,6.4363,6.3825,6.4279,6.4652,6.4656,6.4736,6.4865,6.5124,6.5453,6.5958,6.6277,6.6614,6.6927,6.7367,6.7256,6.7079,6.701,6.6883,6.683,6.6777,6.7101,6.7382,6.7621,6.8396,6.9511,7.0428,7.1394,7.2128,7.2673,7.3028,7.3351,7.3374,7.3643,7.3286,7.3076,7.2888,7.276,7.276,7.283,7.297,7.3437,7.3487,7.3478,7.2995,7.2945,7.3011,7.2827,7.2976,7.322,7.337,7.3776,7.3925,5.5447,5.6031,5.7115,5.8011,5.8705,5.9886,6.0668,6.1273,6.2528,6.3031,6.3081,6.3328,6.3081,6.2712,6.319,6.2921,6.2255,6.2523,6.2434,6.2166,6.2011,6.1921,6.1921,6.1921,6.2011,6.2255,6.2434,6.2701,6.2879,6.3169,6.3434,6.3586,6.3851,6.4465,6.5335,6.5446,6.5594,6.6112,6.6112,6.6112,6.6112,6.6112,6.6112,6.6112,6.6112,6.5961,6.5685,6.5961,6.586,6.5308,6.5057,6.4739,6.4436,6.3678,6.326,6.336,6.2799,6.2652,6.2889,6.313,6.3414,6.3826,6.4346,6.4579,6.4315,6.4757,6.4889,6.4684,6.4948,6.5237,6.5469,6.5624,6.5932,6.6393,6.6249,6.6439,6.6937,6.6813,6.6761,6.7072,6.709,6.7196,6.7305,6.7573,6.7813,6.8041,6.8871,6.9703,7.0413,7.0894,7.1304,7.1841,7.2129,7.2345,7.2588,7.2588,7.2488,7.2273,7.2273,7.2273,7.2273,7.2273,7.2345,7.2559,7.2844,7.3011,7.2689,7.304,7.3171,7.3231,7.3221,7.3444,7.3657,7.396,7.4127,5.4736,5.4939,5.6132,5.6835,5.7314,5.9198,6.0082,6.0082,6.0885,6.1295,6.137,6.2121,6.2153,6.1736,6.2411,6.2154,6.1385,6.1628,6.1538,6.1292,6.1292,6.1292,6.1292,6.1382,6.1472,6.1652,6.21,6.2434,6.2612,6.2967,6.3145,6.3322,6.3675,6.429,6.5075,6.5161,6.5508,6.594,6.6026,6.6112,6.6112,6.6112,6.6112,6.6112,6.6112,6.5911,6.5534,6.5886,6.5911,6.5509,6.5358,6.5107,6.4655,6.4028,6.3665,6.3513,6.2982,6.2839,6.3294,6.3227,6.3101,6.3284,6.4091,6.4586,6.456,6.4952,6.503,6.4848,6.5109,6.5503,6.5739,6.5845,6.6028,6.642,6.61,6.622,6.6779,6.658,6.6529,6.7118,6.7285,6.7451,6.7735,6.7863,6.8149,6.8591,6.9073,6.9476,6.9895,7.0007,7.0304,7.0747,7.1142,7.1434,7.1434,7.1579,7.1507,7.1434,7.1361,7.1434,7.1434,7.1361,7.1434,7.1652,7.1985,7.2244,7.2387,7.2886,7.3281,7.3263,7.3474,7.3664,7.4044,7.4165,7.4279,5.4329,5.4838,5.5021,5.583,5.7215,5.8429,5.8924,5.8924,5.9121,5.9121,5.9417,6.1176,6.1508,6.0678,6.0777,6.033,5.9405,5.9291,5.9383,5.9383,5.9291,5.9291,5.9383,5.9749,6.0205,6.0659,6.1111,6.1808,6.2523,6.2612,6.2879,6.3233,6.3322,6.3675,6.4114,6.4527,6.4963,6.5421,6.5853,6.6112,6.6112,6.6112,6.6112,6.6112,6.6112,6.6086,6.5986,6.6086,6.6086,6.6011,6.5559,6.5283,6.5132,6.4254,6.3676,6.3683,6.3155,6.2991,6.3397,6.3453,6.3644,6.3966,6.4497,6.4763,6.4763,6.516,6.5371,6.5292,6.5345,6.545,6.545,6.5476,6.5634,6.6028,6.5949,6.6184,6.6626,6.7014,6.7157,6.6996,6.7292,6.7549,6.7516,6.7912,6.8382,6.8919,6.9104,6.9168,6.9279,6.9334,6.9334,6.9634,7.023,7.0996,7.1288,7.1507,7.1288,7.0996,7.0996,7.0996,7.0996,7.0996,7.1069,7.1215,7.1507,7.1623,7.1725,7.2014,7.2416,7.2773,7.3128,7.3551,7.4436,7.4698,7.4699,5.4125,5.4329,5.4635,5.5325,5.6333,5.7035,5.7514,5.7834,5.8231,5.8528,5.8924,5.9712,5.9851,5.9548,5.9905,5.9654,5.9038,5.9016,5.9016,5.9016,5.9016,5.9016,5.9016,5.9199,5.9566,6.0023,6.0568,6.1088,6.1718,6.2345,6.279,6.3257,6.3322,6.3498,6.4026,6.444,6.4988,6.5421,6.5853,6.6112,6.6112,6.6112,6.6112,6.6112,6.6112,6.5936,6.571,6.5936,6.5961,6.5685,6.571,6.5634,6.5308,6.4856,6.4479,6.4153,6.3651,6.3432,6.3596,6.3817,6.4189,6.4684,6.4786,6.4849,6.4823,6.4701,6.4601,6.4681,6.5079,6.5397,6.5397,6.5397,6.5476,6.5634,6.5634,6.5792,6.6264,6.6447,6.6626,6.6799,6.7157,6.7534,6.7722,6.8256,6.8805,6.9053,6.9081,6.9005,6.9081,6.9081,6.9081,6.9184,6.9559,6.9933,7.0378,7.0452,7.0452,7.0526,7.0526,7.0526,7.0526,7.0554,7.0628,7.082,7.0967,7.1142,7.1142,7.1507,7.1869,7.2273,7.2773,7.3369,7.3831,7.411,7.4238,5.3921,5.4125,5.4635,5.5021,5.5426,5.5931,5.6434,5.6815,5.7235,5.7514,5.7933,5.8032,5.8063,5.8117,5.8713,5.8714,5.8252,5.8185,5.8185,5.8185,5.8185,5.8278,5.837,5.8555,5.8924,5.9474,6.0023,6.0659,6.1382,6.2166,6.2879,6.3233,6.3322,6.3498,6.3851,6.4353,6.4876,6.5248,6.5767,6.6112,6.6112,6.6112,6.6112,6.6112,6.6112,6.5936,6.5534,6.5886,6.5936,6.5559,6.5911,6.5936,6.5559,6.5383,6.5057,6.4505,6.4128,6.3902,6.3902,6.4208,6.4526,6.488,6.4881,6.493,6.4751,6.45,6.4299,6.4225,6.4681,6.5,6.5079,6.5079,6.5079,6.5238,6.5238,6.5397,6.5792,6.5871,6.6185,6.6447,6.6861,6.7198,6.7584,6.8018,6.8323,6.8323,6.8351,6.8427,6.8427,6.8351,6.8351,6.8427,6.8427,6.8806,6.9334,6.9634,6.9709,7.0007,7.0156,7.0156,7.023,7.0304,7.0304,7.0526,7.0673,7.0747,7.0775,7.1069,7.1478,7.1869,7.2345,7.2744,7.2915,7.3199,7.348,5.3493,5.4023,5.4533,5.4838,5.4818,5.5426,5.5628,5.5729,5.5729,5.5729,5.5931,5.6333,5.6268,5.5976,5.7052,5.7006,5.6217,5.6226,5.6226,5.632,5.6226,5.6414,5.6883,5.7349,5.8093,5.8924,5.9474,6.0477,6.1742,6.2345,6.2879,6.3233,6.3233,6.3346,6.3498,6.4265,6.4702,6.4876,6.5681,6.6112,6.6112,6.6112,6.6112,6.6112,6.6112,6.6086,6.6061,6.6086,6.6086,6.6061,6.6086,6.6086,6.6011,6.5584,6.5082,6.458,6.4454,6.4429,6.4429,6.4513,6.4563,6.4588,6.4872,6.4869,6.4494,6.4511,6.4393,6.409,6.4039,6.4119,6.4119,6.428,6.4441,6.4786,6.4866,6.5,6.5397,6.5792,6.5976,6.6133,6.6447,6.6759,6.6837,6.6759,6.6993,6.6993,6.6915,6.6915,6.707,6.6993,6.6993,6.6993,6.707,6.7353,6.8731,6.9033,6.9231,6.9559,6.9784,6.9858,7.0082,7.0304,7.0304,7.0304,7.0378,7.0452,7.0452,7.0673,7.1012,7.1348,7.1538,7.1726,7.2143,7.2387,7.2673,5.3493,5.4023,5.4227,5.4329,5.4329,5.4533,5.4716,5.5041,5.5122,5.5325,5.5628,5.583,5.5688,5.5263,5.5696,5.571,5.5416,5.5198,5.5262,5.5546,5.5546,5.5829,5.632,5.6789,5.7349,5.8071,5.8831,6.0023,6.1382,6.1921,6.2345,6.279,6.3145,6.3322,6.341,6.4265,6.4702,6.4789,6.5681,6.6112,6.6112,6.6112,6.6112,6.6112,6.6112,6.6112,6.6112,6.6112,6.6112,6.6112,6.6112,6.6112,6.6086,6.5678,6.4986,6.4232,6.4413,6.4583,6.4583,6.4813,6.5157,6.5434,6.5025,6.4655,6.4327,6.388,6.3432,6.328,6.3311,6.323,6.3392,6.3716,6.428,6.4707,6.4786,6.492,6.5318,6.5555,6.5634,6.5713,6.595,6.6369,6.6603,6.6708,6.6708,6.6708,6.6708,6.6681,6.6708,6.6708,6.6681,6.6681,6.6681,6.6915,6.7353,6.8045,6.8503,6.9005,6.9334,6.9559,6.9784,6.9933,6.9933,7.023,7.023,7.0248,7.0294,7.012,7.0469,7.0813,7.0902,7.0933,7.1538,7.1554,7.1784,5.3493,5.3921,5.4023,5.4023,5.4023,5.4023,5.4227,5.4533,5.4533,5.4736,5.5021,5.5122,5.4963,5.4704,5.4544,5.4563,5.4508,5.4469,5.465,5.4938,5.4938,5.5321,5.5872,5.6125,5.6817,5.7732,5.8714,5.9931,6.1111,6.1652,6.21,6.2612,6.3056,6.3434,6.3586,6.4265,6.4789,6.505,6.5681,6.6026,6.594,6.5853,6.5767,6.5681,6.5656,6.5767,6.6112,6.6112,6.6112,6.6112,6.594,6.5767,6.5681,6.531,6.4926,6.4321,6.4445,6.4617,6.4703,6.5046,6.5378,6.5528,6.5098,6.463,6.4254,6.3525,6.3099,6.2898,6.2822,6.2822,6.2904,6.3311,6.3878,6.4466,6.4627,6.484,6.5318,6.5397,6.5397,6.5476,6.5634,6.595,6.6185,6.629,6.629,6.6264,6.629,6.629,6.629,6.629,6.629,6.6264,6.6185,6.6264,6.6577,6.7043,6.7738,6.8247,6.8703,6.893,6.9334,6.9484,6.9784,7.0007,7.0174,7.0192,6.9984,6.9753,6.9826,7.0125,6.9971,6.9789,7.0233,7.0475,7.062,5.3512,5.3921,5.4023,5.4023,5.4023,5.4023,5.4043,5.4023,5.4023,5.4125,5.4227,5.4125,5.4106,5.4028,5.3796,5.3561,5.3644,5.4085,5.426,5.4278,5.4298,5.4887,5.5703,5.5524,5.6369,5.8147,5.924,6.0205,6.1111,6.1652,6.21,6.2523,6.3056,6.3498,6.4002,6.444,6.4876,6.5335,6.5767,6.5853,6.5508,6.5421,6.5248,6.4876,6.4789,6.5137,6.594,6.6026,6.594,6.594,6.5594,6.5161,6.4789,6.4615,6.459,6.4391,6.4566,6.4566,6.4628,6.4902,6.4863,6.4676,6.4953,6.4571,6.3844,6.3626,6.3324,6.2923,6.2822,6.2822,6.2822,6.2904,6.323,6.3958,6.42,6.4521,6.5159,6.5397,6.5397,6.5397,6.5476,6.5397,6.5476,6.5555,6.5634,6.5555,6.5555,6.5555,6.5634,6.5634,6.5476,6.5476,6.5634,6.5792,6.5871,6.6107,6.681,6.7507,6.7815,6.8198,6.8779,6.9108,6.9484,6.9756,6.9903,6.9967,6.9377,6.91,6.8847,6.8931,6.8734,6.8806,6.9204,6.9518,6.932,5.3512,5.3921,5.4023,5.4023,5.4023,5.4023,5.4023,5.4023,5.4023,5.4023,5.4023,5.4023,5.4023,5.4004,5.3867,5.3828,5.3808,5.3956,5.4004,5.3827,5.3747,5.434,5.5164,5.5509,5.6708,5.8473,5.9055,5.9749,6.0726,6.1562,6.2011,6.2279,6.2902,6.3498,6.4026,6.444,6.4963,6.5335,6.5508,6.5508,6.536,6.5075,6.4789,6.4702,6.4353,6.4552,6.505,6.5137,6.5137,6.5137,6.4963,6.4527,6.3851,6.341,6.3145,6.2831,6.2785,6.2968,6.3133,6.33,6.351,6.3605,6.3732,6.3552,6.3261,6.316,6.2966,6.2847,6.2822,6.2822,6.2822,6.2822,6.3148,6.3958,6.4119,6.4441,6.5238,6.5397,6.5397,6.5397,6.5397,6.5397,6.5397,6.5397,6.5397,6.5397,6.5397,6.5397,6.5397,6.5397,6.5397,6.5397,6.5397,6.5476,6.5634,6.5713,6.6107,6.6732,6.7121,6.7584,6.8198,6.8703,6.9108,6.9384,6.9559,6.9332,6.8843,6.8393,6.8112,6.8084,6.8128,6.8268,6.8465,6.8481,6.8355,5.298,5.3717,5.3717,5.3819,5.4023,5.4023,5.4023,5.4023,5.4023,5.4023,5.4023,5.4023,5.4023,5.4023,5.4023,5.4023,5.4023,5.4023,5.3933,5.3683,5.3725,5.4305,5.5318,5.6091,5.7048,5.8379,5.887,5.9566,6.0477,6.1382,6.1921,6.21,6.2967,6.3763,6.4265,6.4726,6.5161,6.5335,6.5446,6.5248,6.4901,6.4465,6.409,6.3914,6.3498,6.3322,6.3386,6.3386,6.3738,6.4178,6.409,6.3586,6.279,6.2357,6.1972,6.1723,6.1458,6.1478,6.1669,6.1951,6.2068,6.23,6.2405,6.2529,6.2605,6.2645,6.2602,6.2741,6.2822,6.2822,6.2822,6.2822,6.3148,6.3958,6.4119,6.4521,6.5238,6.5397,6.5397,6.5397,6.5397,6.5397,6.5397,6.5397,6.5397,6.5397,6.5397,6.5397,6.5397,6.5397,6.5397,6.5397,6.5397,6.5397,6.5397,6.5476,6.5555,6.595,6.6342,6.6966,6.7584,6.8094,6.8475,6.8744,6.8899,6.8473,6.7956,6.7578,6.7241,6.7382,6.7522,6.7466,6.7494,6.7578,6.7537,5.2157,5.3083,5.3185,5.339,5.3921,5.3921,5.3921,5.3921,5.3921,5.3921,5.3921,5.3921,5.3921,5.3921,5.4023,5.4023,5.4023,5.4023,5.4004,5.3926,5.4028,5.4496,5.5588,5.6655,5.7592,5.83,5.8822,5.9566,6.0659,6.1472,6.1921,6.21,6.3322,6.4178,6.4615,6.5137,6.5248,6.5335,6.5273,6.4726,6.4026,6.3498,6.2967,6.2612,6.21,6.1742,6.1449,6.1359,6.1987,6.3386,6.2766,6.2142,6.169,6.1315,6.0926,6.0744,6.0429,6.0282,6.0322,6.0592,6.0834,6.0856,6.1268,6.1688,6.1878,6.2134,6.2413,6.2659,6.2741,6.2822,6.2822,6.2822,6.323,6.3878,6.42,6.4681,6.5238,6.5397,6.5397,6.5397,6.5397,6.5397,6.5397,6.5397,6.5397,6.5397,6.5397,6.5397,6.5397,6.5397,6.5397,6.5397,6.5397,6.5397,6.5397,6.5397,6.5476,6.5634,6.595,6.6342,6.6963,6.7449,6.7865,6.8059,6.8082,6.7557,6.724,6.6918,6.6792,6.6876,6.6848,6.6623,6.6707,6.6932,6.7016,5.1537,5.2588,5.2588,5.2897,5.339,5.339,5.339,5.339,5.339,5.339,5.339,5.339,5.3615,5.3921,5.3921,5.4023,5.3921,5.3921,5.4023,5.4023,5.4023,5.4635,5.5648,5.6815,5.7838,5.8606,5.8933,5.9635,6.0931,6.1562,6.21,6.2434,6.3498,6.429,6.4702,6.4876,6.5075,6.5161,6.429,6.3787,6.341,6.2636,6.21,6.1538,6.1088,6.0726,6.0545,5.9886,6.0068,6.1155,6.0794,6.0248,5.9882,5.9383,5.902,5.8678,5.8422,5.8476,5.8779,5.8872,5.9022,5.9394,6.0098,6.0652,6.0782,6.1672,6.2167,6.2413,6.2577,6.2822,6.2822,6.2822,6.3148,6.3635,6.436,6.5,6.5318,6.5397,6.5397,6.5397,6.5397,6.5397,6.5397,6.5397,6.5397,6.5397,6.5397,6.5397,6.5397,6.5397,6.5397,6.5397,6.5397,6.5397,6.5397,6.5397,6.5397,6.5397,6.5634,6.5792,6.6312,6.6796,6.7223,6.7516,6.729,6.6867,6.6832,6.6679,6.6595,6.6595,6.6595,6.6595,6.6595,6.6707,6.6735,5.0394,5.1659,5.1659,5.2176,5.2775,5.2878,5.2897,5.2878,5.2878,5.2897,5.2878,5.2897,5.2999,5.3307,5.3307,5.3307,5.3307,5.3307,5.3313,5.3488,5.3838,5.4563,5.5505,5.669,5.7817,5.8562,5.8911,5.9794,6.1021,6.1652,6.2279,6.2967,6.3851,6.444,6.4702,6.4876,6.4901,6.4639,6.3763,6.3257,6.2967,6.1897,6.1292,6.0726,6.0091,5.9452,5.8901,5.8141,5.8234,5.8834,5.8769,5.8431,5.8344,5.7738,5.7335,5.7201,5.7017,5.7033,5.725,5.7434,5.7728,5.8243,5.8903,5.9581,6.0171,6.1008,6.1423,6.2167,6.2413,6.2577,6.2847,6.2985,6.323,6.3554,6.428,6.492,6.5159,6.5159,6.5238,6.5318,6.5397,6.5371,6.5371,6.5371,6.5397,6.5397,6.5397,6.5397,6.5397,6.5397,6.5397,6.5397,6.5397,6.5397,6.5397,6.5397,6.5397,6.5397,6.5476,6.5555,6.5869,6.6327,6.6499,6.6723,6.654,6.639,6.6523,6.6581,6.6595,6.6595,6.6595,6.6595,6.6595,6.6595,6.6595,4.9017,5.0394,5.0498,5.1122,5.2073,5.2176,5.2176,5.2279,5.2279,5.2279,5.2279,5.2279,5.2382,5.2382,5.2588,5.2485,5.2485,5.2588,5.2527,5.2893,5.3467,5.4264,5.4881,5.6537,5.7581,5.8256,5.8777,5.9954,6.1202,6.1831,6.2547,6.3322,6.4265,6.4615,6.4702,6.4963,6.4726,6.4026,6.3322,6.2701,6.2166,6.1088,6.0387,5.9726,5.8533,5.7629,5.6861,5.6256,5.6171,5.7104,5.6827,5.6841,5.7031,5.6216,5.6109,5.6243,5.6108,5.595,5.6103,5.6562,5.6864,5.7297,5.7791,5.8477,5.9497,6.0003,6.0722,6.1844,6.2101,6.248,6.2916,6.3275,6.3387,6.3443,6.3797,6.4119,6.4521,6.4681,6.484,6.5212,6.5238,6.5212,6.5212,6.5212,6.5212,6.492,6.5079,6.5159,6.5238,6.5318,6.5397,6.5397,6.5397,6.5397,6.5397,6.5397,6.5397,6.5397,6.5397,6.5503,6.566,6.5914,6.5963,6.6094,6.6267,6.6353,6.6393,6.6439,6.6539,6.6595,6.6595,6.6595,6.6595,6.6595,6.6595,4.7964,4.8807,4.9226,4.9977,5.0914,5.1037,5.133,5.164,5.164,5.1622,5.164,5.164,5.1847,5.2279,5.2176,5.2382,5.2157,5.2222,5.2443,5.2531,5.281,5.345,5.4215,5.5951,5.7302,5.8176,5.9102,6.0364,6.1562,6.2547,6.3233,6.3851,6.4353,6.4702,6.4615,6.4353,6.4026,6.3434,6.2636,6.1831,6.1088,6.0273,5.9291,5.8256,5.6767,5.6017,5.5482,5.4738,5.4435,5.4695,5.5108,5.53,5.4926,5.4582,5.455,5.4626,5.4917,5.5093,5.5533,5.5906,5.6255,5.6429,5.7101,5.7619,5.7963,5.9097,6.005,6.1159,6.1894,6.2538,6.3177,6.3558,6.3306,6.3004,6.2985,6.323,6.3716,6.4039,6.428,6.4441,6.4441,6.436,6.4441,6.4441,6.4441,6.4441,6.4601,6.484,6.5,6.5159,6.5159,6.5159,6.5159,6.5079,6.5079,6.5159,6.5238,6.5318,6.5397,6.5371,6.5608,6.5788,6.5952,6.6072,6.6173,6.6249,6.6425,6.6239,6.6312,6.6468,6.6623,6.6595,6.6525,6.6595,6.6595,4.6375,4.7419,4.7964,4.8912,4.9768,4.9872,5.0063,5.0254,5.0376,5.0376,5.0376,5.0272,5.048,5.081,5.0792,5.081,5.0804,5.1005,5.1041,5.1314,5.181,5.258,5.3665,5.5333,5.6946,5.7935,5.9105,6.0545,6.1987,6.2991,6.3586,6.4265,6.4527,6.4353,6.4114,6.3763,6.3322,6.2523,6.1742,6.0931,6.0477,5.9268,5.7978,5.6674,5.5451,5.4883,5.4577,5.3595,5.3099,5.2968,5.3302,5.3638,5.352,5.3337,5.3374,5.3562,5.3765,5.421,5.4652,5.5093,5.5445,5.5708,5.6407,5.7,5.7462,5.8397,5.9406,6.0472,6.1472,6.2359,6.2953,6.2771,6.2522,6.2291,6.2167,6.2331,6.2634,6.3311,6.3878,6.4039,6.4119,6.4119,6.4119,6.3878,6.3958,6.4119,6.42,6.436,6.4441,6.4601,6.4601,6.4601,6.4681,6.4681,6.4761,6.484,6.5,6.5159,6.5238,6.5318,6.5477,6.5738,6.6044,6.6097,6.6114,6.6356,6.6414,6.6308,6.6235,6.652,6.6677,6.6524,6.6525,6.6595,6.6595,4.479,4.6146,4.6923,4.7805,4.879,4.8913,4.9176,4.9229,4.9194,4.9458,4.9105,4.9105,4.9438,4.9122,4.9226,4.8999,4.9064,4.9302,4.9745,5.0071,5.0968,5.2031,5.3387,5.5091,5.6803,5.7885,5.9521,6.1155,6.2434,6.3233,6.4026,6.4527,6.444,6.4114,6.3498,6.308,6.2636,6.1742,6.0998,6.0273,5.9817,5.844,5.6954,5.5451,5.4598,5.4122,5.3658,5.2856,5.2093,5.1785,5.1715,5.2231,5.2707,5.2716,5.2581,5.3051,5.314,5.3409,5.3854,5.4188,5.4542,5.5071,5.5754,5.6284,5.7016,5.7747,5.8747,5.9926,6.0964,6.1834,6.2152,6.1988,6.1703,6.1531,6.1506,6.1506,6.1647,6.2577,6.3148,6.3473,6.3311,6.3123,6.3311,6.323,6.3554,6.3716,6.3797,6.3797,6.3878,6.3958,6.4039,6.42,6.428,6.4441,6.4441,6.4441,6.4601,6.4761,6.5,6.5159,6.5318,6.5503,6.5763,6.5938,6.6124,6.6379,6.6548,6.6505,6.6595,6.6691,6.6672,6.6536,6.6552,6.6553,6.6595,4.4038,4.4468,4.5966,4.72,4.8096,4.8557,4.9282,4.9885,4.985,4.9832,4.9425,4.9513,4.9159,4.8982,4.9017,4.8857,4.8642,4.8729,4.9071,4.9497,5.0365,5.156,5.3532,5.5225,5.7163,5.9222,6.0703,6.2053,6.3145,6.4002,6.4265,6.444,6.3939,6.3434,6.308,6.2547,6.1742,6.0931,6.0364,5.9817,5.8831,5.7792,5.6486,5.4788,5.3856,5.3377,5.2988,5.2208,5.1813,5.2093,5.1785,5.1938,5.2292,5.2085,5.2208,5.2554,5.2665,5.2956,5.323,5.3409,5.3498,5.3851,5.4713,5.5421,5.5997,5.6933,5.8029,5.9151,6.0333,6.1423,6.2263,6.1643,6.1506,6.1404,6.1282,6.1257,6.134,6.1564,6.1837,6.1919,6.1895,6.2059,6.2224,6.2306,6.2306,6.2388,6.2552,6.2634,6.2716,6.3067,6.3473,6.3716,6.3958,6.4039,6.4119,6.4119,6.42,6.42,6.4441,6.484,6.5,6.5238,6.5451,6.5684,6.6042,6.6438,6.6541,6.6617,6.6633,6.6652,6.6602,6.6545,6.6564,6.6538,6.6581,4.296,4.3623,4.5183,4.6563,4.75,4.835,4.8846,4.92,4.9151,4.8852,4.8768,4.8576,4.8384,4.8228,4.8193,4.8089,4.8051,4.8065,4.8452,4.9089,5.0001,5.1553,5.3559,5.5358,5.7863,6.0068,6.1695,6.2701,6.3586,6.4026,6.4202,6.3939,6.3498,6.2991,6.2166,6.1472,6.084,6.0091,5.9566,5.8924,5.7814,5.6976,5.5567,5.4428,5.3473,5.2896,5.2411,5.1709,5.13,5.1372,5.132,5.1423,5.1544,5.1788,5.1933,5.2387,5.2507,5.2563,5.2845,5.2872,5.2961,5.3294,5.4127,5.4672,5.5133,5.6069,5.726,5.8481,5.9197,6.0072,6.0489,6.0357,6.0206,6.0099,6.0171,6.0171,6.0171,6.0171,6.0255,6.0423,6.0841,6.115,6.115,6.115,6.0983,6.1066,6.1316,6.1482,6.1564,6.1977,6.247,6.2634,6.2797,6.2904,6.3067,6.323,6.3473,6.3635,6.3958,6.428,6.4681,6.5,6.5238,6.5529,6.5972,6.6303,6.6427,6.6514,6.6562,6.6602,6.6523,6.6459,6.6568,6.6619,6.6748,4.1985,4.3083,4.4433,4.5834,4.7114,4.7908,4.8472,4.8615,4.8358,4.8277,4.7998,4.769,4.7573,4.7382,4.7419,4.7475,4.7531,4.7496,4.7944,4.8591,4.993,5.152,5.3546,5.5976,5.8363,6.0502,6.1987,6.3056,6.3763,6.3851,6.3498,6.3056,6.2902,6.2166,6.0998,6.0454,5.9931,5.9291,5.8647,5.7814,5.6883,5.5944,5.4735,5.376,5.3185,5.2704,5.2065,5.1442,5.1092,5.1091,5.1046,5.1115,5.117,5.1549,5.1892,5.2364,5.2497,5.2504,5.2681,5.2667,5.289,5.3056,5.3575,5.4047,5.457,5.5371,5.6474,5.771,5.7963,5.851,5.8884,5.8718,5.8718,5.8927,5.9012,5.8841,5.9012,5.9073,5.9158,5.9497,5.9919,6.0087,6.0147,6.0147,5.9979,6.0003,6.0171,6.0255,6.0423,6.0817,6.115,6.1233,6.1399,6.1399,6.1672,6.2167,6.2495,6.2904,6.3311,6.3797,6.42,6.4681,6.492,6.5238,6.5608,6.5895,6.6103,6.6335,6.6419,6.6423,6.6358,6.6352,6.6423,6.6829,6.7206,4.1659,4.2419,4.3547,4.5103,4.6729,4.7483,4.8434,4.9334,4.8991,4.8734,4.8306,4.7998,4.7621,4.7433,4.7365,4.7247,4.7112,4.7444,4.7739,4.8171,4.9823,5.1485,5.3527,5.6896,5.8547,6.0225,6.1702,6.308,6.341,6.3233,6.279,6.2077,6.1268,6.0545,5.9886,5.936,5.8924,5.8463,5.7792,5.6976,5.585,5.5399,5.4428,5.3473,5.2992,5.2511,5.1717,5.1308,5.1308,5.1308,5.1289,5.154,5.1946,5.2042,5.2188,5.2282,5.2409,5.257,5.293,5.3031,5.2907,5.3015,5.347,5.3885,5.4209,5.479,5.5785,5.6771,5.6481,5.6621,5.7542,5.7722,5.8032,5.8306,5.8477,5.8562,5.8671,5.8415,5.85,5.85,5.8903,5.8988,5.8988,5.8988,5.8988,5.9012,5.9097,5.9182,5.9412,5.9835,6.0063,6.0231,6.0315,6.0399,6.0674,6.1008,6.1506,6.2002,6.2659,6.323,6.3635,6.4119,6.4601,6.492,6.5238,6.5476,6.5634,6.5817,6.61,6.6196,6.6083,6.6164,6.623,6.6835,6.7485,4.1115,4.1783,4.3162,4.4503,4.5859,4.7279,4.8206,4.8722,4.8796,4.8529,4.8152,4.7775,4.7519,4.7382,4.7365,4.7279,4.723,4.7406,4.7634,4.8141,4.9584,5.1229,5.2979,5.5532,5.7667,5.9311,6.0088,6.057,6.1452,6.1897,6.1628,6.0703,6.025,5.9726,5.8879,5.8348,5.7885,5.7349,5.6695,5.5944,5.5399,5.4925,5.4258,5.3089,5.2992,5.2414,5.1639,5.1445,5.1445,5.1445,5.1445,5.1426,5.1717,5.1794,5.1889,5.2232,5.2223,5.2451,5.2681,5.3034,5.3095,5.3075,5.3447,5.3831,5.3924,5.4192,5.4528,5.4689,5.5184,5.5732,5.6175,5.6455,5.6996,5.747,5.7791,5.7986,5.8072,5.8072,5.7986,5.79,5.7986,5.8072,5.8158,5.8243,5.8329,5.8477,5.8562,5.8647,5.8818,5.9158,5.9243,5.9327,5.9412,5.9412,5.975,6.0087,6.059,6.1174,6.2002,6.2577,6.3067,6.3554,6.4039,6.428,6.4521,6.4761,6.5,6.5265,6.5424,6.566,6.5866,6.5855,6.5967,6.6644,6.7283,4.0693,4.1254,4.2695,4.3863,4.5072,4.6901,4.7835,4.8088,4.8295,4.8204,4.7895,4.757,4.7382,4.7365,4.7365,4.7347,4.7347,4.7365,4.7576,4.8316,4.9209,5.0505,5.2298,5.4405,5.6467,5.8074,5.8859,5.8946,5.8937,5.9242,5.9312,5.8993,5.8787,5.844,5.7792,5.7328,5.6883,5.6414,5.5755,5.5304,5.483,5.4524,5.376,5.3089,5.2704,5.2414,5.1542,5.1445,5.1445,5.1445,5.1445,5.1426,5.1426,5.1523,5.162,5.1929,5.2062,5.2248,5.2553,5.2956,5.3281,5.3489,5.3551,5.3716,5.3665,5.3695,5.3638,5.3535,5.3895,5.4445,5.474,5.5357,5.5993,5.6516,5.6864,5.7037,5.7297,5.747,5.7665,5.7728,5.7728,5.7642,5.7642,5.7556,5.7728,5.79,5.8049,5.8134,5.8306,5.85,5.85,5.8562,5.8562,5.8562,5.8903,5.9243,5.9666,6.0255,6.1174,6.1837,6.2331,6.2904,6.3392,6.3635,6.3797,6.3878,6.4039,6.436,6.4681,6.4896,6.5162,6.5398,6.5734,6.64,6.7159,4.049,4.0708,4.1798,4.3193,4.4612,4.5824,4.6814,4.7608,4.7812,4.7874,4.7844,4.7553,4.7365,4.7365,4.7365,4.7365,4.7365,4.7365,4.747,4.7893,4.8596,4.9696,5.136,5.3356,5.53,5.6004,5.6959,5.7038,5.6507,5.6295,5.6714,5.6947,5.6954,5.658,5.6277,5.5859,5.5555,5.5157,5.4853,5.4515,5.406,5.3699,5.3316,5.2567,5.2298,5.2008,5.1426,5.1445,5.1445,5.1445,5.1445,5.1445,5.1445,5.1445,5.1523,5.162,5.1911,5.2062,5.2403,5.3032,5.3583,5.3756,5.3705,5.3529,5.3395,5.3282,5.3207,5.3135,5.3273,5.3537,5.4121,5.4719,5.5181,5.5708,5.6255,5.669,5.6951,5.721,5.7406,5.7493,5.747,5.747,5.747,5.747,5.747,5.7728,5.7728,5.7814,5.7728,5.79,5.7814,5.7728,5.7728,5.7814,5.8134,5.8477,5.8988,5.9581,6.0423,6.1008,6.1423,6.2084,6.2741,6.2904,6.2985,6.2985,6.3067,6.323,6.3554,6.4039,6.4363,6.45,6.503,6.5712,6.6749,4.0147,4.0584,4.1333,4.2276,4.3473,4.4673,4.5731,4.6698,4.7245,4.7472,4.7587,4.7433,4.7365,4.7365,4.7365,4.7365,4.7365,4.7365,4.7365,4.7576,4.8193,4.8912,5.0248,5.1482,5.2825,5.3602,5.4622,5.4789,5.4122,5.3811,5.3431,5.3766,5.4693,5.4978,5.4652,5.416,5.3772,5.3575,5.3337,5.2972,5.3046,5.2896,5.2691,5.2278,5.2181,5.1911,5.1523,5.1445,5.1445,5.1445,5.1445,5.1445,5.1445,5.1445,5.1445,5.1445,5.162,5.1814,5.2201,5.2876,5.3275,5.3249,5.308,5.3005,5.3041,5.2652,5.258,5.2554,5.2604,5.2872,5.3119,5.3833,5.4475,5.5093,5.5621,5.6168,5.6603,5.6864,5.721,5.7297,5.7383,5.747,5.747,5.747,5.747,5.747,5.747,5.747,5.747,5.747,5.747,5.747,5.747,5.747,5.7814,5.8049,5.8306,5.8988,5.9666,6.0087,6.0674,6.1448,6.1919,6.2084,6.2084,6.1977,6.1977,6.2002,6.2331,6.2797,6.3204,6.3397,6.4042,6.4868,6.5739,3.9818,4.0256,4.0803,4.1576,4.2428,4.3753,4.473,4.5611,4.658,4.7105,4.7365,4.7365,4.7365,4.7365,4.7365,4.7365,4.7365,4.7365,4.7365,4.7576,4.7788,4.8298,4.8929,4.9764,5.0808,5.1368,5.1726,5.1869,5.1558,5.1361,5.1208,5.1543,5.2181,5.276,5.3255,5.2665,5.2329,5.2228,5.1966,5.1812,5.2078,5.2063,5.2072,5.1929,5.1911,5.1814,5.1523,5.1445,5.1445,5.1445,5.1445,5.1445,5.1445,5.1445,5.1445,5.1445,5.1426,5.162,5.2008,5.2607,5.2992,5.2988,5.2847,5.289,5.2735,5.2372,5.2303,5.2454,5.2444,5.2333,5.2402,5.3119,5.3744,5.4365,5.4895,5.5445,5.5971,5.6429,5.6777,5.7124,5.721,5.7297,5.747,5.747,5.747,5.747,5.747,5.747,5.747,5.747,5.747,5.747,5.747,5.747,5.7556,5.7728,5.7986,5.8306,5.8903,5.9327,5.9835,6.059,6.0924,6.0841,6.0817,6.09,6.0817,6.065,6.1066,6.1647,6.187,6.2199,6.2854,6.3665,6.4148,3.9585,3.9695,4.0256,4.0803,4.1486,4.3192,4.3962,4.4441,4.5819,4.6762,4.7153,4.7259,4.7259,4.7259,4.7259,4.7259,4.7365,4.7365,4.7365,4.747,4.7365,4.7788,4.8035,4.8578,4.8784,4.9313,4.9629,4.9551,4.9173,4.9573,4.9449,4.9503,5.0255,5.1134,5.2142,5.2263,5.2254,5.2173,5.1812,5.1589,5.1563,5.1567,5.1516,5.1619,5.1523,5.1523,5.1426,5.1445,5.1445,5.1445,5.1445,5.1445,5.1445,5.1445,5.1445,5.1445,5.1445,5.1426,5.1542,5.2414,5.2704,5.28,5.2467,5.2751,5.2918,5.2617,5.2374,5.2569,5.2213,5.2104,5.2333,5.2581,5.3209,5.3655,5.4188,5.4807,5.5357,5.5708,5.6058,5.669,5.6864,5.6951,5.7297,5.747,5.747,5.747,5.747,5.747,5.747,5.747,5.747,5.747,5.747,5.747,5.747,5.747,5.7642,5.7963,5.8306,5.8733,5.8988,5.9497,5.9666,5.9642,5.9726,5.9979,5.9581,5.9243,5.9726,6.0315,6.065,6.1066,6.173,6.2388,6.2854,3.8596,3.9036,3.9585,4.0037,4.0351,4.155,4.2744,4.4038,4.5218,4.6073,4.6196,4.6302,4.6498,4.6728,4.694,4.7046,4.7365,4.7365,4.7365,4.7365,4.7029,4.6754,4.6846,4.6726,4.6643,4.6786,4.7268,4.7606,4.7362,4.7831,4.8153,4.8215,4.8996,4.9961,5.094,5.1228,5.128,5.1201,5.0945,5.0751,5.1029,5.1108,5.1189,5.1406,5.1445,5.1445,5.1445,5.1445,5.1445,5.1445,5.1445,5.1445,5.1445,5.1445,5.1445,5.1445,5.1445,5.1445,5.1426,5.1814,5.1911,5.2027,5.2104,5.2335,5.2806,5.2236,5.232,5.2508,5.2093,5.2006,5.1972,5.2423,5.2761,5.294,5.3387,5.4099,5.463,5.4895,5.5247,5.608,5.6516,5.6951,5.7297,5.747,5.747,5.747,5.747,5.747,5.747,5.747,5.747,5.747,5.747,5.747,5.747,5.747,5.747,5.7728,5.7963,5.822,5.8562,5.8733,5.8903,5.8988,5.8988,5.8988,5.8818,5.8647,5.8562,5.8903,5.9473,5.9979,6.065,6.115,6.1564,3.8046,3.8486,3.9036,3.9256,3.9475,4.0679,4.2202,4.3608,4.4468,4.4897,4.5342,4.5449,4.5646,4.6073,4.6392,4.6605,4.7135,4.7365,4.7153,4.7118,4.6559,4.6179,4.5678,4.5146,4.5211,4.5064,4.5256,4.5499,4.5531,4.6139,4.6723,4.7464,4.8304,4.9076,4.9829,5.0184,5.0705,5.0683,5.0564,5.0466,5.0779,5.0859,5.1016,5.1308,5.1445,5.1445,5.1445,5.1445,5.1445,5.1445,5.1445,5.1445,5.1445,5.1445,5.1445,5.1445,5.1445,5.1445,5.1426,5.1426,5.1523,5.1542,5.1426,5.1833,5.2351,5.1863,5.2067,5.222,5.1993,5.1866,5.1791,5.2242,5.2333,5.2492,5.2761,5.3476,5.3833,5.4188,5.463,5.5445,5.608,5.6603,5.7124,5.7383,5.747,5.747,5.747,5.747,5.747,5.747,5.747,5.747,5.747,5.747,5.747,5.747,5.747,5.747,5.7728,5.7963,5.7986,5.8158,5.8243,5.8329,5.8329,5.8329,5.8243,5.8134,5.8158,5.8158,5.8391,5.8988,5.9581,6.0003,6.0399,3.7715,3.7825,3.8362,3.8692,3.8912,4.0336,4.1768,4.2944,4.3052,4.3699,4.4683,4.4592,4.4897,4.5539,4.6073,4.6286,4.6498,4.694,4.6834,4.6398,4.5984,4.5484,4.4936,4.4479,4.3822,4.3801,4.3876,4.3744,4.3618,4.4971,4.5962,4.6611,4.7591,4.8286,4.8848,4.9365,5.0146,5.0455,5.0703,5.0683,5.0898,5.0918,5.1113,5.1348,5.1445,5.1445,5.1445,5.1445,5.1445,5.1445,5.1445,5.1445,5.1445,5.1445,5.1445,5.1445,5.1445,5.1445,5.1445,5.1445,5.1445,5.1426,5.1348,5.1678,5.1827,5.1558,5.1705,5.1881,5.1719,5.1726,5.1701,5.1882,5.2062,5.2242,5.2402,5.2851,5.323,5.3566,5.401,5.463,5.5269,5.5883,5.6603,5.7037,5.732,5.7383,5.7383,5.747,5.747,5.747,5.747,5.747,5.747,5.747,5.747,5.747,5.747,5.747,5.747,5.7642,5.7642,5.7642,5.7814,5.79,5.7642,5.7642,5.7814,5.7728,5.7642,5.7728,5.79,5.8243,5.8903,5.8988,5.9243,3.7162,3.7273,3.7825,3.8046,3.8156,3.9022,4.0336,4.1753,4.2295,4.2744,4.296,4.2944,4.3592,4.4361,4.4575,4.5111,4.5646,4.5966,4.5966,4.571,4.5094,4.4337,4.3624,4.2869,4.2118,4.1794,4.1786,4.2182,4.2684,4.3958,4.4969,4.5674,4.6694,4.7392,4.8051,4.8651,4.9576,5.0299,5.0629,5.0881,5.1056,5.1095,5.1231,5.1289,5.1445,5.1445,5.1445,5.1445,5.1445,5.1445,5.1445,5.1445,5.1445,5.1445,5.1445,5.1445,5.1445,5.1445,5.1445,5.1445,5.1406,5.1328,5.1172,5.1285,5.1375,5.1305,5.1109,5.1307,5.1291,5.1168,5.1338,5.152,5.1701,5.1882,5.2062,5.2242,5.2602,5.2961,5.3476,5.4099,5.4741,5.5445,5.6168,5.669,5.6973,5.706,5.7233,5.7406,5.7493,5.7493,5.747,5.747,5.747,5.747,5.747,5.747,5.747,5.747,5.747,5.747,5.7556,5.7556,5.747,5.747,5.747,5.747,5.7556,5.747,5.747,5.747,5.7642,5.79,5.8158,5.8243,5.8477,3.7114,3.7114,3.7448,3.7727,3.7839,3.8156,3.9132,4.0227,4.0882,4.1224,4.1535,4.1768,4.231,4.3176,4.35,4.4146,4.4897,4.5202,4.526,4.4891,4.4117,4.3325,4.2346,4.151,4.0935,4.0455,4.0497,4.094,4.1628,4.2738,4.3856,4.4885,4.5708,4.6511,4.7292,4.797,4.8762,4.9629,5.0217,5.0842,5.1037,5.1134,5.1231,5.1328,5.1328,5.1348,5.1328,5.1328,5.1348,5.1348,5.1445,5.1445,5.1445,5.1445,5.1445,5.1445,5.1445,5.1445,5.1445,5.1445,5.1348,5.1172,5.0937,5.0836,5.0617,5.0432,5.0589,5.0795,5.0618,5.0611,5.0975,5.1248,5.1338,5.152,5.161,5.1701,5.2062,5.2423,5.2961,5.3587,5.4298,5.5005,5.5621,5.6168,5.6539,5.6603,5.6777,5.706,5.7233,5.7406,5.7493,5.747,5.747,5.747,5.747,5.747,5.747,5.747,5.747,5.747,5.747,5.747,5.747,5.747,5.747,5.747,5.747,5.747,5.747,5.747,5.747,5.7642,5.7814,5.7814,5.8072,3.7422,3.7296,3.727,3.7306,3.7521,3.7494,3.7935,3.8582,3.9146,3.9804,4.0336,4.0897,4.1442,4.2093,4.2512,4.3176,4.3715,4.4146,4.4061,4.4043,4.312,4.2262,4.1379,4.0593,4.0072,4.0011,4.0099,3.9981,4.0394,4.1628,4.306,4.4093,4.4784,4.549,4.6193,4.7193,4.7889,4.8286,4.9076,4.9686,5.0451,5.0646,5.0842,5.1134,5.1134,5.1231,5.1231,5.1231,5.1251,5.1251,5.1328,5.1231,5.1426,5.1445,5.1445,5.1445,5.1445,5.1445,5.1387,5.1348,5.1133,5.0937,5.0723,5.0293,4.9996,4.9914,5.0131,5.0265,5.0091,5.0245,5.0519,5.0702,5.0884,5.1157,5.1338,5.152,5.1882,5.2242,5.2692,5.3319,5.3765,5.4387,5.4652,5.5093,5.5708,5.5993,5.6516,5.68,5.706,5.7233,5.7406,5.747,5.747,5.747,5.747,5.747,5.747,5.747,5.747,5.747,5.747,5.747,5.747,5.747,5.747,5.747,5.747,5.747,5.747,5.747,5.747,5.747,5.7556,5.7556,5.7728,3.7489,3.691,3.625,3.5992,3.5844,3.5831,3.6165,3.6719,3.7273,3.8156,3.9132,3.9804,4.0351,4.0882,4.1427,4.1985,4.2527,4.2774,4.2619,4.2401,4.1847,4.125,4.0362,3.9821,3.9389,3.9063,3.8959,3.9271,3.9877,4.0909,4.1952,4.2566,4.3569,4.4599,4.5188,4.6293,4.6811,4.7093,4.7609,4.8601,4.9686,4.998,5.0176,5.0255,5.0353,5.0315,5.0315,5.0334,5.0274,5.0274,5.0666,5.0939,5.1328,5.1328,5.1445,5.1445,5.1426,5.1426,5.1308,5.1152,5.0898,5.0586,5.0293,4.9883,4.959,4.9551,4.9581,4.9584,4.9795,4.9899,5.0062,5.0245,5.0428,5.0702,5.1046,5.1429,5.1701,5.2152,5.2513,5.2872,5.323,5.3498,5.3744,5.4188,5.4719,5.5445,5.6342,5.6777,5.6951,5.7124,5.7383,5.747,5.747,5.747,5.747,5.747,5.747,5.747,5.747,5.747,5.747,5.747,5.747,5.747,5.747,5.747,5.747,5.747,5.747,5.747,5.747,5.747,5.747,5.7556,5.7556,3.7146,3.642,3.5696,3.5316,3.5177,3.5164,3.5387,3.572,3.6276,3.6941,3.7715,3.8692,3.9351,3.968,4.0009,4.0788,4.1288,4.1262,4.1529,4.1347,4.0831,4.0363,3.9763,3.9256,3.8989,3.8543,3.8543,3.8841,3.9463,4.0084,4.0909,4.1747,4.2872,4.3687,4.438,4.5087,4.5608,4.5992,4.6311,4.731,4.8601,4.8879,4.9339,4.9516,4.9617,4.9598,4.9598,4.9617,4.9731,4.9923,5.0274,5.0568,5.0939,5.1037,5.1231,5.1328,5.1406,5.1348,5.1152,5.0898,5.0605,5.0215,4.9941,4.9551,4.9219,4.916,4.9141,4.9295,4.9275,4.94,4.94,4.9512,4.9787,5.0062,5.0519,5.0975,5.1429,5.1972,5.2152,5.2242,5.2602,5.294,5.3119,5.3498,5.401,5.4454,5.5445,5.6255,5.6516,5.6951,5.721,5.7383,5.747,5.747,5.747,5.747,5.747,5.747,5.747,5.747,5.747,5.747,5.747,5.747,5.747,5.747,5.747,5.747,5.747,5.747,5.747,5.747,5.747,5.747,5.747,3.6755,3.5838,3.5219,3.4966,3.4941,3.4941,3.5052,3.5164,3.5609,3.5943,3.6165,3.7591,3.8252,3.8582,3.8692,3.9461,3.9936,3.9951,4.0276,4.027,3.9942,3.9449,3.9032,3.8751,3.8529,3.8321,3.8217,3.8529,3.9048,3.9463,4.0084,4.1218,4.1833,4.2243,4.3263,4.4177,4.4767,4.4986,4.5389,4.611,4.6793,4.7437,4.8091,4.8671,4.8891,4.8872,4.8872,4.8832,4.9001,4.9095,4.9189,4.9755,5.0028,5.03,5.063,5.0707,5.0765,5.0745,5.0781,5.0566,5.0156,4.9766,4.957,4.9297,4.8965,4.8887,4.8979,4.8959,4.8959,4.894,4.894,4.9032,4.9328,4.9696,5.0245,5.0793,5.1338,5.1791,5.1791,5.1882,5.2062,5.2402,5.2602,5.2872,5.3319,5.3744,5.4387,5.5093,5.5818,5.6516,5.7037,5.721,5.7383,5.7383,5.747,5.747,5.747,5.747,5.747,5.747,5.747,5.747,5.747,5.747,5.747,5.747,5.747,5.747,5.747,5.7406,5.747,5.747,5.747,5.747,5.747,3.6243,3.5191,3.4402,3.3919,3.3836,3.3812,3.4035,3.4495,3.4606,3.4941,3.5387,3.5707,3.6484,3.7935,3.8472,3.8912,3.8856,3.8792,3.8495,3.8305,3.8571,3.8387,3.8199,3.8217,3.8112,3.7904,3.7591,3.7591,3.8112,3.8543,3.9048,3.9877,4.0909,4.1423,4.2038,4.2856,4.3349,4.3755,4.4076,4.4481,4.5068,4.5748,4.643,4.661,4.6492,4.6384,4.6312,4.6312,4.6366,4.6597,4.7272,4.8182,4.8799,4.9223,4.9416,4.9858,5.0011,5.0087,5.0027,4.9908,4.95,4.9512,4.9297,4.9062,4.8867,4.8867,4.8867,4.8867,4.894,4.894,4.894,4.894,4.9144,4.9787,5.0337,5.0975,5.1631,5.1701,5.1791,5.1791,5.1882,5.2062,5.2062,5.2423,5.2782,5.3298,5.401,5.4741,5.5357,5.6058,5.6777,5.7037,5.721,5.7383,5.747,5.747,5.747,5.747,5.747,5.747,5.747,5.747,5.747,5.747,5.747,5.747,5.747,5.7297,5.732,5.732,5.7406,5.747,5.747,5.747,5.747]}]]